<?xml version='1.0' encoding='UTF-8'?><gpx version="1.1" creator="JPX - https://github.com/jenetics/jpx" xmlns="http://www.topografix.com/GPX/1/1"><trk><trkseg><trkpt lat="41.4810729" lon="12.8907206"><ele>17.0</ele><time>2026-04-26T05:12:13.201Z</time></trkpt><trkpt lat="41.4810419" lon="12.8908131"><ele>17.0</ele><time>2026-04-26T05:12:16.201Z</time></trkpt><trkpt lat="41.4810106" lon="12.8909197"><ele>17.0</ele><time>2026-04-26T05:12:19.201Z</time></trkpt><trkpt lat="41.4809901" lon="12.8910267"><ele>17.0</ele><time>2026-04-26T05:12:22.201Z</time></trkpt><trkpt lat="41.480961" lon="12.8911278"><ele>17.0</ele><time>2026-04-26T05:12:25.201Z</time></trkpt><trkpt lat="41.4809342" lon="12.8912153"><ele>17.0</ele><time>2026-04-26T05:12:28.201Z</time></trkpt><trkpt lat="41.4808969" lon="12.8913111"><ele>17.4</ele><time>2026-04-26T05:12:43.201Z</time></trkpt><trkpt lat="41.4808104" lon="12.8913353"><ele>17.799999999999997</ele><time>2026-04-26T05:12:46.201Z</time></trkpt><trkpt lat="41.4807142" lon="12.8913379"><ele>18.2</ele><time>2026-04-26T05:12:48.201Z</time></trkpt><trkpt lat="41.4806087" lon="12.8913471"><ele>18.599999999999998</ele><time>2026-04-26T05:12:50.201Z</time></trkpt><trkpt lat="41.4804944" lon="12.8913454"><ele>19.0</ele><time>2026-04-26T05:12:52.201Z</time></trkpt><trkpt lat="41.4803713" lon="12.8913505"><ele>19.0</ele><time>2026-04-26T05:12:54.201Z</time></trkpt><trkpt lat="41.4802497" lon="12.8913472"><ele>19.0</ele><time>2026-04-26T05:12:56.201Z</time></trkpt><trkpt lat="41.4801255" lon="12.8913436"><ele>19.0</ele><time>2026-04-26T05:12:58.201Z</time></trkpt><trkpt lat="41.4800606" lon="12.891345"><ele>19.0</ele><time>2026-04-26T05:12:59.201Z</time></trkpt><trkpt lat="41.4799959" lon="12.8913451"><ele>19.0</ele><time>2026-04-26T05:13:00.201Z</time></trkpt><trkpt lat="41.4799313" lon="12.8913483"><ele>19.0</ele><time>2026-04-26T05:13:01.201Z</time></trkpt><trkpt lat="41.4798669" lon="12.891349"><ele>19.0</ele><time>2026-04-26T05:13:02.202Z</time></trkpt><trkpt lat="41.4798027" lon="12.8913376"><ele>19.0</ele><time>2026-04-26T05:13:03.202Z</time></trkpt><trkpt lat="41.4797373" lon="12.8913425"><ele>19.0</ele><time>2026-04-26T05:13:04.201Z</time></trkpt><trkpt lat="41.4796729" lon="12.8913443"><ele>19.0</ele><time>2026-04-26T05:13:05.201Z</time></trkpt><trkpt lat="41.4796092" lon="12.8913482"><ele>19.0</ele><time>2026-04-26T05:13:06.201Z</time></trkpt><trkpt lat="41.4795454" lon="12.8913512"><ele>19.0</ele><time>2026-04-26T05:13:07.201Z</time></trkpt><trkpt lat="41.4794822" lon="12.8913558"><ele>19.0</ele><time>2026-04-26T05:13:08.203Z</time></trkpt><trkpt lat="41.4794183" lon="12.89136"><ele>18.857142857142858</ele><time>2026-04-26T05:13:09.202Z</time></trkpt><trkpt lat="41.4793522" lon="12.8913632"><ele>18.714285714285715</ele><time>2026-04-26T05:13:10.202Z</time></trkpt><trkpt lat="41.4792862" lon="12.8913684"><ele>18.571428571428573</ele><time>2026-04-26T05:13:11.202Z</time></trkpt><trkpt lat="41.4792186" lon="12.8913745"><ele>18.42857142857143</ele><time>2026-04-26T05:13:12.201Z</time></trkpt><trkpt lat="41.4791505" lon="12.8913759"><ele>18.285714285714285</ele><time>2026-04-26T05:13:13.202Z</time></trkpt><trkpt lat="41.4790833" lon="12.8913795"><ele>18.142857142857146</ele><time>2026-04-26T05:13:14.202Z</time></trkpt><trkpt lat="41.4790149" lon="12.8913837"><ele>18.0</ele><time>2026-04-26T05:13:15.202Z</time></trkpt><trkpt lat="41.4789465" lon="12.8913893"><ele>18.000000000000004</ele><time>2026-04-26T05:13:16.202Z</time></trkpt><trkpt lat="41.4788799" lon="12.891395"><ele>18.0</ele><time>2026-04-26T05:13:17.202Z</time></trkpt><trkpt lat="41.4788111" lon="12.8913936"><ele>18.0</ele><time>2026-04-26T05:13:18.202Z</time></trkpt><trkpt lat="41.4787448" lon="12.8913968"><ele>18.0</ele><time>2026-04-26T05:13:19.202Z</time></trkpt><trkpt lat="41.478677" lon="12.8913954"><ele>18.0</ele><time>2026-04-26T05:13:20.202Z</time></trkpt><trkpt lat="41.4786122" lon="12.891397"><ele>18.000000000000004</ele><time>2026-04-26T05:13:21.202Z</time></trkpt><trkpt lat="41.4785458" lon="12.8913977"><ele>18.0</ele><time>2026-04-26T05:13:22.201Z</time></trkpt><trkpt lat="41.4784819" lon="12.8913978"><ele>18.25</ele><time>2026-04-26T05:13:23.201Z</time></trkpt><trkpt lat="41.4783578" lon="12.8913984"><ele>18.5</ele><time>2026-04-26T05:13:25.201Z</time></trkpt><trkpt lat="41.4782366" lon="12.8914048"><ele>18.75</ele><time>2026-04-26T05:13:27.201Z</time></trkpt><trkpt lat="41.4781243" lon="12.8914049"><ele>19.0</ele><time>2026-04-26T05:13:29.201Z</time></trkpt><trkpt lat="41.4780157" lon="12.8913939"><ele>19.2</ele><time>2026-04-26T05:13:31.201Z</time></trkpt><trkpt lat="41.4779085" lon="12.8913748"><ele>19.4</ele><time>2026-04-26T05:13:33.201Z</time></trkpt><trkpt lat="41.4778067" lon="12.8913298"><ele>19.6</ele><time>2026-04-26T05:13:35.201Z</time></trkpt><trkpt lat="41.4777138" lon="12.8912722"><ele>19.8</ele><time>2026-04-26T05:13:37.202Z</time></trkpt><trkpt lat="41.4776177" lon="12.8912072"><ele>20.0</ele><time>2026-04-26T05:13:39.202Z</time></trkpt><trkpt lat="41.4775233" lon="12.8911447"><ele>20.0</ele><time>2026-04-26T05:13:41.201Z</time></trkpt><trkpt lat="41.4774304" lon="12.891091"><ele>20.0</ele><time>2026-04-26T05:13:43.201Z</time></trkpt><trkpt lat="41.4773461" lon="12.8910291"><ele>20.0</ele><time>2026-04-26T05:13:45.201Z</time></trkpt><trkpt lat="41.4772633" lon="12.8909657"><ele>20.0</ele><time>2026-04-26T05:13:47.201Z</time></trkpt><trkpt lat="41.4771756" lon="12.8909194"><ele>20.0</ele><time>2026-04-26T05:13:49.201Z</time></trkpt><trkpt lat="41.4770866" lon="12.8908775"><ele>20.6</ele><time>2026-04-26T05:13:51.202Z</time></trkpt><trkpt lat="41.4770056" lon="12.8908094"><ele>21.2</ele><time>2026-04-26T05:13:53.201Z</time></trkpt><trkpt lat="41.4769252" lon="12.8907408"><ele>21.799999999999997</ele><time>2026-04-26T05:13:55.202Z</time></trkpt><trkpt lat="41.4768308" lon="12.8906712"><ele>22.4</ele><time>2026-04-26T05:13:57.201Z</time></trkpt><trkpt lat="41.476741" lon="12.8906122"><ele>23.0</ele><time>2026-04-26T05:13:59.201Z</time></trkpt><trkpt lat="41.4766454" lon="12.8905548"><ele>23.0</ele><time>2026-04-26T05:14:01.201Z</time></trkpt><trkpt lat="41.4765515" lon="12.890495"><ele>23.0</ele><time>2026-04-26T05:14:03.201Z</time></trkpt><trkpt lat="41.4764545" lon="12.8904368"><ele>23.0</ele><time>2026-04-26T05:14:05.201Z</time></trkpt><trkpt lat="41.4763531" lon="12.8903792"><ele>23.0</ele><time>2026-04-26T05:14:07.201Z</time></trkpt><trkpt lat="41.476268" lon="12.8903095"><ele>23.0</ele><time>2026-04-26T05:14:09.201Z</time></trkpt><trkpt lat="41.4761751" lon="12.8902555"><ele>23.0</ele><time>2026-04-26T05:14:11.201Z</time></trkpt><trkpt lat="41.476093" lon="12.8901823"><ele>23.0</ele><time>2026-04-26T05:14:13.201Z</time></trkpt><trkpt lat="41.4759987" lon="12.8901359"><ele>23.0</ele><time>2026-04-26T05:14:15.202Z</time></trkpt><trkpt lat="41.4759007" lon="12.8900733"><ele>23.0</ele><time>2026-04-26T05:14:17.201Z</time></trkpt><trkpt lat="41.4758091" lon="12.8900181"><ele>23.0</ele><time>2026-04-26T05:14:19.202Z</time></trkpt><trkpt lat="41.4757182" lon="12.8899604"><ele>23.2</ele><time>2026-04-26T05:14:21.201Z</time></trkpt><trkpt lat="41.475623" lon="12.8899039"><ele>23.4</ele><time>2026-04-26T05:14:23.201Z</time></trkpt><trkpt lat="41.4755367" lon="12.8898416"><ele>23.599999999999998</ele><time>2026-04-26T05:14:25.201Z</time></trkpt><trkpt lat="41.4754495" lon="12.889779"><ele>23.799999999999997</ele><time>2026-04-26T05:14:27.202Z</time></trkpt><trkpt lat="41.4753593" lon="12.8897242"><ele>24.0</ele><time>2026-04-26T05:14:29.202Z</time></trkpt><trkpt lat="41.475276" lon="12.8896636"><ele>24.0</ele><time>2026-04-26T05:14:31.201Z</time></trkpt><trkpt lat="41.4751841" lon="12.8895979"><ele>24.0</ele><time>2026-04-26T05:14:33.202Z</time></trkpt><trkpt lat="41.4750974" lon="12.8895387"><ele>24.0</ele><time>2026-04-26T05:14:35.201Z</time></trkpt><trkpt lat="41.4750112" lon="12.8894772"><ele>24.0</ele><time>2026-04-26T05:14:37.203Z</time></trkpt><trkpt lat="41.4749228" lon="12.8894171"><ele>24.0</ele><time>2026-04-26T05:14:39.201Z</time></trkpt><trkpt lat="41.4748319" lon="12.8893506"><ele>24.0</ele><time>2026-04-26T05:14:41.201Z</time></trkpt><trkpt lat="41.4747457" lon="12.8892984"><ele>24.0</ele><time>2026-04-26T05:14:43.202Z</time></trkpt><trkpt lat="41.4746661" lon="12.8892377"><ele>24.0</ele><time>2026-04-26T05:14:45.201Z</time></trkpt><trkpt lat="41.4745808" lon="12.8891906"><ele>24.0</ele><time>2026-04-26T05:14:47.201Z</time></trkpt><trkpt lat="41.4744979" lon="12.8891391"><ele>24.0</ele><time>2026-04-26T05:14:49.202Z</time></trkpt><trkpt lat="41.4744114" lon="12.8890842"><ele>24.0</ele><time>2026-04-26T05:14:51.201Z</time></trkpt><trkpt lat="41.4743319" lon="12.8890247"><ele>24.0</ele><time>2026-04-26T05:14:53.202Z</time></trkpt><trkpt lat="41.4742462" lon="12.8889819"><ele>24.0</ele><time>2026-04-26T05:14:55.201Z</time></trkpt><trkpt lat="41.4741641" lon="12.8889324"><ele>24.0</ele><time>2026-04-26T05:14:57.202Z</time></trkpt><trkpt lat="41.4740753" lon="12.8888796"><ele>24.0</ele><time>2026-04-26T05:14:59.201Z</time></trkpt><trkpt lat="41.4739853" lon="12.8888264"><ele>24.0</ele><time>2026-04-26T05:15:01.202Z</time></trkpt><trkpt lat="41.4739037" lon="12.8887583"><ele>24.0</ele><time>2026-04-26T05:15:03.202Z</time></trkpt><trkpt lat="41.4738159" lon="12.8886924"><ele>24.0</ele><time>2026-04-26T05:15:05.201Z</time></trkpt><trkpt lat="41.4737246" lon="12.888642"><ele>24.0</ele><time>2026-04-26T05:15:07.201Z</time></trkpt><trkpt lat="41.4736395" lon="12.8885824"><ele>24.0</ele><time>2026-04-26T05:15:09.202Z</time></trkpt><trkpt lat="41.4735538" lon="12.8885207"><ele>24.0</ele><time>2026-04-26T05:15:11.201Z</time></trkpt><trkpt lat="41.4734712" lon="12.8884512"><ele>24.0</ele><time>2026-04-26T05:15:13.201Z</time></trkpt><trkpt lat="41.4733847" lon="12.8883875"><ele>24.0</ele><time>2026-04-26T05:15:15.202Z</time></trkpt><trkpt lat="41.473292" lon="12.8883275"><ele>24.0</ele><time>2026-04-26T05:15:17.201Z</time></trkpt><trkpt lat="41.4731958" lon="12.8882604"><ele>24.0</ele><time>2026-04-26T05:15:19.201Z</time></trkpt><trkpt lat="41.4730924" lon="12.8881886"><ele>24.0</ele><time>2026-04-26T05:15:21.201Z</time></trkpt><trkpt lat="41.4729813" lon="12.888153"><ele>24.0</ele><time>2026-04-26T05:15:23.202Z</time></trkpt><trkpt lat="41.4728818" lon="12.8881983"><ele>24.0</ele><time>2026-04-26T05:15:25.202Z</time></trkpt><trkpt lat="41.4728153" lon="12.888318"><ele>24.0</ele><time>2026-04-26T05:15:27.201Z</time></trkpt><trkpt lat="41.4727556" lon="12.8884328"><ele>24.0</ele><time>2026-04-26T05:15:29.201Z</time></trkpt><trkpt lat="41.4726706" lon="12.8885105"><ele>23.6</ele><time>2026-04-26T05:15:31.202Z</time></trkpt><trkpt lat="41.4725717" lon="12.8884997"><ele>23.2</ele><time>2026-04-26T05:15:33.201Z</time></trkpt><trkpt lat="41.4724936" lon="12.8884313"><ele>22.8</ele><time>2026-04-26T05:15:35.201Z</time></trkpt><trkpt lat="41.4724117" lon="12.8883725"><ele>22.400000000000002</ele><time>2026-04-26T05:15:37.201Z</time></trkpt><trkpt lat="41.4723218" lon="12.8883149"><ele>22.0</ele><time>2026-04-26T05:15:39.202Z</time></trkpt><trkpt lat="41.4722412" lon="12.8882444"><ele>22.0</ele><time>2026-04-26T05:15:41.202Z</time></trkpt><trkpt lat="41.4721548" lon="12.8881767"><ele>22.0</ele><time>2026-04-26T05:15:43.201Z</time></trkpt><trkpt lat="41.472076" lon="12.8881087"><ele>22.0</ele><time>2026-04-26T05:15:45.201Z</time></trkpt><trkpt lat="41.4719916" lon="12.8880488"><ele>22.0</ele><time>2026-04-26T05:15:47.201Z</time></trkpt><trkpt lat="41.471911" lon="12.8879742"><ele>22.0</ele><time>2026-04-26T05:15:49.201Z</time></trkpt><trkpt lat="41.4718314" lon="12.8879076"><ele>21.833333333333332</ele><time>2026-04-26T05:15:51.201Z</time></trkpt><trkpt lat="41.47175" lon="12.8878494"><ele>21.666666666666664</ele><time>2026-04-26T05:15:53.201Z</time></trkpt><trkpt lat="41.4716788" lon="12.8877939"><ele>21.5</ele><time>2026-04-26T05:15:55.201Z</time></trkpt><trkpt lat="41.4716205" lon="12.8877372"><ele>21.333333333333332</ele><time>2026-04-26T05:15:57.201Z</time></trkpt><trkpt lat="41.471564" lon="12.8876922"><ele>21.166666666666668</ele><time>2026-04-26T05:15:59.201Z</time></trkpt><trkpt lat="41.4715029" lon="12.8876538"><ele>21.0</ele><time>2026-04-26T05:16:01.201Z</time></trkpt><trkpt lat="41.4714379" lon="12.8876124"><ele>21.285714285714285</ele><time>2026-04-26T05:16:03.201Z</time></trkpt><trkpt lat="41.4713714" lon="12.8875696"><ele>21.57142857142857</ele><time>2026-04-26T05:16:05.201Z</time></trkpt><trkpt lat="41.4713097" lon="12.8875188"><ele>21.857142857142858</ele><time>2026-04-26T05:16:07.201Z</time></trkpt><trkpt lat="41.4712478" lon="12.8874748"><ele>22.142857142857142</ele><time>2026-04-26T05:16:09.201Z</time></trkpt><trkpt lat="41.4711858" lon="12.8874256"><ele>22.428571428571427</ele><time>2026-04-26T05:16:11.203Z</time></trkpt><trkpt lat="41.4711219" lon="12.8873721"><ele>22.714285714285715</ele><time>2026-04-26T05:16:13.201Z</time></trkpt><trkpt lat="41.4710542" lon="12.8873174"><ele>23.0</ele><time>2026-04-26T05:16:15.201Z</time></trkpt><trkpt lat="41.4709836" lon="12.8872673"><ele>23.0</ele><time>2026-04-26T05:16:17.202Z</time></trkpt><trkpt lat="41.4709109" lon="12.8872176"><ele>23.0</ele><time>2026-04-26T05:16:19.201Z</time></trkpt><trkpt lat="41.4708407" lon="12.8871572"><ele>23.0</ele><time>2026-04-26T05:16:21.201Z</time></trkpt><trkpt lat="41.4707693" lon="12.8870873"><ele>23.0</ele><time>2026-04-26T05:16:23.201Z</time></trkpt><trkpt lat="41.4706942" lon="12.8870404"><ele>23.0</ele><time>2026-04-26T05:16:25.202Z</time></trkpt><trkpt lat="41.4706223" lon="12.8869853"><ele>23.0</ele><time>2026-04-26T05:16:27.201Z</time></trkpt><trkpt lat="41.4705438" lon="12.886917"><ele>23.0</ele><time>2026-04-26T05:16:29.201Z</time></trkpt><trkpt lat="41.4704591" lon="12.8868463"><ele>23.0</ele><time>2026-04-26T05:16:31.201Z</time></trkpt><trkpt lat="41.4703688" lon="12.886769"><ele>23.0</ele><time>2026-04-26T05:16:33.201Z</time></trkpt><trkpt lat="41.4702709" lon="12.8866915"><ele>23.0</ele><time>2026-04-26T05:16:35.202Z</time></trkpt><trkpt lat="41.4701814" lon="12.8866052"><ele>23.0</ele><time>2026-04-26T05:16:37.201Z</time></trkpt><trkpt lat="41.4700851" lon="12.8865306"><ele>23.0</ele><time>2026-04-26T05:16:39.201Z</time></trkpt><trkpt lat="41.4699904" lon="12.8864507"><ele>23.0</ele><time>2026-04-26T05:16:41.201Z</time></trkpt><trkpt lat="41.4698942" lon="12.8863705"><ele>23.0</ele><time>2026-04-26T05:16:43.202Z</time></trkpt><trkpt lat="41.4697963" lon="12.8862985"><ele>23.0</ele><time>2026-04-26T05:16:45.202Z</time></trkpt><trkpt lat="41.4697006" lon="12.8862252"><ele>23.0</ele><time>2026-04-26T05:16:47.201Z</time></trkpt><trkpt lat="41.4696074" lon="12.8861502"><ele>23.0</ele><time>2026-04-26T05:16:49.201Z</time></trkpt><trkpt lat="41.4695137" lon="12.8860791"><ele>23.0</ele><time>2026-04-26T05:16:51.201Z</time></trkpt><trkpt lat="41.4694213" lon="12.8860057"><ele>23.0</ele><time>2026-04-26T05:16:53.201Z</time></trkpt><trkpt lat="41.4693297" lon="12.885938"><ele>23.0</ele><time>2026-04-26T05:16:55.202Z</time></trkpt><trkpt lat="41.4692436" lon="12.8858657"><ele>23.0</ele><time>2026-04-26T05:16:57.201Z</time></trkpt><trkpt lat="41.4691653" lon="12.8857926"><ele>23.166666666666668</ele><time>2026-04-26T05:16:59.201Z</time></trkpt><trkpt lat="41.4690904" lon="12.8857354"><ele>23.333333333333336</ele><time>2026-04-26T05:17:01.201Z</time></trkpt><trkpt lat="41.4690173" lon="12.8856785"><ele>23.5</ele><time>2026-04-26T05:17:03.201Z</time></trkpt><trkpt lat="41.4689431" lon="12.8856411"><ele>23.666666666666668</ele><time>2026-04-26T05:17:05.202Z</time></trkpt><trkpt lat="41.4688661" lon="12.8855976"><ele>23.833333333333332</ele><time>2026-04-26T05:17:07.201Z</time></trkpt><trkpt lat="41.4687907" lon="12.8855402"><ele>24.0</ele><time>2026-04-26T05:17:09.201Z</time></trkpt><trkpt lat="41.4687068" lon="12.885483"><ele>24.0</ele><time>2026-04-26T05:17:11.201Z</time></trkpt><trkpt lat="41.4686303" lon="12.885414"><ele>24.0</ele><time>2026-04-26T05:17:13.202Z</time></trkpt><trkpt lat="41.4685469" lon="12.8853545"><ele>24.0</ele><time>2026-04-26T05:17:15.201Z</time></trkpt><trkpt lat="41.4684659" lon="12.885294"><ele>24.0</ele><time>2026-04-26T05:17:17.201Z</time></trkpt><trkpt lat="41.4683879" lon="12.8852249"><ele>24.0</ele><time>2026-04-26T05:17:19.201Z</time></trkpt><trkpt lat="41.4683118" lon="12.8851482"><ele>23.799999999999997</ele><time>2026-04-26T05:17:21.201Z</time></trkpt><trkpt lat="41.4682326" lon="12.8850844"><ele>23.599999999999998</ele><time>2026-04-26T05:17:23.201Z</time></trkpt><trkpt lat="41.4681512" lon="12.8850255"><ele>23.4</ele><time>2026-04-26T05:17:25.201Z</time></trkpt><trkpt lat="41.4680682" lon="12.8849726"><ele>23.2</ele><time>2026-04-26T05:17:27.201Z</time></trkpt><trkpt lat="41.4679964" lon="12.8849084"><ele>23.0</ele><time>2026-04-26T05:17:29.201Z</time></trkpt><trkpt lat="41.4679158" lon="12.8848531"><ele>23.799999999999997</ele><time>2026-04-26T05:17:31.201Z</time></trkpt><trkpt lat="41.467834" lon="12.884799"><ele>24.6</ele><time>2026-04-26T05:17:33.202Z</time></trkpt><trkpt lat="41.4677552" lon="12.8847444"><ele>25.400000000000002</ele><time>2026-04-26T05:17:35.202Z</time></trkpt><trkpt lat="41.4676769" lon="12.8846789"><ele>26.200000000000003</ele><time>2026-04-26T05:17:37.202Z</time></trkpt><trkpt lat="41.4675967" lon="12.8846193"><ele>27.0</ele><time>2026-04-26T05:17:39.201Z</time></trkpt><trkpt lat="41.4675203" lon="12.8845584"><ele>27.0</ele><time>2026-04-26T05:17:41.201Z</time></trkpt><trkpt lat="41.4674456" lon="12.8845047"><ele>27.0</ele><time>2026-04-26T05:17:43.202Z</time></trkpt><trkpt lat="41.4673637" lon="12.8844458"><ele>27.0</ele><time>2026-04-26T05:17:45.202Z</time></trkpt><trkpt lat="41.4672892" lon="12.8843798"><ele>27.0</ele><time>2026-04-26T05:17:47.201Z</time></trkpt><trkpt lat="41.4672148" lon="12.8843191"><ele>27.0</ele><time>2026-04-26T05:17:49.202Z</time></trkpt><trkpt lat="41.4671365" lon="12.8842664"><ele>27.0</ele><time>2026-04-26T05:17:51.201Z</time></trkpt><trkpt lat="41.4670614" lon="12.8842134"><ele>27.0</ele><time>2026-04-26T05:17:53.201Z</time></trkpt><trkpt lat="41.4669876" lon="12.8841551"><ele>27.0</ele><time>2026-04-26T05:17:55.201Z</time></trkpt><trkpt lat="41.4669132" lon="12.8840956"><ele>27.0</ele><time>2026-04-26T05:17:57.201Z</time></trkpt><trkpt lat="41.4668374" lon="12.8840363"><ele>27.0</ele><time>2026-04-26T05:17:59.201Z</time></trkpt><trkpt lat="41.4667733" lon="12.8839692"><ele>27.0</ele><time>2026-04-26T05:18:01.201Z</time></trkpt><trkpt lat="41.4667109" lon="12.8839195"><ele>27.0</ele><time>2026-04-26T05:18:03.202Z</time></trkpt><trkpt lat="41.4666555" lon="12.8838705"><ele>27.0</ele><time>2026-04-26T05:18:05.201Z</time></trkpt><trkpt lat="41.4665994" lon="12.8838215"><ele>27.0</ele><time>2026-04-26T05:18:07.202Z</time></trkpt><trkpt lat="41.4665391" lon="12.8837677"><ele>27.0</ele><time>2026-04-26T05:18:09.201Z</time></trkpt><trkpt lat="41.4664723" lon="12.8837178"><ele>27.0</ele><time>2026-04-26T05:18:11.202Z</time></trkpt><trkpt lat="41.4664041" lon="12.8836682"><ele>27.0</ele><time>2026-04-26T05:18:13.201Z</time></trkpt><trkpt lat="41.4663353" lon="12.883614"><ele>27.0</ele><time>2026-04-26T05:18:15.201Z</time></trkpt><trkpt lat="41.4662621" lon="12.8835593"><ele>27.166666666666668</ele><time>2026-04-26T05:18:17.202Z</time></trkpt><trkpt lat="41.4661884" lon="12.8835026"><ele>27.333333333333336</ele><time>2026-04-26T05:18:19.201Z</time></trkpt><trkpt lat="41.4661104" lon="12.8834508"><ele>27.5</ele><time>2026-04-26T05:18:21.202Z</time></trkpt><trkpt lat="41.4660364" lon="12.8833864"><ele>27.666666666666668</ele><time>2026-04-26T05:18:23.201Z</time></trkpt><trkpt lat="41.4659613" lon="12.8833291"><ele>27.833333333333336</ele><time>2026-04-26T05:18:25.201Z</time></trkpt><trkpt lat="41.4658909" lon="12.8832735"><ele>28.0</ele><time>2026-04-26T05:18:27.201Z</time></trkpt><trkpt lat="41.4658159" lon="12.8832311"><ele>28.000000000000004</ele><time>2026-04-26T05:18:29.201Z</time></trkpt><trkpt lat="41.4657344" lon="12.8832332"><ele>28.0</ele><time>2026-04-26T05:18:31.201Z</time></trkpt><trkpt lat="41.4656693" lon="12.8833026"><ele>28.0</ele><time>2026-04-26T05:18:33.2Z</time></trkpt><trkpt lat="41.4656328" lon="12.8834093"><ele>28.0</ele><time>2026-04-26T05:18:35.2Z</time></trkpt><trkpt lat="41.4655844" lon="12.8835084"><ele>28.000000000000004</ele><time>2026-04-26T05:18:37.2Z</time></trkpt><trkpt lat="41.4655322" lon="12.8836134"><ele>28.0</ele><time>2026-04-26T05:18:39.2Z</time></trkpt><trkpt lat="41.4654775" lon="12.8837188"><ele>28.2</ele><time>2026-04-26T05:18:41.2Z</time></trkpt><trkpt lat="41.4654244" lon="12.8838173"><ele>28.4</ele><time>2026-04-26T05:18:43.2Z</time></trkpt><trkpt lat="41.4653713" lon="12.8839208"><ele>28.599999999999998</ele><time>2026-04-26T05:18:45.2Z</time></trkpt><trkpt lat="41.4653214" lon="12.8840237"><ele>28.799999999999997</ele><time>2026-04-26T05:18:47.2Z</time></trkpt><trkpt lat="41.4652717" lon="12.8841083"><ele>29.0</ele><time>2026-04-26T05:18:49.2Z</time></trkpt><trkpt lat="41.4652192" lon="12.8842099"><ele>29.0</ele><time>2026-04-26T05:18:51.2Z</time></trkpt><trkpt lat="41.4651636" lon="12.8843032"><ele>29.0</ele><time>2026-04-26T05:18:53.2Z</time></trkpt><trkpt lat="41.4650948" lon="12.8843958"><ele>29.0</ele><time>2026-04-26T05:18:55.2Z</time></trkpt><trkpt lat="41.4650326" lon="12.8844932"><ele>29.0</ele><time>2026-04-26T05:18:57.201Z</time></trkpt><trkpt lat="41.4649737" lon="12.8845877"><ele>29.0</ele><time>2026-04-26T05:18:59.2Z</time></trkpt><trkpt lat="41.4649131" lon="12.8846914"><ele>28.999999999999996</ele><time>2026-04-26T05:19:01.2Z</time></trkpt><trkpt lat="41.4648611" lon="12.8847992"><ele>29.0</ele><time>2026-04-26T05:19:03.2Z</time></trkpt><trkpt lat="41.4648082" lon="12.8848945"><ele>29.0</ele><time>2026-04-26T05:19:05.201Z</time></trkpt><trkpt lat="41.4647504" lon="12.8849891"><ele>29.0</ele><time>2026-04-26T05:19:07.2Z</time></trkpt><trkpt lat="41.4646916" lon="12.8850649"><ele>28.999999999999996</ele><time>2026-04-26T05:19:09.2Z</time></trkpt><trkpt lat="41.4646461" lon="12.8851526"><ele>29.0</ele><time>2026-04-26T05:19:11.201Z</time></trkpt><trkpt lat="41.4646095" lon="12.8852492"><ele>28.999999999999996</ele><time>2026-04-26T05:19:13.2Z</time></trkpt><trkpt lat="41.4645756" lon="12.8853553"><ele>29.0</ele><time>2026-04-26T05:19:15.2Z</time></trkpt><trkpt lat="41.464544" lon="12.8854636"><ele>29.0</ele><time>2026-04-26T05:19:17.2Z</time></trkpt><trkpt lat="41.4645211" lon="12.8855772"><ele>29.0</ele><time>2026-04-26T05:19:19.2Z</time></trkpt><trkpt lat="41.4645091" lon="12.88569"><ele>28.999999999999996</ele><time>2026-04-26T05:19:21.2Z</time></trkpt><trkpt lat="41.4644992" lon="12.8858006"><ele>29.0</ele><time>2026-04-26T05:19:23.2Z</time></trkpt><trkpt lat="41.4644859" lon="12.8859255"><ele>28.4</ele><time>2026-04-26T05:19:25.2Z</time></trkpt><trkpt lat="41.4644721" lon="12.8860513"><ele>27.799999999999997</ele><time>2026-04-26T05:19:27.2Z</time></trkpt><trkpt lat="41.4644533" lon="12.886178"><ele>27.200000000000003</ele><time>2026-04-26T05:19:29.2Z</time></trkpt><trkpt lat="41.4644393" lon="12.8863066"><ele>26.6</ele><time>2026-04-26T05:19:31.2Z</time></trkpt><trkpt lat="41.4644078" lon="12.8864317"><ele>26.0</ele><time>2026-04-26T05:19:33.2Z</time></trkpt><trkpt lat="41.4643549" lon="12.8865425"><ele>26.0</ele><time>2026-04-26T05:19:35.2Z</time></trkpt><trkpt lat="41.4642854" lon="12.8866315"><ele>26.0</ele><time>2026-04-26T05:19:37.201Z</time></trkpt><trkpt lat="41.4642066" lon="12.8867297"><ele>26.0</ele><time>2026-04-26T05:19:39.2Z</time></trkpt><trkpt lat="41.4641429" lon="12.8868544"><ele>26.0</ele><time>2026-04-26T05:19:41.2Z</time></trkpt><trkpt lat="41.4641077" lon="12.8869917"><ele>26.0</ele><time>2026-04-26T05:19:43.2Z</time></trkpt><trkpt lat="41.4640988" lon="12.8871324"><ele>25.8</ele><time>2026-04-26T05:19:45.2Z</time></trkpt><trkpt lat="41.4640958" lon="12.8872698"><ele>25.6</ele><time>2026-04-26T05:19:47.2Z</time></trkpt><trkpt lat="41.464098" lon="12.887409"><ele>25.4</ele><time>2026-04-26T05:19:49.2Z</time></trkpt><trkpt lat="41.464093" lon="12.88755"><ele>25.2</ele><time>2026-04-26T05:19:51.201Z</time></trkpt><trkpt lat="41.4640836" lon="12.8876882"><ele>25.0</ele><time>2026-04-26T05:19:53.2Z</time></trkpt><trkpt lat="41.4640619" lon="12.8878404"><ele>25.2</ele><time>2026-04-26T05:19:55.201Z</time></trkpt><trkpt lat="41.4640238" lon="12.8879842"><ele>25.4</ele><time>2026-04-26T05:19:57.2Z</time></trkpt><trkpt lat="41.4639878" lon="12.8881065"><ele>25.6</ele><time>2026-04-26T05:19:59.201Z</time></trkpt><trkpt lat="41.4639415" lon="12.8882302"><ele>25.8</ele><time>2026-04-26T05:20:01.2Z</time></trkpt><trkpt lat="41.4638932" lon="12.8883485"><ele>26.0</ele><time>2026-04-26T05:20:03.201Z</time></trkpt><trkpt lat="41.4638475" lon="12.8884685"><ele>26.0</ele><time>2026-04-26T05:20:05.2Z</time></trkpt><trkpt lat="41.4638058" lon="12.8885919"><ele>26.0</ele><time>2026-04-26T05:20:07.2Z</time></trkpt><trkpt lat="41.4637641" lon="12.8887185"><ele>26.0</ele><time>2026-04-26T05:20:09.2Z</time></trkpt><trkpt lat="41.4637198" lon="12.8888414"><ele>26.0</ele><time>2026-04-26T05:20:11.201Z</time></trkpt><trkpt lat="41.4636748" lon="12.8889677"><ele>26.0</ele><time>2026-04-26T05:20:13.2Z</time></trkpt><trkpt lat="41.4636313" lon="12.8890936"><ele>25.6</ele><time>2026-04-26T05:20:15.2Z</time></trkpt><trkpt lat="41.4635861" lon="12.8892195"><ele>25.200000000000003</ele><time>2026-04-26T05:20:17.201Z</time></trkpt><trkpt lat="41.4635471" lon="12.8893386"><ele>24.799999999999997</ele><time>2026-04-26T05:20:19.2Z</time></trkpt><trkpt lat="41.4635104" lon="12.889453"><ele>24.4</ele><time>2026-04-26T05:20:21.201Z</time></trkpt><trkpt lat="41.4634699" lon="12.8895688"><ele>24.0</ele><time>2026-04-26T05:20:23.2Z</time></trkpt><trkpt lat="41.4634348" lon="12.8896883"><ele>24.0</ele><time>2026-04-26T05:20:25.2Z</time></trkpt><trkpt lat="41.4633731" lon="12.8897887"><ele>24.0</ele><time>2026-04-26T05:20:27.2Z</time></trkpt><trkpt lat="41.4632985" lon="12.8898737"><ele>24.0</ele><time>2026-04-26T05:20:29.201Z</time></trkpt><trkpt lat="41.4632187" lon="12.8899478"><ele>24.0</ele><time>2026-04-26T05:20:31.2Z</time></trkpt><trkpt lat="41.4631379" lon="12.8900061"><ele>24.0</ele><time>2026-04-26T05:20:33.201Z</time></trkpt><trkpt lat="41.4630656" lon="12.8900859"><ele>24.4</ele><time>2026-04-26T05:20:35.2Z</time></trkpt><trkpt lat="41.4630106" lon="12.8901926"><ele>24.799999999999997</ele><time>2026-04-26T05:20:37.201Z</time></trkpt><trkpt lat="41.4629819" lon="12.890319"><ele>25.200000000000003</ele><time>2026-04-26T05:20:39.2Z</time></trkpt><trkpt lat="41.4629901" lon="12.8904377"><ele>25.6</ele><time>2026-04-26T05:20:41.2Z</time></trkpt><trkpt lat="41.4630134" lon="12.8905651"><ele>26.0</ele><time>2026-04-26T05:20:43.201Z</time></trkpt><trkpt lat="41.4630424" lon="12.8906872"><ele>26.0</ele><time>2026-04-26T05:20:45.201Z</time></trkpt><trkpt lat="41.463042" lon="12.8908131"><ele>26.0</ele><time>2026-04-26T05:20:47.2Z</time></trkpt><trkpt lat="41.4630256" lon="12.8909445"><ele>26.0</ele><time>2026-04-26T05:20:49.2Z</time></trkpt><trkpt lat="41.462994" lon="12.8910623"><ele>26.0</ele><time>2026-04-26T05:20:51.2Z</time></trkpt><trkpt lat="41.4629565" lon="12.8911687"><ele>26.0</ele><time>2026-04-26T05:20:53.201Z</time></trkpt><trkpt lat="41.4629212" lon="12.8912746"><ele>26.166666666666664</ele><time>2026-04-26T05:20:55.2Z</time></trkpt><trkpt lat="41.4628947" lon="12.891384"><ele>26.333333333333332</ele><time>2026-04-26T05:20:57.2Z</time></trkpt><trkpt lat="41.4628638" lon="12.8914798"><ele>26.5</ele><time>2026-04-26T05:20:59.2Z</time></trkpt><trkpt lat="41.4628295" lon="12.8915707"><ele>26.666666666666664</ele><time>2026-04-26T05:21:01.2Z</time></trkpt><trkpt lat="41.4627991" lon="12.8916694"><ele>26.833333333333332</ele><time>2026-04-26T05:21:03.2Z</time></trkpt><trkpt lat="41.4627631" lon="12.8917688"><ele>27.0</ele><time>2026-04-26T05:21:05.2Z</time></trkpt><trkpt lat="41.4627208" lon="12.8918649"><ele>27.166666666666668</ele><time>2026-04-26T05:21:07.2Z</time></trkpt><trkpt lat="41.4626959" lon="12.8919714"><ele>27.333333333333336</ele><time>2026-04-26T05:21:09.2Z</time></trkpt><trkpt lat="41.4626671" lon="12.8920785"><ele>27.5</ele><time>2026-04-26T05:21:11.2Z</time></trkpt><trkpt lat="41.4626338" lon="12.8921859"><ele>27.666666666666668</ele><time>2026-04-26T05:21:13.2Z</time></trkpt><trkpt lat="41.462592" lon="12.8922959"><ele>27.833333333333336</ele><time>2026-04-26T05:21:15.2Z</time></trkpt><trkpt lat="41.4625349" lon="12.8923978"><ele>28.0</ele><time>2026-04-26T05:21:17.2Z</time></trkpt><trkpt lat="41.4624689" lon="12.8924792"><ele>28.0</ele><time>2026-04-26T05:21:19.2Z</time></trkpt><trkpt lat="41.4623981" lon="12.8925519"><ele>27.999999999999996</ele><time>2026-04-26T05:21:21.2Z</time></trkpt><trkpt lat="41.4623219" lon="12.8926246"><ele>27.999999999999996</ele><time>2026-04-26T05:21:23.2Z</time></trkpt><trkpt lat="41.4622429" lon="12.8926642"><ele>28.0</ele><time>2026-04-26T05:21:25.2Z</time></trkpt><trkpt lat="41.4621521" lon="12.8926999"><ele>28.0</ele><time>2026-04-26T05:21:27.2Z</time></trkpt><trkpt lat="41.4620593" lon="12.8927138"><ele>28.142857142857142</ele><time>2026-04-26T05:21:29.2Z</time></trkpt><trkpt lat="41.4619691" lon="12.8927139"><ele>28.285714285714285</ele><time>2026-04-26T05:21:31.201Z</time></trkpt><trkpt lat="41.4618989" lon="12.89269"><ele>28.42857142857143</ele><time>2026-04-26T05:21:33.2Z</time></trkpt><trkpt lat="41.4618418" lon="12.8926287"><ele>28.571428571428573</ele><time>2026-04-26T05:21:35.201Z</time></trkpt><trkpt lat="41.4617767" lon="12.8926333"><ele>28.714285714285715</ele><time>2026-04-26T05:21:37.2Z</time></trkpt><trkpt lat="41.4617092" lon="12.8926226"><ele>28.85714285714286</ele><time>2026-04-26T05:21:39.2Z</time></trkpt><trkpt lat="41.4616309" lon="12.892627"><ele>29.000000000000004</ele><time>2026-04-26T05:21:41.2Z</time></trkpt><trkpt lat="41.4615396" lon="12.8926322"><ele>29.0</ele><time>2026-04-26T05:21:43.2Z</time></trkpt><trkpt lat="41.4614437" lon="12.8926555"><ele>29.0</ele><time>2026-04-26T05:21:45.201Z</time></trkpt><trkpt lat="41.4613575" lon="12.8926578"><ele>29.0</ele><time>2026-04-26T05:21:47.2Z</time></trkpt><trkpt lat="41.4612592" lon="12.8926721"><ele>29.0</ele><time>2026-04-26T05:21:49.2Z</time></trkpt><trkpt lat="41.4611557" lon="12.8926823"><ele>29.0</ele><time>2026-04-26T05:21:51.2Z</time></trkpt><trkpt lat="41.4610638" lon="12.8926761"><ele>28.999999999999996</ele><time>2026-04-26T05:21:53.2Z</time></trkpt><trkpt lat="41.4609717" lon="12.8926738"><ele>29.0</ele><time>2026-04-26T05:21:55.2Z</time></trkpt><trkpt lat="41.4608905" lon="12.8926684"><ele>29.0</ele><time>2026-04-26T05:21:57.2Z</time></trkpt><trkpt lat="41.4608027" lon="12.8926687"><ele>29.0</ele><time>2026-04-26T05:21:59.2Z</time></trkpt><trkpt lat="41.4607135" lon="12.8926673"><ele>28.999999999999996</ele><time>2026-04-26T05:22:01.2Z</time></trkpt><trkpt lat="41.4606247" lon="12.8926793"><ele>29.0</ele><time>2026-04-26T05:22:03.2Z</time></trkpt><trkpt lat="41.4605375" lon="12.8926814"><ele>28.4</ele><time>2026-04-26T05:22:05.2Z</time></trkpt><trkpt lat="41.4604458" lon="12.8926847"><ele>27.799999999999997</ele><time>2026-04-26T05:22:07.2Z</time></trkpt><trkpt lat="41.4603654" lon="12.8926881"><ele>27.200000000000003</ele><time>2026-04-26T05:22:09.2Z</time></trkpt><trkpt lat="41.460268" lon="12.8926995"><ele>26.6</ele><time>2026-04-26T05:22:11.2Z</time></trkpt><trkpt lat="41.4601644" lon="12.8927103"><ele>26.0</ele><time>2026-04-26T05:22:13.201Z</time></trkpt><trkpt lat="41.4600585" lon="12.8927071"><ele>26.0</ele><time>2026-04-26T05:22:15.2Z</time></trkpt><trkpt lat="41.4599585" lon="12.8927097"><ele>26.0</ele><time>2026-04-26T05:22:17.2Z</time></trkpt><trkpt lat="41.4598536" lon="12.8927091"><ele>26.0</ele><time>2026-04-26T05:22:19.2Z</time></trkpt><trkpt lat="41.4597537" lon="12.8927176"><ele>26.0</ele><time>2026-04-26T05:22:21.2Z</time></trkpt><trkpt lat="41.4596528" lon="12.8927182"><ele>26.0</ele><time>2026-04-26T05:22:23.2Z</time></trkpt><trkpt lat="41.4595569" lon="12.8927052"><ele>26.4</ele><time>2026-04-26T05:22:25.2Z</time></trkpt><trkpt lat="41.45946" lon="12.8927099"><ele>26.8</ele><time>2026-04-26T05:22:27.2Z</time></trkpt><trkpt lat="41.4593674" lon="12.8927487"><ele>27.199999999999996</ele><time>2026-04-26T05:22:29.2Z</time></trkpt><trkpt lat="41.4592736" lon="12.8927909"><ele>27.599999999999998</ele><time>2026-04-26T05:22:31.2Z</time></trkpt><trkpt lat="41.459181" lon="12.8928432"><ele>28.0</ele><time>2026-04-26T05:22:33.2Z</time></trkpt><trkpt lat="41.4590832" lon="12.8928769"><ele>28.0</ele><time>2026-04-26T05:22:35.2Z</time></trkpt><trkpt lat="41.458986" lon="12.8929121"><ele>27.999999999999996</ele><time>2026-04-26T05:22:37.2Z</time></trkpt><trkpt lat="41.4588894" lon="12.8929486"><ele>27.999999999999996</ele><time>2026-04-26T05:22:39.201Z</time></trkpt><trkpt lat="41.4588048" lon="12.8929756"><ele>28.0</ele><time>2026-04-26T05:22:41.2Z</time></trkpt><trkpt lat="41.4587116" lon="12.8930067"><ele>28.0</ele><time>2026-04-26T05:22:43.2Z</time></trkpt><trkpt lat="41.4586199" lon="12.893028"><ele>27.599999999999998</ele><time>2026-04-26T05:22:45.2Z</time></trkpt><trkpt lat="41.4585238" lon="12.8930354"><ele>27.199999999999996</ele><time>2026-04-26T05:22:47.2Z</time></trkpt><trkpt lat="41.4584244" lon="12.8930259"><ele>26.8</ele><time>2026-04-26T05:22:49.2Z</time></trkpt><trkpt lat="41.4583311" lon="12.8929968"><ele>26.4</ele><time>2026-04-26T05:22:51.2Z</time></trkpt><trkpt lat="41.4582484" lon="12.8929562"><ele>26.0</ele><time>2026-04-26T05:22:53.2Z</time></trkpt><trkpt lat="41.4581674" lon="12.8929135"><ele>25.999999999999996</ele><time>2026-04-26T05:22:55.2Z</time></trkpt><trkpt lat="41.4581005" lon="12.8928505"><ele>26.0</ele><time>2026-04-26T05:22:57.2Z</time></trkpt><trkpt lat="41.4580456" lon="12.8927754"><ele>26.0</ele><time>2026-04-26T05:22:59.201Z</time></trkpt><trkpt lat="41.4580122" lon="12.8926792"><ele>26.0</ele><time>2026-04-26T05:23:01.2Z</time></trkpt><trkpt lat="41.4579971" lon="12.8925672"><ele>25.999999999999996</ele><time>2026-04-26T05:23:03.2Z</time></trkpt><trkpt lat="41.4579709" lon="12.8924825"><ele>26.0</ele><time>2026-04-26T05:23:05.2Z</time></trkpt><trkpt lat="41.4579033" lon="12.8924633"><ele>25.999999999999996</ele><time>2026-04-26T05:23:07.2Z</time></trkpt><trkpt lat="41.4578337" lon="12.8924888"><ele>26.0</ele><time>2026-04-26T05:23:09.2Z</time></trkpt><trkpt lat="41.4577714" lon="12.8925607"><ele>26.0</ele><time>2026-04-26T05:23:11.2Z</time></trkpt><trkpt lat="41.4577239" lon="12.8926638"><ele>26.0</ele><time>2026-04-26T05:23:13.2Z</time></trkpt><trkpt lat="41.4576817" lon="12.8927776"><ele>25.999999999999996</ele><time>2026-04-26T05:23:15.201Z</time></trkpt><trkpt lat="41.4576441" lon="12.8928955"><ele>26.0</ele><time>2026-04-26T05:23:17.2Z</time></trkpt><trkpt lat="41.4576062" lon="12.8930089"><ele>26.0</ele><time>2026-04-26T05:23:19.201Z</time></trkpt><trkpt lat="41.4575642" lon="12.8931223"><ele>26.0</ele><time>2026-04-26T05:23:21.2Z</time></trkpt><trkpt lat="41.4575148" lon="12.8932287"><ele>26.0</ele><time>2026-04-26T05:23:23.2Z</time></trkpt><trkpt lat="41.4574652" lon="12.8933342"><ele>26.0</ele><time>2026-04-26T05:23:25.201Z</time></trkpt><trkpt lat="41.4574128" lon="12.8934442"><ele>26.0</ele><time>2026-04-26T05:23:27.2Z</time></trkpt><trkpt lat="41.4573625" lon="12.8935555"><ele>26.0</ele><time>2026-04-26T05:23:29.201Z</time></trkpt><trkpt lat="41.457308" lon="12.8936661"><ele>26.0</ele><time>2026-04-26T05:23:31.2Z</time></trkpt><trkpt lat="41.4572565" lon="12.893772"><ele>26.0</ele><time>2026-04-26T05:23:33.2Z</time></trkpt><trkpt lat="41.4572049" lon="12.8938728"><ele>26.0</ele><time>2026-04-26T05:23:35.2Z</time></trkpt><trkpt lat="41.457141" lon="12.8939554"><ele>26.0</ele><time>2026-04-26T05:23:37.2Z</time></trkpt><trkpt lat="41.4570827" lon="12.8940346"><ele>25.999999999999996</ele><time>2026-04-26T05:23:39.2Z</time></trkpt><trkpt lat="41.4570363" lon="12.8941268"><ele>26.0</ele><time>2026-04-26T05:23:41.202Z</time></trkpt><trkpt lat="41.4569876" lon="12.8942069"><ele>26.0</ele><time>2026-04-26T05:23:43.201Z</time></trkpt><trkpt lat="41.4569327" lon="12.8942751"><ele>26.0</ele><time>2026-04-26T05:23:45.2Z</time></trkpt><trkpt lat="41.4568713" lon="12.8943244"><ele>25.999999999999996</ele><time>2026-04-26T05:23:47.2Z</time></trkpt><trkpt lat="41.456797" lon="12.8943456"><ele>26.0</ele><time>2026-04-26T05:23:49.2Z</time></trkpt><trkpt lat="41.4567165" lon="12.8943372"><ele>25.999999999999996</ele><time>2026-04-26T05:23:51.201Z</time></trkpt><trkpt lat="41.4566373" lon="12.8943186"><ele>26.0</ele><time>2026-04-26T05:23:53.2Z</time></trkpt><trkpt lat="41.4565585" lon="12.8942933"><ele>26.0</ele><time>2026-04-26T05:23:55.2Z</time></trkpt><trkpt lat="41.4564789" lon="12.8942591"><ele>26.0</ele><time>2026-04-26T05:23:57.2Z</time></trkpt><trkpt lat="41.4564057" lon="12.8942108"><ele>25.999999999999996</ele><time>2026-04-26T05:23:59.2Z</time></trkpt><trkpt lat="41.4563334" lon="12.8941673"><ele>26.0</ele><time>2026-04-26T05:24:01.2Z</time></trkpt><trkpt lat="41.4562615" lon="12.894125"><ele>25.833333333333332</ele><time>2026-04-26T05:24:03.2Z</time></trkpt><trkpt lat="41.4561868" lon="12.8940866"><ele>25.666666666666664</ele><time>2026-04-26T05:24:05.201Z</time></trkpt><trkpt lat="41.456113" lon="12.8940439"><ele>25.5</ele><time>2026-04-26T05:24:07.2Z</time></trkpt><trkpt lat="41.4560392" lon="12.8939985"><ele>25.333333333333336</ele><time>2026-04-26T05:24:09.2Z</time></trkpt><trkpt lat="41.4559604" lon="12.8939556"><ele>25.166666666666668</ele><time>2026-04-26T05:24:11.2Z</time></trkpt><trkpt lat="41.455878" lon="12.8939151"><ele>25.0</ele><time>2026-04-26T05:24:13.2Z</time></trkpt><trkpt lat="41.4557968" lon="12.8938632"><ele>25.0</ele><time>2026-04-26T05:24:15.2Z</time></trkpt><trkpt lat="41.4557195" lon="12.8938085"><ele>25.0</ele><time>2026-04-26T05:24:17.2Z</time></trkpt><trkpt lat="41.4556364" lon="12.8937633"><ele>25.0</ele><time>2026-04-26T05:24:19.2Z</time></trkpt><trkpt lat="41.4555541" lon="12.8937185"><ele>25.0</ele><time>2026-04-26T05:24:21.2Z</time></trkpt><trkpt lat="41.4554665" lon="12.893672"><ele>25.0</ele><time>2026-04-26T05:24:23.2Z</time></trkpt><trkpt lat="41.4553794" lon="12.8936237"><ele>24.833333333333336</ele><time>2026-04-26T05:24:25.201Z</time></trkpt><trkpt lat="41.4552946" lon="12.8935838"><ele>24.666666666666668</ele><time>2026-04-26T05:24:27.2Z</time></trkpt><trkpt lat="41.4552148" lon="12.8935268"><ele>24.5</ele><time>2026-04-26T05:24:29.201Z</time></trkpt><trkpt lat="41.4551441" lon="12.8934701"><ele>24.333333333333336</ele><time>2026-04-26T05:24:31.2Z</time></trkpt><trkpt lat="41.4550633" lon="12.8934296"><ele>24.166666666666668</ele><time>2026-04-26T05:24:33.2Z</time></trkpt><trkpt lat="41.4549857" lon="12.8933878"><ele>24.0</ele><time>2026-04-26T05:24:35.2Z</time></trkpt><trkpt lat="41.4549076" lon="12.8933521"><ele>24.0</ele><time>2026-04-26T05:24:37.2Z</time></trkpt><trkpt lat="41.4548367" lon="12.8933053"><ele>24.0</ele><time>2026-04-26T05:24:39.201Z</time></trkpt><trkpt lat="41.4547659" lon="12.8932512"><ele>24.0</ele><time>2026-04-26T05:24:41.2Z</time></trkpt><trkpt lat="41.4546863" lon="12.8932204"><ele>24.0</ele><time>2026-04-26T05:24:43.201Z</time></trkpt><trkpt lat="41.4546083" lon="12.8931826"><ele>24.0</ele><time>2026-04-26T05:24:45.2Z</time></trkpt><trkpt lat="41.4545343" lon="12.8931314"><ele>24.0</ele><time>2026-04-26T05:24:47.2Z</time></trkpt><trkpt lat="41.4544659" lon="12.893081"><ele>23.999999999999996</ele><time>2026-04-26T05:24:49.2Z</time></trkpt><trkpt lat="41.4543976" lon="12.8930345"><ele>24.0</ele><time>2026-04-26T05:24:51.2Z</time></trkpt><trkpt lat="41.4543302" lon="12.8929871"><ele>24.0</ele><time>2026-04-26T05:24:53.201Z</time></trkpt><trkpt lat="41.4542597" lon="12.8929501"><ele>24.0</ele><time>2026-04-26T05:24:55.2Z</time></trkpt><trkpt lat="41.4541967" lon="12.8929017"><ele>24.0</ele><time>2026-04-26T05:24:57.2Z</time></trkpt><trkpt lat="41.4541356" lon="12.8928641"><ele>23.999999999999996</ele><time>2026-04-26T05:24:59.2Z</time></trkpt><trkpt lat="41.454075" lon="12.8928315"><ele>24.0</ele><time>2026-04-26T05:25:01.2Z</time></trkpt><trkpt lat="41.4539905" lon="12.8927902"><ele>24.0</ele><time>2026-04-26T05:25:04.2Z</time></trkpt><trkpt lat="41.4539164" lon="12.8927529"><ele>24.0</ele><time>2026-04-26T05:25:07.201Z</time></trkpt><trkpt lat="41.4538524" lon="12.8927092"><ele>24.0</ele><time>2026-04-26T05:25:10.2Z</time></trkpt><trkpt lat="41.4537904" lon="12.892665"><ele>24.0</ele><time>2026-04-26T05:25:13.2Z</time></trkpt><trkpt lat="41.4537154" lon="12.8926839"><ele>24.0</ele><time>2026-04-26T05:25:43.2Z</time></trkpt><trkpt lat="41.4536308" lon="12.8926543"><ele>24.0</ele><time>2026-04-26T05:25:46.2Z</time></trkpt><trkpt lat="41.4535667" lon="12.8926098"><ele>24.166666666666668</ele><time>2026-04-26T05:25:48.201Z</time></trkpt><trkpt lat="41.453497" lon="12.8925724"><ele>24.333333333333336</ele><time>2026-04-26T05:25:50.2Z</time></trkpt><trkpt lat="41.4534235" lon="12.8925267"><ele>24.5</ele><time>2026-04-26T05:25:52.2Z</time></trkpt><trkpt lat="41.4533463" lon="12.8924823"><ele>24.666666666666668</ele><time>2026-04-26T05:25:54.2Z</time></trkpt><trkpt lat="41.453268" lon="12.8924344"><ele>24.833333333333336</ele><time>2026-04-26T05:25:56.2Z</time></trkpt><trkpt lat="41.4531805" lon="12.8923907"><ele>25.0</ele><time>2026-04-26T05:25:58.2Z</time></trkpt><trkpt lat="41.4530984" lon="12.892337"><ele>25.000000000000004</ele><time>2026-04-26T05:26:00.2Z</time></trkpt><trkpt lat="41.4530217" lon="12.8922793"><ele>25.0</ele><time>2026-04-26T05:26:02.2Z</time></trkpt><trkpt lat="41.4529352" lon="12.8922457"><ele>25.0</ele><time>2026-04-26T05:26:04.2Z</time></trkpt><trkpt lat="41.452854" lon="12.8921995"><ele>25.0</ele><time>2026-04-26T05:26:07.2Z</time></trkpt><trkpt lat="41.4527976" lon="12.8921532"><ele>25.000000000000004</ele><time>2026-04-26T05:26:09.2Z</time></trkpt><trkpt lat="41.4527314" lon="12.8921018"><ele>25.0</ele><time>2026-04-26T05:26:11.2Z</time></trkpt><trkpt lat="41.4526451" lon="12.8920572"><ele>24.6</ele><time>2026-04-26T05:26:13.2Z</time></trkpt><trkpt lat="41.4525547" lon="12.8920065"><ele>24.2</ele><time>2026-04-26T05:26:15.2Z</time></trkpt><trkpt lat="41.4524606" lon="12.891956"><ele>23.799999999999997</ele><time>2026-04-26T05:26:17.201Z</time></trkpt><trkpt lat="41.4523713" lon="12.8919024"><ele>23.4</ele><time>2026-04-26T05:26:19.2Z</time></trkpt><trkpt lat="41.452272" lon="12.8918942"><ele>23.0</ele><time>2026-04-26T05:26:21.2Z</time></trkpt><trkpt lat="41.4521795" lon="12.8918455"><ele>23.2</ele><time>2026-04-26T05:26:23.2Z</time></trkpt><trkpt lat="41.4520847" lon="12.891801"><ele>23.4</ele><time>2026-04-26T05:26:25.2Z</time></trkpt><trkpt lat="41.4519952" lon="12.8917491"><ele>23.599999999999998</ele><time>2026-04-26T05:26:27.2Z</time></trkpt><trkpt lat="41.4518997" lon="12.8916995"><ele>23.799999999999997</ele><time>2026-04-26T05:26:29.2Z</time></trkpt><trkpt lat="41.4518042" lon="12.8916354"><ele>24.0</ele><time>2026-04-26T05:26:31.2Z</time></trkpt><trkpt lat="41.4517067" lon="12.8915824"><ele>24.0</ele><time>2026-04-26T05:26:33.2Z</time></trkpt><trkpt lat="41.4516109" lon="12.8915206"><ele>24.0</ele><time>2026-04-26T05:26:35.2Z</time></trkpt><trkpt lat="41.4515052" lon="12.891459"><ele>24.0</ele><time>2026-04-26T05:26:37.201Z</time></trkpt><trkpt lat="41.4514018" lon="12.8913895"><ele>24.0</ele><time>2026-04-26T05:26:39.2Z</time></trkpt><trkpt lat="41.4513" lon="12.8913215"><ele>24.0</ele><time>2026-04-26T05:26:41.2Z</time></trkpt><trkpt lat="41.4511932" lon="12.8912637"><ele>24.0</ele><time>2026-04-26T05:26:43.2Z</time></trkpt><trkpt lat="41.4510777" lon="12.8912038"><ele>24.0</ele><time>2026-04-26T05:26:45.2Z</time></trkpt><trkpt lat="41.4510149" lon="12.8911721"><ele>24.0</ele><time>2026-04-26T05:26:46.201Z</time></trkpt><trkpt lat="41.4509546" lon="12.8911417"><ele>24.0</ele><time>2026-04-26T05:26:47.201Z</time></trkpt><trkpt lat="41.450894" lon="12.8911086"><ele>24.0</ele><time>2026-04-26T05:26:48.2Z</time></trkpt><trkpt lat="41.4508359" lon="12.8910758"><ele>24.0</ele><time>2026-04-26T05:26:49.2Z</time></trkpt><trkpt lat="41.4507771" lon="12.8910412"><ele>24.0</ele><time>2026-04-26T05:26:50.2Z</time></trkpt><trkpt lat="41.4506635" lon="12.8909731"><ele>24.0</ele><time>2026-04-26T05:26:52.201Z</time></trkpt><trkpt lat="41.45055" lon="12.8909053"><ele>24.0</ele><time>2026-04-26T05:26:54.2Z</time></trkpt><trkpt lat="41.4504374" lon="12.89084"><ele>24.0</ele><time>2026-04-26T05:26:56.2Z</time></trkpt><trkpt lat="41.4503274" lon="12.8907782"><ele>23.75</ele><time>2026-04-26T05:26:58.201Z</time></trkpt><trkpt lat="41.4502174" lon="12.8907106"><ele>23.5</ele><time>2026-04-26T05:27:00.2Z</time></trkpt><trkpt lat="41.4501119" lon="12.8906435"><ele>23.25</ele><time>2026-04-26T05:27:02.201Z</time></trkpt><trkpt lat="41.4500093" lon="12.8905774"><ele>23.0</ele><time>2026-04-26T05:27:04.201Z</time></trkpt><trkpt lat="41.4499092" lon="12.890516"><ele>23.0</ele><time>2026-04-26T05:27:06.2Z</time></trkpt><trkpt lat="41.4498027" lon="12.8904544"><ele>23.0</ele><time>2026-04-26T05:27:08.2Z</time></trkpt><trkpt lat="41.4496967" lon="12.8903907"><ele>23.0</ele><time>2026-04-26T05:27:10.2Z</time></trkpt><trkpt lat="41.4495913" lon="12.8903362"><ele>23.0</ele><time>2026-04-26T05:27:12.201Z</time></trkpt><trkpt lat="41.4494864" lon="12.8902712"><ele>23.0</ele><time>2026-04-26T05:27:14.2Z</time></trkpt><trkpt lat="41.449379" lon="12.8902177"><ele>23.0</ele><time>2026-04-26T05:27:16.2Z</time></trkpt><trkpt lat="41.4492717" lon="12.8901634"><ele>23.0</ele><time>2026-04-26T05:27:18.201Z</time></trkpt><trkpt lat="41.4491669" lon="12.890105"><ele>23.0</ele><time>2026-04-26T05:27:20.2Z</time></trkpt><trkpt lat="41.4490592" lon="12.8900423"><ele>23.0</ele><time>2026-04-26T05:27:22.2Z</time></trkpt><trkpt lat="41.4489509" lon="12.8899809"><ele>23.0</ele><time>2026-04-26T05:27:24.2Z</time></trkpt><trkpt lat="41.448842" lon="12.8899154"><ele>23.0</ele><time>2026-04-26T05:27:26.201Z</time></trkpt><trkpt lat="41.4487419" lon="12.8898523"><ele>23.0</ele><time>2026-04-26T05:27:28.2Z</time></trkpt><trkpt lat="41.4486414" lon="12.8897945"><ele>23.2</ele><time>2026-04-26T05:27:30.2Z</time></trkpt><trkpt lat="41.4485411" lon="12.8897442"><ele>23.4</ele><time>2026-04-26T05:27:32.2Z</time></trkpt><trkpt lat="41.4484494" lon="12.889692"><ele>23.599999999999998</ele><time>2026-04-26T05:27:34.201Z</time></trkpt><trkpt lat="41.4483566" lon="12.8896358"><ele>23.799999999999997</ele><time>2026-04-26T05:27:36.201Z</time></trkpt><trkpt lat="41.4482629" lon="12.8895806"><ele>24.0</ele><time>2026-04-26T05:27:38.201Z</time></trkpt><trkpt lat="41.448172" lon="12.8895284"><ele>24.0</ele><time>2026-04-26T05:27:40.2Z</time></trkpt><trkpt lat="41.4480793" lon="12.8894751"><ele>24.0</ele><time>2026-04-26T05:27:42.2Z</time></trkpt><trkpt lat="41.4479916" lon="12.8894199"><ele>24.0</ele><time>2026-04-26T05:27:44.2Z</time></trkpt><trkpt lat="41.4478992" lon="12.8893605"><ele>24.0</ele><time>2026-04-26T05:27:46.2Z</time></trkpt><trkpt lat="41.4478199" lon="12.889272"><ele>24.0</ele><time>2026-04-26T05:27:48.2Z</time></trkpt><trkpt lat="41.4477543" lon="12.8891655"><ele>23.6</ele><time>2026-04-26T05:27:50.2Z</time></trkpt><trkpt lat="41.4477009" lon="12.8890448"><ele>23.2</ele><time>2026-04-26T05:27:52.2Z</time></trkpt><trkpt lat="41.4476356" lon="12.8889385"><ele>22.8</ele><time>2026-04-26T05:27:54.2Z</time></trkpt><trkpt lat="41.4475572" lon="12.8888567"><ele>22.400000000000002</ele><time>2026-04-26T05:27:56.201Z</time></trkpt><trkpt lat="41.4474538" lon="12.8888325"><ele>22.0</ele><time>2026-04-26T05:27:58.2Z</time></trkpt><trkpt lat="41.447359" lon="12.888844"><ele>22.0</ele><time>2026-04-26T05:28:00.2Z</time></trkpt><trkpt lat="41.4472626" lon="12.8888562"><ele>22.0</ele><time>2026-04-26T05:28:02.2Z</time></trkpt><trkpt lat="41.447162" lon="12.8888568"><ele>22.0</ele><time>2026-04-26T05:28:04.2Z</time></trkpt><trkpt lat="41.4470504" lon="12.8888446"><ele>22.0</ele><time>2026-04-26T05:28:06.2Z</time></trkpt><trkpt lat="41.4469429" lon="12.8888166"><ele>22.0</ele><time>2026-04-26T05:28:08.201Z</time></trkpt><trkpt lat="41.446844" lon="12.8887674"><ele>22.0</ele><time>2026-04-26T05:28:10.2Z</time></trkpt><trkpt lat="41.4467433" lon="12.8887088"><ele>22.0</ele><time>2026-04-26T05:28:12.2Z</time></trkpt><trkpt lat="41.4466424" lon="12.8886506"><ele>22.0</ele><time>2026-04-26T05:28:14.2Z</time></trkpt><trkpt lat="41.446543" lon="12.8885929"><ele>22.0</ele><time>2026-04-26T05:28:16.201Z</time></trkpt><trkpt lat="41.4464412" lon="12.8885423"><ele>22.0</ele><time>2026-04-26T05:28:18.2Z</time></trkpt><trkpt lat="41.4463557" lon="12.8884794"><ele>22.400000000000002</ele><time>2026-04-26T05:28:20.2Z</time></trkpt><trkpt lat="41.4462879" lon="12.8883927"><ele>22.8</ele><time>2026-04-26T05:28:22.2Z</time></trkpt><trkpt lat="41.4462125" lon="12.8883078"><ele>23.2</ele><time>2026-04-26T05:28:24.2Z</time></trkpt><trkpt lat="41.446113" lon="12.8883072"><ele>23.6</ele><time>2026-04-26T05:28:26.2Z</time></trkpt><trkpt lat="41.4460108" lon="12.8882922"><ele>24.0</ele><time>2026-04-26T05:28:28.2Z</time></trkpt><trkpt lat="41.4459172" lon="12.8882467"><ele>24.0</ele><time>2026-04-26T05:28:30.2Z</time></trkpt><trkpt lat="41.4458241" lon="12.8881818"><ele>24.0</ele><time>2026-04-26T05:28:32.2Z</time></trkpt><trkpt lat="41.4457339" lon="12.8881252"><ele>24.0</ele><time>2026-04-26T05:28:34.2Z</time></trkpt><trkpt lat="41.4456376" lon="12.8880696"><ele>24.0</ele><time>2026-04-26T05:28:36.2Z</time></trkpt><trkpt lat="41.445541" lon="12.8880107"><ele>24.0</ele><time>2026-04-26T05:28:38.2Z</time></trkpt><trkpt lat="41.4454408" lon="12.8879517"><ele>23.6</ele><time>2026-04-26T05:28:40.2Z</time></trkpt><trkpt lat="41.4453493" lon="12.8878797"><ele>23.2</ele><time>2026-04-26T05:28:42.2Z</time></trkpt><trkpt lat="41.4452561" lon="12.8878074"><ele>22.8</ele><time>2026-04-26T05:28:44.2Z</time></trkpt><trkpt lat="41.4451577" lon="12.8877452"><ele>22.400000000000002</ele><time>2026-04-26T05:28:46.201Z</time></trkpt><trkpt lat="41.4450533" lon="12.8876771"><ele>22.0</ele><time>2026-04-26T05:28:48.2Z</time></trkpt><trkpt lat="41.4449437" lon="12.8876143"><ele>22.0</ele><time>2026-04-26T05:28:50.201Z</time></trkpt><trkpt lat="41.444834" lon="12.8875445"><ele>22.0</ele><time>2026-04-26T05:28:52.2Z</time></trkpt><trkpt lat="41.4447226" lon="12.8874802"><ele>22.0</ele><time>2026-04-26T05:28:54.2Z</time></trkpt><trkpt lat="41.4446155" lon="12.8874177"><ele>22.0</ele><time>2026-04-26T05:28:56.2Z</time></trkpt><trkpt lat="41.4445023" lon="12.8873537"><ele>22.25</ele><time>2026-04-26T05:28:58.2Z</time></trkpt><trkpt lat="41.4443909" lon="12.8872919"><ele>22.5</ele><time>2026-04-26T05:29:00.2Z</time></trkpt><trkpt lat="41.4442813" lon="12.8872284"><ele>22.75</ele><time>2026-04-26T05:29:02.2Z</time></trkpt><trkpt lat="41.4441715" lon="12.8871618"><ele>23.0</ele><time>2026-04-26T05:29:04.2Z</time></trkpt><trkpt lat="41.4440629" lon="12.8870967"><ele>23.0</ele><time>2026-04-26T05:29:06.2Z</time></trkpt><trkpt lat="41.4439567" lon="12.8870311"><ele>23.0</ele><time>2026-04-26T05:29:08.201Z</time></trkpt><trkpt lat="41.4438511" lon="12.8869707"><ele>23.0</ele><time>2026-04-26T05:29:10.2Z</time></trkpt><trkpt lat="41.4437482" lon="12.8869037"><ele>23.0</ele><time>2026-04-26T05:29:12.201Z</time></trkpt><trkpt lat="41.4436483" lon="12.8868459"><ele>22.75</ele><time>2026-04-26T05:29:14.2Z</time></trkpt><trkpt lat="41.4435395" lon="12.8867729"><ele>22.5</ele><time>2026-04-26T05:29:16.2Z</time></trkpt><trkpt lat="41.4434333" lon="12.8867065"><ele>22.25</ele><time>2026-04-26T05:29:18.2Z</time></trkpt><trkpt lat="41.4433257" lon="12.8866398"><ele>22.0</ele><time>2026-04-26T05:29:20.2Z</time></trkpt><trkpt lat="41.4432229" lon="12.8865719"><ele>22.25</ele><time>2026-04-26T05:29:22.201Z</time></trkpt><trkpt lat="41.4431153" lon="12.8865105"><ele>22.5</ele><time>2026-04-26T05:29:24.201Z</time></trkpt><trkpt lat="41.4430077" lon="12.8864456"><ele>22.75</ele><time>2026-04-26T05:29:26.2Z</time></trkpt><trkpt lat="41.4429027" lon="12.8863766"><ele>23.0</ele><time>2026-04-26T05:29:28.201Z</time></trkpt><trkpt lat="41.4427952" lon="12.886316"><ele>23.0</ele><time>2026-04-26T05:29:30.2Z</time></trkpt><trkpt lat="41.4426855" lon="12.8862538"><ele>23.0</ele><time>2026-04-26T05:29:32.2Z</time></trkpt><trkpt lat="41.4425744" lon="12.8861973"><ele>23.0</ele><time>2026-04-26T05:29:34.2Z</time></trkpt><trkpt lat="41.4424629" lon="12.8861304"><ele>23.0</ele><time>2026-04-26T05:29:36.2Z</time></trkpt><trkpt lat="41.442404" lon="12.8860989"><ele>23.0</ele><time>2026-04-26T05:29:37.2Z</time></trkpt><trkpt lat="41.4422943" lon="12.8860284"><ele>23.0</ele><time>2026-04-26T05:29:39.201Z</time></trkpt><trkpt lat="41.442181" lon="12.8859641"><ele>23.0</ele><time>2026-04-26T05:29:41.2Z</time></trkpt><trkpt lat="41.4420677" lon="12.885897"><ele>23.0</ele><time>2026-04-26T05:29:43.201Z</time></trkpt><trkpt lat="41.4419509" lon="12.8858271"><ele>23.0</ele><time>2026-04-26T05:29:45.2Z</time></trkpt><trkpt lat="41.4418378" lon="12.8857627"><ele>22.599999999999998</ele><time>2026-04-26T05:29:47.2Z</time></trkpt><trkpt lat="41.4417221" lon="12.8856959"><ele>22.2</ele><time>2026-04-26T05:29:49.2Z</time></trkpt><trkpt lat="41.4416165" lon="12.8856218"><ele>21.8</ele><time>2026-04-26T05:29:51.2Z</time></trkpt><trkpt lat="41.4415592" lon="12.8855837"><ele>21.4</ele><time>2026-04-26T05:29:52.201Z</time></trkpt><trkpt lat="41.4415014" lon="12.8855501"><ele>21.0</ele><time>2026-04-26T05:29:53.2Z</time></trkpt><trkpt lat="41.4413884" lon="12.885487"><ele>20.5</ele><time>2026-04-26T05:29:55.2Z</time></trkpt><trkpt lat="41.4412752" lon="12.8854277"><ele>20.0</ele><time>2026-04-26T05:29:57.2Z</time></trkpt><trkpt lat="41.4411667" lon="12.8853642"><ele>19.5</ele><time>2026-04-26T05:29:59.2Z</time></trkpt><trkpt lat="41.4410598" lon="12.885297"><ele>19.0</ele><time>2026-04-26T05:30:01.2Z</time></trkpt><trkpt lat="41.4409517" lon="12.8852276"><ele>19.0</ele><time>2026-04-26T05:30:03.2Z</time></trkpt><trkpt lat="41.4408429" lon="12.8851614"><ele>19.0</ele><time>2026-04-26T05:30:05.2Z</time></trkpt><trkpt lat="41.4407346" lon="12.8850914"><ele>19.0</ele><time>2026-04-26T05:30:07.2Z</time></trkpt><trkpt lat="41.4406267" lon="12.8850172"><ele>19.0</ele><time>2026-04-26T05:30:09.2Z</time></trkpt><trkpt lat="41.4405145" lon="12.8849563"><ele>19.4</ele><time>2026-04-26T05:30:11.2Z</time></trkpt><trkpt lat="41.4404096" lon="12.8848948"><ele>19.799999999999997</ele><time>2026-04-26T05:30:13.201Z</time></trkpt><trkpt lat="41.4403337" lon="12.8847976"><ele>20.200000000000003</ele><time>2026-04-26T05:30:15.2Z</time></trkpt><trkpt lat="41.4402437" lon="12.8847509"><ele>20.6</ele><time>2026-04-26T05:30:17.2Z</time></trkpt><trkpt lat="41.4401464" lon="12.8847379"><ele>21.0</ele><time>2026-04-26T05:30:19.2Z</time></trkpt><trkpt lat="41.4400615" lon="12.8846773"><ele>21.0</ele><time>2026-04-26T05:30:21.2Z</time></trkpt><trkpt lat="41.4399651" lon="12.8846323"><ele>21.0</ele><time>2026-04-26T05:30:23.2Z</time></trkpt><trkpt lat="41.4398656" lon="12.8845777"><ele>21.0</ele><time>2026-04-26T05:30:25.2Z</time></trkpt><trkpt lat="41.4397649" lon="12.8845037"><ele>21.0</ele><time>2026-04-26T05:30:27.2Z</time></trkpt><trkpt lat="41.4396771" lon="12.8843884"><ele>21.0</ele><time>2026-04-26T05:30:29.2Z</time></trkpt><trkpt lat="41.4396273" lon="12.8842464"><ele>20.2</ele><time>2026-04-26T05:30:31.2Z</time></trkpt><trkpt lat="41.4395487" lon="12.8841802"><ele>19.400000000000002</ele><time>2026-04-26T05:30:33.2Z</time></trkpt><trkpt lat="41.4394473" lon="12.8841629"><ele>18.6</ele><time>2026-04-26T05:30:35.201Z</time></trkpt><trkpt lat="41.4393216" lon="12.8841796"><ele>17.8</ele><time>2026-04-26T05:30:37.2Z</time></trkpt><trkpt lat="41.4392572" lon="12.8841754"><ele>17.0</ele><time>2026-04-26T05:30:38.2Z</time></trkpt><trkpt lat="41.4391867" lon="12.8841557"><ele>17.0</ele><time>2026-04-26T05:30:39.2Z</time></trkpt><trkpt lat="41.4391167" lon="12.8841226"><ele>17.0</ele><time>2026-04-26T05:30:40.201Z</time></trkpt><trkpt lat="41.4390504" lon="12.8840811"><ele>17.0</ele><time>2026-04-26T05:30:41.2Z</time></trkpt><trkpt lat="41.4389779" lon="12.8840384"><ele>17.0</ele><time>2026-04-26T05:30:42.2Z</time></trkpt><trkpt lat="41.438905" lon="12.8839967"><ele>17.0</ele><time>2026-04-26T05:30:43.2Z</time></trkpt><trkpt lat="41.4388343" lon="12.8839533"><ele>17.0</ele><time>2026-04-26T05:30:44.2Z</time></trkpt><trkpt lat="41.4387605" lon="12.8839116"><ele>16.5</ele><time>2026-04-26T05:30:45.2Z</time></trkpt><trkpt lat="41.4386858" lon="12.8838662"><ele>16.0</ele><time>2026-04-26T05:30:46.2Z</time></trkpt><trkpt lat="41.4386059" lon="12.8838256"><ele>15.5</ele><time>2026-04-26T05:30:47.2Z</time></trkpt><trkpt lat="41.4385263" lon="12.8837965"><ele>15.0</ele><time>2026-04-26T05:30:48.2Z</time></trkpt><trkpt lat="41.4384452" lon="12.8837567"><ele>14.500000000000002</ele><time>2026-04-26T05:30:49.201Z</time></trkpt><trkpt lat="41.4383639" lon="12.8837089"><ele>14.0</ele><time>2026-04-26T05:30:50.2Z</time></trkpt><trkpt lat="41.438282" lon="12.8836627"><ele>14.0</ele><time>2026-04-26T05:30:51.2Z</time></trkpt><trkpt lat="41.4382014" lon="12.8836143"><ele>13.999999999999998</ele><time>2026-04-26T05:30:52.2Z</time></trkpt><trkpt lat="41.4381179" lon="12.8835667"><ele>13.999999999999998</ele><time>2026-04-26T05:30:53.2Z</time></trkpt><trkpt lat="41.4380334" lon="12.8835136"><ele>14.0</ele><time>2026-04-26T05:30:54.201Z</time></trkpt><trkpt lat="41.4379495" lon="12.8834619"><ele>14.0</ele><time>2026-04-26T05:30:55.2Z</time></trkpt><trkpt lat="41.4378622" lon="12.8834108"><ele>13.6</ele><time>2026-04-26T05:30:56.2Z</time></trkpt><trkpt lat="41.4377753" lon="12.8833621"><ele>13.2</ele><time>2026-04-26T05:30:57.202Z</time></trkpt><trkpt lat="41.4376855" lon="12.8833094"><ele>12.799999999999999</ele><time>2026-04-26T05:30:58.2Z</time></trkpt><trkpt lat="41.4375966" lon="12.883253"><ele>12.399999999999999</ele><time>2026-04-26T05:30:59.2Z</time></trkpt><trkpt lat="41.4375064" lon="12.8832003"><ele>12.0</ele><time>2026-04-26T05:31:00.2Z</time></trkpt><trkpt lat="41.4374155" lon="12.8831475"><ele>12.0</ele><time>2026-04-26T05:31:01.2Z</time></trkpt><trkpt lat="41.4373255" lon="12.8830976"><ele>12.0</ele><time>2026-04-26T05:31:02.2Z</time></trkpt><trkpt lat="41.4372338" lon="12.8830469"><ele>12.0</ele><time>2026-04-26T05:31:03.201Z</time></trkpt><trkpt lat="41.4371436" lon="12.8829934"><ele>12.0</ele><time>2026-04-26T05:31:04.2Z</time></trkpt><trkpt lat="41.4370537" lon="12.8829395"><ele>12.0</ele><time>2026-04-26T05:31:05.2Z</time></trkpt><trkpt lat="41.4369614" lon="12.8828875"><ele>11.4</ele><time>2026-04-26T05:31:06.2Z</time></trkpt><trkpt lat="41.4368683" lon="12.8828366"><ele>10.799999999999999</ele><time>2026-04-26T05:31:07.2Z</time></trkpt><trkpt lat="41.436774" lon="12.882785"><ele>10.2</ele><time>2026-04-26T05:31:08.2Z</time></trkpt><trkpt lat="41.436679" lon="12.8827359"><ele>9.6</ele><time>2026-04-26T05:31:09.2Z</time></trkpt><trkpt lat="41.4365817" lon="12.8826848"><ele>9.0</ele><time>2026-04-26T05:31:10.2Z</time></trkpt><trkpt lat="41.4364838" lon="12.8826366"><ele>9.4</ele><time>2026-04-26T05:31:11.2Z</time></trkpt><trkpt lat="41.4363895" lon="12.8825897"><ele>9.8</ele><time>2026-04-26T05:31:12.2Z</time></trkpt><trkpt lat="41.4362955" lon="12.88254"><ele>10.200000000000001</ele><time>2026-04-26T05:31:13.201Z</time></trkpt><trkpt lat="41.4362031" lon="12.8824922"><ele>10.600000000000001</ele><time>2026-04-26T05:31:14.2Z</time></trkpt><trkpt lat="41.4361118" lon="12.8824462"><ele>11.0</ele><time>2026-04-26T05:31:15.2Z</time></trkpt><trkpt lat="41.4360233" lon="12.8824047"><ele>10.0</ele><time>2026-04-26T05:31:16.2Z</time></trkpt><trkpt lat="41.4359339" lon="12.8823621"><ele>9.0</ele><time>2026-04-26T05:31:17.2Z</time></trkpt><trkpt lat="41.4358458" lon="12.8823193"><ele>8.0</ele><time>2026-04-26T05:31:18.201Z</time></trkpt><trkpt lat="41.4357621" lon="12.882279"><ele>7.0</ele><time>2026-04-26T05:31:19.2Z</time></trkpt><trkpt lat="41.4356741" lon="12.8822399"><ele>6.0</ele><time>2026-04-26T05:31:20.2Z</time></trkpt><trkpt lat="41.4355875" lon="12.882203"><ele>6.0</ele><time>2026-04-26T05:31:21.2Z</time></trkpt><trkpt lat="41.4355027" lon="12.8821722"><ele>6.0</ele><time>2026-04-26T05:31:22.2Z</time></trkpt><trkpt lat="41.4354197" lon="12.8821352"><ele>6.0</ele><time>2026-04-26T05:31:23.2Z</time></trkpt><trkpt lat="41.4353341" lon="12.8821075"><ele>6.0</ele><time>2026-04-26T05:31:24.2Z</time></trkpt><trkpt lat="41.4352471" lon="12.8820769"><ele>6.0</ele><time>2026-04-26T05:31:25.2Z</time></trkpt><trkpt lat="41.4351627" lon="12.8820433"><ele>6.0</ele><time>2026-04-26T05:31:26.2Z</time></trkpt><trkpt lat="41.4350801" lon="12.882011"><ele>5.833333333333333</ele><time>2026-04-26T05:31:27.2Z</time></trkpt><trkpt lat="41.4350019" lon="12.8819807"><ele>5.666666666666667</ele><time>2026-04-26T05:31:28.201Z</time></trkpt><trkpt lat="41.4349214" lon="12.8819522"><ele>5.5</ele><time>2026-04-26T05:31:29.2Z</time></trkpt><trkpt lat="41.4348376" lon="12.8819178"><ele>5.333333333333334</ele><time>2026-04-26T05:31:30.2Z</time></trkpt><trkpt lat="41.4347597" lon="12.881886"><ele>5.166666666666667</ele><time>2026-04-26T05:31:31.2Z</time></trkpt><trkpt lat="41.4346793" lon="12.8818607"><ele>5.0</ele><time>2026-04-26T05:31:32.2Z</time></trkpt><trkpt lat="41.4345996" lon="12.8818333"><ele>5.0</ele><time>2026-04-26T05:31:33.2Z</time></trkpt><trkpt lat="41.4345184" lon="12.8818075"><ele>5.0</ele><time>2026-04-26T05:31:34.2Z</time></trkpt><trkpt lat="41.434437" lon="12.8817814"><ele>5.0</ele><time>2026-04-26T05:31:35.2Z</time></trkpt><trkpt lat="41.434355" lon="12.881758"><ele>5.0</ele><time>2026-04-26T05:31:36.2Z</time></trkpt><trkpt lat="41.4342769" lon="12.8817315"><ele>5.0</ele><time>2026-04-26T05:31:37.201Z</time></trkpt><trkpt lat="41.434199" lon="12.8817057"><ele>5.0</ele><time>2026-04-26T05:31:38.2Z</time></trkpt><trkpt lat="41.4341231" lon="12.8816801"><ele>5.142857142857142</ele><time>2026-04-26T05:31:39.2Z</time></trkpt><trkpt lat="41.434047" lon="12.8816589"><ele>5.285714285714286</ele><time>2026-04-26T05:31:40.2Z</time></trkpt><trkpt lat="41.4339721" lon="12.8816385"><ele>5.428571428571429</ele><time>2026-04-26T05:31:41.201Z</time></trkpt><trkpt lat="41.4338973" lon="12.8816237"><ele>5.571428571428571</ele><time>2026-04-26T05:31:42.2Z</time></trkpt><trkpt lat="41.4338257" lon="12.8816074"><ele>5.714285714285714</ele><time>2026-04-26T05:31:43.2Z</time></trkpt><trkpt lat="41.433755" lon="12.8815896"><ele>5.857142857142857</ele><time>2026-04-26T05:31:44.2Z</time></trkpt><trkpt lat="41.4336848" lon="12.881567"><ele>6.0</ele><time>2026-04-26T05:31:45.201Z</time></trkpt><trkpt lat="41.433615" lon="12.8815486"><ele>6.285714285714285</ele><time>2026-04-26T05:31:46.2Z</time></trkpt><trkpt lat="41.4335453" lon="12.8815301"><ele>6.571428571428571</ele><time>2026-04-26T05:31:47.2Z</time></trkpt><trkpt lat="41.4334752" lon="12.8815127"><ele>6.857142857142857</ele><time>2026-04-26T05:31:48.2Z</time></trkpt><trkpt lat="41.4334075" lon="12.8814983"><ele>7.142857142857142</ele><time>2026-04-26T05:31:49.2Z</time></trkpt><trkpt lat="41.4333375" lon="12.8814828"><ele>7.428571428571428</ele><time>2026-04-26T05:31:50.201Z</time></trkpt><trkpt lat="41.4332686" lon="12.8814653"><ele>7.7142857142857135</ele><time>2026-04-26T05:31:51.2Z</time></trkpt><trkpt lat="41.4332005" lon="12.8814468"><ele>8.0</ele><time>2026-04-26T05:31:52.2Z</time></trkpt><trkpt lat="41.4331341" lon="12.8814341"><ele>8.0</ele><time>2026-04-26T05:31:53.2Z</time></trkpt><trkpt lat="41.4330656" lon="12.8814176"><ele>7.999999999999999</ele><time>2026-04-26T05:31:54.201Z</time></trkpt><trkpt lat="41.4330015" lon="12.8814058"><ele>8.0</ele><time>2026-04-26T05:31:55.2Z</time></trkpt><trkpt lat="41.4329328" lon="12.8813891"><ele>8.0</ele><time>2026-04-26T05:31:56.201Z</time></trkpt><trkpt lat="41.4328647" lon="12.8813806"><ele>7.999999999999999</ele><time>2026-04-26T05:31:57.201Z</time></trkpt><trkpt lat="41.432799" lon="12.8813696"><ele>8.0</ele><time>2026-04-26T05:31:58.2Z</time></trkpt><trkpt lat="41.4327351" lon="12.8813549"><ele>8.0</ele><time>2026-04-26T05:31:59.2Z</time></trkpt><trkpt lat="41.4326727" lon="12.8813386"><ele>8.200000000000001</ele><time>2026-04-26T05:32:00.201Z</time></trkpt><trkpt lat="41.43261" lon="12.881327"><ele>8.4</ele><time>2026-04-26T05:32:01.2Z</time></trkpt><trkpt lat="41.4324852" lon="12.8813032"><ele>8.600000000000001</ele><time>2026-04-26T05:32:03.2Z</time></trkpt><trkpt lat="41.4323637" lon="12.8812823"><ele>8.8</ele><time>2026-04-26T05:32:05.201Z</time></trkpt><trkpt lat="41.432247" lon="12.8812609"><ele>9.0</ele><time>2026-04-26T05:32:07.2Z</time></trkpt><trkpt lat="41.4321357" lon="12.8812404"><ele>9.2</ele><time>2026-04-26T05:32:09.201Z</time></trkpt><trkpt lat="41.4320272" lon="12.8812249"><ele>9.4</ele><time>2026-04-26T05:32:11.2Z</time></trkpt><trkpt lat="41.431918" lon="12.8812073"><ele>9.6</ele><time>2026-04-26T05:32:13.2Z</time></trkpt><trkpt lat="41.4318069" lon="12.8811814"><ele>9.8</ele><time>2026-04-26T05:32:15.201Z</time></trkpt><trkpt lat="41.4316971" lon="12.881155"><ele>10.0</ele><time>2026-04-26T05:32:17.2Z</time></trkpt><trkpt lat="41.431587" lon="12.8811336"><ele>10.0</ele><time>2026-04-26T05:32:19.201Z</time></trkpt><trkpt lat="41.4314763" lon="12.88111"><ele>10.0</ele><time>2026-04-26T05:32:21.2Z</time></trkpt><trkpt lat="41.4313684" lon="12.8810948"><ele>10.0</ele><time>2026-04-26T05:32:23.201Z</time></trkpt><trkpt lat="41.431257" lon="12.8810735"><ele>10.0</ele><time>2026-04-26T05:32:25.2Z</time></trkpt><trkpt lat="41.4311477" lon="12.8810527"><ele>10.0</ele><time>2026-04-26T05:32:27.2Z</time></trkpt><trkpt lat="41.4310378" lon="12.8810294"><ele>10.75</ele><time>2026-04-26T05:32:29.201Z</time></trkpt><trkpt lat="41.4309287" lon="12.8810125"><ele>11.5</ele><time>2026-04-26T05:32:31.2Z</time></trkpt><trkpt lat="41.4308107" lon="12.8809913"><ele>12.25</ele><time>2026-04-26T05:32:33.2Z</time></trkpt><trkpt lat="41.4306933" lon="12.8809728"><ele>13.0</ele><time>2026-04-26T05:32:35.2Z</time></trkpt><trkpt lat="41.4305777" lon="12.8809461"><ele>12.75</ele><time>2026-04-26T05:32:37.2Z</time></trkpt><trkpt lat="41.430458" lon="12.8809244"><ele>12.5</ele><time>2026-04-26T05:32:39.201Z</time></trkpt><trkpt lat="41.430342" lon="12.8809042"><ele>12.25</ele><time>2026-04-26T05:32:41.2Z</time></trkpt><trkpt lat="41.4302234" lon="12.8808793"><ele>12.0</ele><time>2026-04-26T05:32:43.2Z</time></trkpt><trkpt lat="41.430101" lon="12.8808635"><ele>12.0</ele><time>2026-04-26T05:32:45.2Z</time></trkpt><trkpt lat="41.4299869" lon="12.8808347"><ele>12.0</ele><time>2026-04-26T05:32:47.2Z</time></trkpt><trkpt lat="41.4298674" lon="12.8808168"><ele>12.0</ele><time>2026-04-26T05:32:49.2Z</time></trkpt><trkpt lat="41.4297444" lon="12.8807937"><ele>12.0</ele><time>2026-04-26T05:32:51.2Z</time></trkpt><trkpt lat="41.4296257" lon="12.8807716"><ele>12.25</ele><time>2026-04-26T05:32:53.2Z</time></trkpt><trkpt lat="41.4295073" lon="12.8807463"><ele>12.5</ele><time>2026-04-26T05:32:55.2Z</time></trkpt><trkpt lat="41.4293882" lon="12.8807235"><ele>12.75</ele><time>2026-04-26T05:32:57.201Z</time></trkpt><trkpt lat="41.4292708" lon="12.8806978"><ele>13.0</ele><time>2026-04-26T05:32:59.2Z</time></trkpt><trkpt lat="41.4291522" lon="12.8806763"><ele>13.0</ele><time>2026-04-26T05:33:01.201Z</time></trkpt><trkpt lat="41.4290316" lon="12.8806522"><ele>13.0</ele><time>2026-04-26T05:33:03.2Z</time></trkpt><trkpt lat="41.4289649" lon="12.8806383"><ele>13.0</ele><time>2026-04-26T05:33:04.2Z</time></trkpt><trkpt lat="41.4288449" lon="12.8806154"><ele>13.0</ele><time>2026-04-26T05:33:06.2Z</time></trkpt><trkpt lat="41.4287818" lon="12.8806047"><ele>13.0</ele><time>2026-04-26T05:33:07.2Z</time></trkpt><trkpt lat="41.4286628" lon="12.8805799"><ele>13.0</ele><time>2026-04-26T05:33:09.201Z</time></trkpt><trkpt lat="41.4285386" lon="12.8805601"><ele>13.0</ele><time>2026-04-26T05:33:11.2Z</time></trkpt><trkpt lat="41.4284755" lon="12.8805508"><ele>13.0</ele><time>2026-04-26T05:33:12.2Z</time></trkpt><trkpt lat="41.4283499" lon="12.8805336"><ele>13.0</ele><time>2026-04-26T05:33:14.201Z</time></trkpt><trkpt lat="41.4282874" lon="12.8805227"><ele>13.0</ele><time>2026-04-26T05:33:15.2Z</time></trkpt><trkpt lat="41.4281656" lon="12.8804962"><ele>13.0</ele><time>2026-04-26T05:33:17.2Z</time></trkpt><trkpt lat="41.4280432" lon="12.8804712"><ele>13.0</ele><time>2026-04-26T05:33:19.2Z</time></trkpt><trkpt lat="41.4279806" lon="12.8804617"><ele>13.0</ele><time>2026-04-26T05:33:20.2Z</time></trkpt><trkpt lat="41.4279168" lon="12.8804473"><ele>13.0</ele><time>2026-04-26T05:33:21.2Z</time></trkpt><trkpt lat="41.4277944" lon="12.8804251"><ele>13.0</ele><time>2026-04-26T05:33:23.2Z</time></trkpt><trkpt lat="41.4276748" lon="12.8804007"><ele>12.428571428571429</ele><time>2026-04-26T05:33:25.2Z</time></trkpt><trkpt lat="41.4276122" lon="12.8803844"><ele>11.857142857142858</ele><time>2026-04-26T05:33:26.2Z</time></trkpt><trkpt lat="41.4274884" lon="12.8803606"><ele>11.285714285714286</ele><time>2026-04-26T05:33:28.2Z</time></trkpt><trkpt lat="41.4274255" lon="12.8803512"><ele>10.714285714285715</ele><time>2026-04-26T05:33:29.201Z</time></trkpt><trkpt lat="41.4273621" lon="12.8803415"><ele>10.142857142857142</ele><time>2026-04-26T05:33:30.2Z</time></trkpt><trkpt lat="41.4272995" lon="12.8803315"><ele>9.571428571428573</ele><time>2026-04-26T05:33:31.2Z</time></trkpt><trkpt lat="41.4272354" lon="12.8803268"><ele>9.0</ele><time>2026-04-26T05:33:32.2Z</time></trkpt><trkpt lat="41.4271732" lon="12.8803133"><ele>8.571428571428573</ele><time>2026-04-26T05:33:33.2Z</time></trkpt><trkpt lat="41.4271116" lon="12.8802889"><ele>8.142857142857142</ele><time>2026-04-26T05:33:34.2Z</time></trkpt><trkpt lat="41.4270492" lon="12.8802677"><ele>7.714285714285714</ele><time>2026-04-26T05:33:35.2Z</time></trkpt><trkpt lat="41.4269867" lon="12.8802543"><ele>7.2857142857142865</ele><time>2026-04-26T05:33:36.201Z</time></trkpt><trkpt lat="41.4269203" lon="12.8802462"><ele>6.857142857142858</ele><time>2026-04-26T05:33:37.2Z</time></trkpt><trkpt lat="41.4268539" lon="12.8802354"><ele>6.428571428571428</ele><time>2026-04-26T05:33:38.2Z</time></trkpt><trkpt lat="41.4267856" lon="12.8802225"><ele>6.0</ele><time>2026-04-26T05:33:39.2Z</time></trkpt><trkpt lat="41.4267186" lon="12.8802113"><ele>5.999999999999999</ele><time>2026-04-26T05:33:40.201Z</time></trkpt><trkpt lat="41.4266499" lon="12.8801976"><ele>6.0</ele><time>2026-04-26T05:33:41.2Z</time></trkpt><trkpt lat="41.4265789" lon="12.8801814"><ele>6.0</ele><time>2026-04-26T05:33:42.201Z</time></trkpt><trkpt lat="41.4265093" lon="12.8801674"><ele>6.0</ele><time>2026-04-26T05:33:43.2Z</time></trkpt><trkpt lat="41.4264413" lon="12.8801482"><ele>6.0</ele><time>2026-04-26T05:33:44.2Z</time></trkpt><trkpt lat="41.4263689" lon="12.8801272"><ele>5.999999999999999</ele><time>2026-04-26T05:33:45.201Z</time></trkpt><trkpt lat="41.4262979" lon="12.8801118"><ele>6.0</ele><time>2026-04-26T05:33:46.2Z</time></trkpt><trkpt lat="41.4262272" lon="12.8800913"><ele>6.285714285714285</ele><time>2026-04-26T05:33:47.2Z</time></trkpt><trkpt lat="41.4261559" lon="12.8800791"><ele>6.571428571428571</ele><time>2026-04-26T05:33:48.2Z</time></trkpt><trkpt lat="41.4260874" lon="12.8800609"><ele>6.857142857142857</ele><time>2026-04-26T05:33:49.2Z</time></trkpt><trkpt lat="41.4260173" lon="12.8800439"><ele>7.142857142857142</ele><time>2026-04-26T05:33:50.201Z</time></trkpt><trkpt lat="41.4259458" lon="12.8800306"><ele>7.428571428571428</ele><time>2026-04-26T05:33:51.2Z</time></trkpt><trkpt lat="41.4258746" lon="12.8800134"><ele>7.7142857142857135</ele><time>2026-04-26T05:33:52.2Z</time></trkpt><trkpt lat="41.4258016" lon="12.8799944"><ele>8.0</ele><time>2026-04-26T05:33:53.2Z</time></trkpt><trkpt lat="41.4257277" lon="12.8799748"><ele>8.0</ele><time>2026-04-26T05:33:54.2Z</time></trkpt><trkpt lat="41.4256551" lon="12.8799568"><ele>7.999999999999999</ele><time>2026-04-26T05:33:55.201Z</time></trkpt><trkpt lat="41.4255836" lon="12.8799379"><ele>8.0</ele><time>2026-04-26T05:33:56.2Z</time></trkpt><trkpt lat="41.4255142" lon="12.8799159"><ele>8.0</ele><time>2026-04-26T05:33:57.2Z</time></trkpt><trkpt lat="41.4254386" lon="12.8798961"><ele>7.999999999999999</ele><time>2026-04-26T05:33:58.2Z</time></trkpt><trkpt lat="41.425364" lon="12.8798718"><ele>8.0</ele><time>2026-04-26T05:33:59.2Z</time></trkpt><trkpt lat="41.4252891" lon="12.8798482"><ele>8.0</ele><time>2026-04-26T05:34:00.2Z</time></trkpt><trkpt lat="41.4252157" lon="12.8798281"><ele>7.499999999999999</ele><time>2026-04-26T05:34:01.2Z</time></trkpt><trkpt lat="41.4251398" lon="12.8798084"><ele>7.0</ele><time>2026-04-26T05:34:02.2Z</time></trkpt><trkpt lat="41.4250664" lon="12.8797864"><ele>6.5</ele><time>2026-04-26T05:34:03.201Z</time></trkpt><trkpt lat="41.424994" lon="12.8797636"><ele>6.0</ele><time>2026-04-26T05:34:04.2Z</time></trkpt><trkpt lat="41.4249199" lon="12.8797441"><ele>5.5</ele><time>2026-04-26T05:34:05.2Z</time></trkpt><trkpt lat="41.4248464" lon="12.8797224"><ele>5.0</ele><time>2026-04-26T05:34:06.201Z</time></trkpt><trkpt lat="41.4247704" lon="12.8797043"><ele>5.0</ele><time>2026-04-26T05:34:07.2Z</time></trkpt><trkpt lat="41.4246956" lon="12.8796848"><ele>5.0</ele><time>2026-04-26T05:34:08.2Z</time></trkpt><trkpt lat="41.4246212" lon="12.8796579"><ele>5.0</ele><time>2026-04-26T05:34:09.2Z</time></trkpt><trkpt lat="41.4245476" lon="12.8796323"><ele>5.0</ele><time>2026-04-26T05:34:10.2Z</time></trkpt><trkpt lat="41.4244744" lon="12.8796116"><ele>5.0</ele><time>2026-04-26T05:34:11.2Z</time></trkpt><trkpt lat="41.4244005" lon="12.8795877"><ele>5.0</ele><time>2026-04-26T05:34:12.201Z</time></trkpt><trkpt lat="41.4243275" lon="12.8795668"><ele>5.0</ele><time>2026-04-26T05:34:13.2Z</time></trkpt><trkpt lat="41.4242557" lon="12.8795454"><ele>5.0</ele><time>2026-04-26T05:34:14.2Z</time></trkpt><trkpt lat="41.4241834" lon="12.87952"><ele>5.0</ele><time>2026-04-26T05:34:15.201Z</time></trkpt><trkpt lat="41.4241149" lon="12.8794919"><ele>5.0</ele><time>2026-04-26T05:34:16.2Z</time></trkpt><trkpt lat="41.4240429" lon="12.8794675"><ele>5.0</ele><time>2026-04-26T05:34:17.2Z</time></trkpt><trkpt lat="41.4239715" lon="12.8794406"><ele>5.0</ele><time>2026-04-26T05:34:18.2Z</time></trkpt><trkpt lat="41.4238998" lon="12.8794161"><ele>5.0</ele><time>2026-04-26T05:34:19.2Z</time></trkpt><trkpt lat="41.423832" lon="12.8793937"><ele>5.0</ele><time>2026-04-26T05:34:20.2Z</time></trkpt><trkpt lat="41.4237639" lon="12.8793723"><ele>5.0</ele><time>2026-04-26T05:34:21.2Z</time></trkpt><trkpt lat="41.423694" lon="12.8793497"><ele>5.0</ele><time>2026-04-26T05:34:22.2Z</time></trkpt><trkpt lat="41.4236235" lon="12.8793263"><ele>5.0</ele><time>2026-04-26T05:34:23.2Z</time></trkpt><trkpt lat="41.4235569" lon="12.8793044"><ele>5.0</ele><time>2026-04-26T05:34:24.2Z</time></trkpt><trkpt lat="41.423489" lon="12.879282"><ele>5.0</ele><time>2026-04-26T05:34:25.201Z</time></trkpt><trkpt lat="41.4234199" lon="12.8792604"><ele>5.0</ele><time>2026-04-26T05:34:26.2Z</time></trkpt><trkpt lat="41.4233566" lon="12.8792305"><ele>5.0</ele><time>2026-04-26T05:34:27.2Z</time></trkpt><trkpt lat="41.423292" lon="12.8792065"><ele>5.0</ele><time>2026-04-26T05:34:28.2Z</time></trkpt><trkpt lat="41.4232262" lon="12.879188"><ele>5.0</ele><time>2026-04-26T05:34:29.2Z</time></trkpt><trkpt lat="41.4231616" lon="12.8791638"><ele>5.0</ele><time>2026-04-26T05:34:30.2Z</time></trkpt><trkpt lat="41.4231" lon="12.879141"><ele>5.0</ele><time>2026-04-26T05:34:31.2Z</time></trkpt><trkpt lat="41.423039" lon="12.8791174"><ele>5.0</ele><time>2026-04-26T05:34:32.2Z</time></trkpt><trkpt lat="41.4229242" lon="12.8790636"><ele>4.75</ele><time>2026-04-26T05:34:34.201Z</time></trkpt><trkpt lat="41.4228055" lon="12.8790155"><ele>4.5</ele><time>2026-04-26T05:34:36.2Z</time></trkpt><trkpt lat="41.4226873" lon="12.8789703"><ele>4.25</ele><time>2026-04-26T05:34:38.2Z</time></trkpt><trkpt lat="41.4225766" lon="12.8789051"><ele>4.0</ele><time>2026-04-26T05:34:40.2Z</time></trkpt><trkpt lat="41.4224655" lon="12.8788314"><ele>4.0</ele><time>2026-04-26T05:34:42.2Z</time></trkpt><trkpt lat="41.4224019" lon="12.8788223"><ele>4.0</ele><time>2026-04-26T05:34:43.201Z</time></trkpt><trkpt lat="41.4222798" lon="12.8788046"><ele>4.0</ele><time>2026-04-26T05:34:45.2Z</time></trkpt><trkpt lat="41.4221645" lon="12.8787568"><ele>4.0</ele><time>2026-04-26T05:34:47.2Z</time></trkpt><trkpt lat="41.4220496" lon="12.8787066"><ele>4.0</ele><time>2026-04-26T05:34:49.2Z</time></trkpt><trkpt lat="41.4219315" lon="12.8786568"><ele>4.25</ele><time>2026-04-26T05:34:51.2Z</time></trkpt><trkpt lat="41.4218173" lon="12.8785982"><ele>4.5</ele><time>2026-04-26T05:34:53.2Z</time></trkpt><trkpt lat="41.4217055" lon="12.8785445"><ele>4.75</ele><time>2026-04-26T05:34:55.2Z</time></trkpt><trkpt lat="41.4215913" lon="12.8784964"><ele>5.0</ele><time>2026-04-26T05:34:57.201Z</time></trkpt><trkpt lat="41.4214758" lon="12.8784479"><ele>5.0</ele><time>2026-04-26T05:34:59.2Z</time></trkpt><trkpt lat="41.4213598" lon="12.8783961"><ele>5.0</ele><time>2026-04-26T05:35:01.201Z</time></trkpt><trkpt lat="41.4212429" lon="12.8783427"><ele>5.0</ele><time>2026-04-26T05:35:03.201Z</time></trkpt><trkpt lat="41.4211278" lon="12.8782887"><ele>5.0</ele><time>2026-04-26T05:35:05.2Z</time></trkpt><trkpt lat="41.4210154" lon="12.87824"><ele>4.6</ele><time>2026-04-26T05:35:07.2Z</time></trkpt><trkpt lat="41.4209022" lon="12.8781842"><ele>4.2</ele><time>2026-04-26T05:35:09.2Z</time></trkpt><trkpt lat="41.4208403" lon="12.8781561"><ele>3.8</ele><time>2026-04-26T05:35:10.2Z</time></trkpt><trkpt lat="41.4207258" lon="12.8780992"><ele>3.4</ele><time>2026-04-26T05:35:12.2Z</time></trkpt><trkpt lat="41.4206162" lon="12.8780495"><ele>3.0</ele><time>2026-04-26T05:35:14.201Z</time></trkpt><trkpt lat="41.4205145" lon="12.877999"><ele>2.6</ele><time>2026-04-26T05:35:16.2Z</time></trkpt><trkpt lat="41.4204322" lon="12.8779053"><ele>2.1999999999999997</ele><time>2026-04-26T05:35:18.2Z</time></trkpt><trkpt lat="41.420385" lon="12.8777872"><ele>1.8</ele><time>2026-04-26T05:35:20.2Z</time></trkpt><trkpt lat="41.4203065" lon="12.8777213"><ele>1.4</ele><time>2026-04-26T05:35:22.2Z</time></trkpt><trkpt lat="41.4202282" lon="12.8776901"><ele>1.0</ele><time>2026-04-26T05:35:24.2Z</time></trkpt><trkpt lat="41.4201342" lon="12.8777041"><ele>1.0</ele><time>2026-04-26T05:35:26.2Z</time></trkpt><trkpt lat="41.4200409" lon="12.8777238"><ele>1.0</ele><time>2026-04-26T05:35:28.2Z</time></trkpt><trkpt lat="41.4199466" lon="12.8777082"><ele>1.0</ele><time>2026-04-26T05:35:30.201Z</time></trkpt><trkpt lat="41.4198552" lon="12.877674"><ele>1.0</ele><time>2026-04-26T05:35:32.201Z</time></trkpt><trkpt lat="41.4197609" lon="12.8776321"><ele>1.0</ele><time>2026-04-26T05:35:34.202Z</time></trkpt><trkpt lat="41.4196694" lon="12.8775932"><ele>1.4</ele><time>2026-04-26T05:35:36.202Z</time></trkpt><trkpt lat="41.4195742" lon="12.877553"><ele>1.8</ele><time>2026-04-26T05:35:38.201Z</time></trkpt><trkpt lat="41.4194794" lon="12.8775191"><ele>2.1999999999999997</ele><time>2026-04-26T05:35:40.201Z</time></trkpt><trkpt lat="41.4193883" lon="12.877478"><ele>2.6</ele><time>2026-04-26T05:35:42.201Z</time></trkpt><trkpt lat="41.4192926" lon="12.8774355"><ele>3.0</ele><time>2026-04-26T05:35:44.201Z</time></trkpt><trkpt lat="41.419194" lon="12.8773857"><ele>3.0</ele><time>2026-04-26T05:35:46.201Z</time></trkpt><trkpt lat="41.4190899" lon="12.8773422"><ele>3.0</ele><time>2026-04-26T05:35:48.201Z</time></trkpt><trkpt lat="41.418991" lon="12.8772977"><ele>3.0</ele><time>2026-04-26T05:35:50.202Z</time></trkpt><trkpt lat="41.4188877" lon="12.8772535"><ele>3.0</ele><time>2026-04-26T05:35:52.201Z</time></trkpt><trkpt lat="41.418786" lon="12.8772189"><ele>3.0</ele><time>2026-04-26T05:35:54.201Z</time></trkpt><trkpt lat="41.4186842" lon="12.8771718"><ele>2.8</ele><time>2026-04-26T05:35:56.201Z</time></trkpt><trkpt lat="41.4185851" lon="12.8771233"><ele>2.5999999999999996</ele><time>2026-04-26T05:35:58.201Z</time></trkpt><trkpt lat="41.4184816" lon="12.87708"><ele>2.4000000000000004</ele><time>2026-04-26T05:36:00.201Z</time></trkpt><trkpt lat="41.4183785" lon="12.8770353"><ele>2.2</ele><time>2026-04-26T05:36:02.201Z</time></trkpt><trkpt lat="41.4182765" lon="12.8769814"><ele>2.0</ele><time>2026-04-26T05:36:04.201Z</time></trkpt><trkpt lat="41.4181678" lon="12.8769335"><ele>2.0</ele><time>2026-04-26T05:36:06.201Z</time></trkpt><trkpt lat="41.4180589" lon="12.8768864"><ele>2.0</ele><time>2026-04-26T05:36:08.201Z</time></trkpt><trkpt lat="41.4179472" lon="12.8768308"><ele>2.0</ele><time>2026-04-26T05:36:10.202Z</time></trkpt><trkpt lat="41.4178373" lon="12.8767752"><ele>2.0</ele><time>2026-04-26T05:36:12.201Z</time></trkpt><trkpt lat="41.4177228" lon="12.876718"><ele>1.8</ele><time>2026-04-26T05:36:14.201Z</time></trkpt><trkpt lat="41.4176052" lon="12.8766658"><ele>1.6</ele><time>2026-04-26T05:36:16.201Z</time></trkpt><trkpt lat="41.4174921" lon="12.876612"><ele>1.4000000000000001</ele><time>2026-04-26T05:36:18.202Z</time></trkpt><trkpt lat="41.4174324" lon="12.8765832"><ele>1.2000000000000002</ele><time>2026-04-26T05:36:19.201Z</time></trkpt><trkpt lat="41.4173728" lon="12.8765544"><ele>1.0</ele><time>2026-04-26T05:36:20.201Z</time></trkpt><trkpt lat="41.4172547" lon="12.8765024"><ele>1.2000000000000002</ele><time>2026-04-26T05:36:22.202Z</time></trkpt><trkpt lat="41.4171387" lon="12.8764518"><ele>1.4000000000000001</ele><time>2026-04-26T05:36:24.201Z</time></trkpt><trkpt lat="41.4170798" lon="12.8764202"><ele>1.6</ele><time>2026-04-26T05:36:25.201Z</time></trkpt><trkpt lat="41.4169652" lon="12.8763687"><ele>1.8</ele><time>2026-04-26T05:36:27.201Z</time></trkpt><trkpt lat="41.4168513" lon="12.8763111"><ele>2.0</ele><time>2026-04-26T05:36:29.201Z</time></trkpt><trkpt lat="41.4167374" lon="12.8762686"><ele>2.0</ele><time>2026-04-26T05:36:31.201Z</time></trkpt><trkpt lat="41.4166222" lon="12.8762262"><ele>2.0</ele><time>2026-04-26T05:36:33.201Z</time></trkpt><trkpt lat="41.4165127" lon="12.8761761"><ele>2.0</ele><time>2026-04-26T05:36:35.201Z</time></trkpt><trkpt lat="41.4164027" lon="12.876125"><ele>2.0</ele><time>2026-04-26T05:36:37.201Z</time></trkpt><trkpt lat="41.4162848" lon="12.8760778"><ele>1.75</ele><time>2026-04-26T05:36:39.202Z</time></trkpt><trkpt lat="41.4161787" lon="12.8760251"><ele>1.5</ele><time>2026-04-26T05:36:41.201Z</time></trkpt><trkpt lat="41.416072" lon="12.8759702"><ele>1.25</ele><time>2026-04-26T05:36:43.201Z</time></trkpt><trkpt lat="41.4159596" lon="12.8759231"><ele>1.0</ele><time>2026-04-26T05:36:45.201Z</time></trkpt><trkpt lat="41.415848" lon="12.875874"><ele>1.0</ele><time>2026-04-26T05:36:47.201Z</time></trkpt><trkpt lat="41.4157426" lon="12.8758208"><ele>1.0</ele><time>2026-04-26T05:36:49.201Z</time></trkpt><trkpt lat="41.4156322" lon="12.8757736"><ele>1.0</ele><time>2026-04-26T05:36:51.202Z</time></trkpt><trkpt lat="41.4155241" lon="12.8757229"><ele>1.0</ele><time>2026-04-26T05:36:53.201Z</time></trkpt><trkpt lat="41.4154166" lon="12.8756745"><ele>0.8</ele><time>2026-04-26T05:36:55.201Z</time></trkpt><trkpt lat="41.4153138" lon="12.8756273"><ele>0.6000000000000001</ele><time>2026-04-26T05:36:57.201Z</time></trkpt><trkpt lat="41.4152051" lon="12.8755876"><ele>0.4</ele><time>2026-04-26T05:36:59.201Z</time></trkpt><trkpt lat="41.4150989" lon="12.8755459"><ele>0.2</ele><time>2026-04-26T05:37:01.201Z</time></trkpt><trkpt lat="41.4149987" lon="12.8754879"><ele>0.0</ele><time>2026-04-26T05:37:03.201Z</time></trkpt><trkpt lat="41.4149083" lon="12.8754033"><ele>0.0</ele><time>2026-04-26T05:37:05.201Z</time></trkpt><trkpt lat="41.4148026" lon="12.8753646"><ele>0.0</ele><time>2026-04-26T05:37:07.201Z</time></trkpt><trkpt lat="41.4146902" lon="12.8753563"><ele>0.0</ele><time>2026-04-26T05:37:09.201Z</time></trkpt><trkpt lat="41.4145911" lon="12.8753188"><ele>0.0</ele><time>2026-04-26T05:37:11.201Z</time></trkpt><trkpt lat="41.4144881" lon="12.8752703"><ele>0.0</ele><time>2026-04-26T05:37:13.201Z</time></trkpt><trkpt lat="41.4143902" lon="12.8752244"><ele>0.4</ele><time>2026-04-26T05:37:15.201Z</time></trkpt><trkpt lat="41.4142941" lon="12.8751701"><ele>0.8</ele><time>2026-04-26T05:37:17.201Z</time></trkpt><trkpt lat="41.4141973" lon="12.8751212"><ele>1.2000000000000002</ele><time>2026-04-26T05:37:19.201Z</time></trkpt><trkpt lat="41.4140959" lon="12.8750762"><ele>1.6</ele><time>2026-04-26T05:37:21.201Z</time></trkpt><trkpt lat="41.4139926" lon="12.8750353"><ele>2.0</ele><time>2026-04-26T05:37:23.201Z</time></trkpt><trkpt lat="41.4138915" lon="12.8749836"><ele>2.0</ele><time>2026-04-26T05:37:25.201Z</time></trkpt><trkpt lat="41.4137886" lon="12.8749398"><ele>2.0</ele><time>2026-04-26T05:37:27.201Z</time></trkpt><trkpt lat="41.4136899" lon="12.874893"><ele>2.0</ele><time>2026-04-26T05:37:29.201Z</time></trkpt><trkpt lat="41.4135929" lon="12.8748464"><ele>2.0</ele><time>2026-04-26T05:37:31.201Z</time></trkpt><trkpt lat="41.4134934" lon="12.8748108"><ele>2.0</ele><time>2026-04-26T05:37:33.201Z</time></trkpt><trkpt lat="41.4133979" lon="12.8747657"><ele>2.0</ele><time>2026-04-26T05:37:35.203Z</time></trkpt><trkpt lat="41.4132981" lon="12.8747263"><ele>2.0</ele><time>2026-04-26T05:37:37.201Z</time></trkpt><trkpt lat="41.4131996" lon="12.8746796"><ele>2.0</ele><time>2026-04-26T05:37:39.202Z</time></trkpt><trkpt lat="41.4131021" lon="12.8746252"><ele>2.0</ele><time>2026-04-26T05:37:41.201Z</time></trkpt><trkpt lat="41.4130029" lon="12.874578"><ele>2.0</ele><time>2026-04-26T05:37:43.202Z</time></trkpt><trkpt lat="41.4129029" lon="12.8745316"><ele>1.6</ele><time>2026-04-26T05:37:45.201Z</time></trkpt><trkpt lat="41.4128024" lon="12.8744863"><ele>1.2000000000000002</ele><time>2026-04-26T05:37:47.202Z</time></trkpt><trkpt lat="41.4126977" lon="12.874442"><ele>0.8</ele><time>2026-04-26T05:37:49.201Z</time></trkpt><trkpt lat="41.4125968" lon="12.8743885"><ele>0.4</ele><time>2026-04-26T05:37:51.201Z</time></trkpt><trkpt lat="41.4124977" lon="12.8743424"><ele>0.0</ele><time>2026-04-26T05:37:53.201Z</time></trkpt><trkpt lat="41.4124015" lon="12.8742891"><ele>0.0</ele><time>2026-04-26T05:37:55.201Z</time></trkpt><trkpt lat="41.412295" lon="12.8742452"><ele>0.0</ele><time>2026-04-26T05:37:57.201Z</time></trkpt><trkpt lat="41.4121958" lon="12.8741905"><ele>0.0</ele><time>2026-04-26T05:37:59.201Z</time></trkpt><trkpt lat="41.4120956" lon="12.8741414"><ele>0.0</ele><time>2026-04-26T05:38:01.201Z</time></trkpt><trkpt lat="41.4119889" lon="12.8741046"><ele>0.0</ele><time>2026-04-26T05:38:03.202Z</time></trkpt><trkpt lat="41.411889" lon="12.8740616"><ele>0.0</ele><time>2026-04-26T05:38:05.201Z</time></trkpt><trkpt lat="41.4117846" lon="12.8740219"><ele>0.0</ele><time>2026-04-26T05:38:07.201Z</time></trkpt><trkpt lat="41.4116765" lon="12.8739759"><ele>0.0</ele><time>2026-04-26T05:38:09.201Z</time></trkpt><trkpt lat="41.411577" lon="12.8739219"><ele>0.0</ele><time>2026-04-26T05:38:11.201Z</time></trkpt><trkpt lat="41.4114802" lon="12.8738685"><ele>0.0</ele><time>2026-04-26T05:38:13.201Z</time></trkpt><trkpt lat="41.4113831" lon="12.8738193"><ele>0.0</ele><time>2026-04-26T05:38:15.201Z</time></trkpt><trkpt lat="41.4112797" lon="12.8737706"><ele>0.0</ele><time>2026-04-26T05:38:17.201Z</time></trkpt><trkpt lat="41.4111779" lon="12.8737277"><ele>0.0</ele><time>2026-04-26T05:38:19.201Z</time></trkpt><trkpt lat="41.4110719" lon="12.8736823"><ele>0.0</ele><time>2026-04-26T05:38:21.202Z</time></trkpt><trkpt lat="41.4109705" lon="12.8736391"><ele>0.0</ele><time>2026-04-26T05:38:23.201Z</time></trkpt><trkpt lat="41.4108708" lon="12.8735986"><ele>0.0</ele><time>2026-04-26T05:38:25.201Z</time></trkpt><trkpt lat="41.4107647" lon="12.873556"><ele>0.0</ele><time>2026-04-26T05:38:27.201Z</time></trkpt><trkpt lat="41.4106611" lon="12.8735128"><ele>0.0</ele><time>2026-04-26T05:38:29.202Z</time></trkpt><trkpt lat="41.4105543" lon="12.8734667"><ele>0.0</ele><time>2026-04-26T05:38:31.201Z</time></trkpt><trkpt lat="41.4104517" lon="12.873414"><ele>0.0</ele><time>2026-04-26T05:38:33.201Z</time></trkpt><trkpt lat="41.4103432" lon="12.873364"><ele>0.0</ele><time>2026-04-26T05:38:35.201Z</time></trkpt><trkpt lat="41.4102347" lon="12.8733212"><ele>0.0</ele><time>2026-04-26T05:38:37.201Z</time></trkpt><trkpt lat="41.4101299" lon="12.8732714"><ele>0.0</ele><time>2026-04-26T05:38:39.201Z</time></trkpt><trkpt lat="41.41002" lon="12.8732222"><ele>0.0</ele><time>2026-04-26T05:38:41.201Z</time></trkpt><trkpt lat="41.4099104" lon="12.8731751"><ele>0.0</ele><time>2026-04-26T05:38:43.201Z</time></trkpt><trkpt lat="41.4098004" lon="12.873134"><ele>0.0</ele><time>2026-04-26T05:38:45.201Z</time></trkpt><trkpt lat="41.4097006" lon="12.8730786"><ele>0.0</ele><time>2026-04-26T05:38:47.201Z</time></trkpt><trkpt lat="41.4096031" lon="12.8730262"><ele>0.0</ele><time>2026-04-26T05:38:49.201Z</time></trkpt><trkpt lat="41.4095088" lon="12.872984"><ele>0.0</ele><time>2026-04-26T05:38:51.201Z</time></trkpt><trkpt lat="41.4094167" lon="12.8729457"><ele>0.2</ele><time>2026-04-26T05:38:53.201Z</time></trkpt><trkpt lat="41.4093306" lon="12.872905"><ele>0.4</ele><time>2026-04-26T05:38:55.202Z</time></trkpt><trkpt lat="41.4092488" lon="12.8728662"><ele>0.6000000000000001</ele><time>2026-04-26T05:38:57.202Z</time></trkpt><trkpt lat="41.4091594" lon="12.8728417"><ele>0.8</ele><time>2026-04-26T05:38:59.201Z</time></trkpt><trkpt lat="41.4090694" lon="12.8728024"><ele>1.0</ele><time>2026-04-26T05:39:01.203Z</time></trkpt><trkpt lat="41.4089775" lon="12.8727625"><ele>1.0</ele><time>2026-04-26T05:39:03.201Z</time></trkpt><trkpt lat="41.4088791" lon="12.8727216"><ele>1.0</ele><time>2026-04-26T05:39:05.201Z</time></trkpt><trkpt lat="41.408778" lon="12.8726776"><ele>1.0</ele><time>2026-04-26T05:39:07.201Z</time></trkpt><trkpt lat="41.4086828" lon="12.8726249"><ele>1.0</ele><time>2026-04-26T05:39:09.201Z</time></trkpt><trkpt lat="41.4085872" lon="12.8725803"><ele>1.0</ele><time>2026-04-26T05:39:11.201Z</time></trkpt><trkpt lat="41.4084948" lon="12.8725354"><ele>1.2000000000000002</ele><time>2026-04-26T05:39:13.201Z</time></trkpt><trkpt lat="41.4083955" lon="12.8725006"><ele>1.4000000000000001</ele><time>2026-04-26T05:39:15.201Z</time></trkpt><trkpt lat="41.4082977" lon="12.8724665"><ele>1.6</ele><time>2026-04-26T05:39:17.201Z</time></trkpt><trkpt lat="41.4082031" lon="12.8724175"><ele>1.8</ele><time>2026-04-26T05:39:19.201Z</time></trkpt><trkpt lat="41.4081094" lon="12.8723636"><ele>2.0</ele><time>2026-04-26T05:39:21.202Z</time></trkpt><trkpt lat="41.4080166" lon="12.8723155"><ele>1.8</ele><time>2026-04-26T05:39:23.201Z</time></trkpt><trkpt lat="41.4079198" lon="12.8722723"><ele>1.6</ele><time>2026-04-26T05:39:25.201Z</time></trkpt><trkpt lat="41.4078265" lon="12.8722241"><ele>1.4000000000000001</ele><time>2026-04-26T05:39:27.202Z</time></trkpt><trkpt lat="41.4077294" lon="12.8721789"><ele>1.2000000000000002</ele><time>2026-04-26T05:39:29.201Z</time></trkpt><trkpt lat="41.4076341" lon="12.8721377"><ele>1.0</ele><time>2026-04-26T05:39:31.201Z</time></trkpt><trkpt lat="41.407536" lon="12.8720994"><ele>1.0</ele><time>2026-04-26T05:39:33.201Z</time></trkpt><trkpt lat="41.4074428" lon="12.8720594"><ele>1.0</ele><time>2026-04-26T05:39:35.202Z</time></trkpt><trkpt lat="41.4073516" lon="12.8720166"><ele>1.0</ele><time>2026-04-26T05:39:37.201Z</time></trkpt><trkpt lat="41.4072621" lon="12.8719722"><ele>1.0</ele><time>2026-04-26T05:39:39.201Z</time></trkpt><trkpt lat="41.4071623" lon="12.8719275"><ele>1.0</ele><time>2026-04-26T05:39:41.201Z</time></trkpt><trkpt lat="41.4070758" lon="12.8718812"><ele>1.1666666666666665</ele><time>2026-04-26T05:39:43.201Z</time></trkpt><trkpt lat="41.4069922" lon="12.8718411"><ele>1.3333333333333333</ele><time>2026-04-26T05:39:45.202Z</time></trkpt><trkpt lat="41.4069077" lon="12.8718053"><ele>1.5</ele><time>2026-04-26T05:39:47.201Z</time></trkpt><trkpt lat="41.4068261" lon="12.8717685"><ele>1.6666666666666665</ele><time>2026-04-26T05:39:49.201Z</time></trkpt><trkpt lat="41.4067431" lon="12.8717325"><ele>1.8333333333333333</ele><time>2026-04-26T05:39:51.201Z</time></trkpt><trkpt lat="41.4066658" lon="12.8716957"><ele>2.0</ele><time>2026-04-26T05:39:53.201Z</time></trkpt><trkpt lat="41.406597" lon="12.8716595"><ele>2.0</ele><time>2026-04-26T05:39:55.201Z</time></trkpt><trkpt lat="41.4065311" lon="12.8716273"><ele>1.9999999999999998</ele><time>2026-04-26T05:39:57.201Z</time></trkpt><trkpt lat="41.4064704" lon="12.8716001"><ele>2.0</ele><time>2026-04-26T05:39:59.201Z</time></trkpt><trkpt lat="41.4063935" lon="12.8715645"><ele>2.0</ele><time>2026-04-26T05:40:02.201Z</time></trkpt><trkpt lat="41.4063575" lon="12.8714864"><ele>1.9999999999999998</ele><time>2026-04-26T05:40:05.201Z</time></trkpt><trkpt lat="41.406372" lon="12.8713669"><ele>2.0</ele><time>2026-04-26T05:40:08.201Z</time></trkpt><trkpt lat="41.4063921" lon="12.8712806"><ele>2.0</ele><time>2026-04-26T05:40:10.201Z</time></trkpt><trkpt lat="41.4063912" lon="12.8711939"><ele>1.9999999999999998</ele><time>2026-04-26T05:40:12.201Z</time></trkpt><trkpt lat="41.4063761" lon="12.8710833"><ele>2.0</ele><time>2026-04-26T05:40:15.201Z</time></trkpt><trkpt lat="41.406299" lon="12.8711156"><ele>2.0</ele><time>2026-04-26T05:40:19.202Z</time></trkpt><trkpt lat="41.4062715" lon="12.8711927"><ele>2.0</ele><time>2026-04-26T05:40:21.202Z</time></trkpt><trkpt lat="41.4062437" lon="12.8712777"><ele>1.9999999999999998</ele><time>2026-04-26T05:40:23.201Z</time></trkpt><trkpt lat="41.4061738" lon="12.8713303"><ele>2.0</ele><time>2026-04-26T05:40:26.202Z</time></trkpt><trkpt lat="41.4060955" lon="12.871284"><ele>2.142857142857143</ele><time>2026-04-26T05:40:29.201Z</time></trkpt><trkpt lat="41.4060506" lon="12.8712107"><ele>2.2857142857142856</ele><time>2026-04-26T05:40:32.202Z</time></trkpt><trkpt lat="41.405972" lon="12.8711732"><ele>2.4285714285714284</ele><time>2026-04-26T05:40:36.201Z</time></trkpt><trkpt lat="41.4059043" lon="12.8711442"><ele>2.571428571428571</ele><time>2026-04-26T05:40:39.201Z</time></trkpt><trkpt lat="41.4058412" lon="12.8710991"><ele>2.7142857142857144</ele><time>2026-04-26T05:40:42.201Z</time></trkpt><trkpt lat="41.4057712" lon="12.8710574"><ele>2.8571428571428568</ele><time>2026-04-26T05:40:45.201Z</time></trkpt><trkpt lat="41.405701" lon="12.8710384"><ele>3.0</ele><time>2026-04-26T05:40:48.201Z</time></trkpt><trkpt lat="41.4056379" lon="12.8709851"><ele>2.9999999999999996</ele><time>2026-04-26T05:40:53.201Z</time></trkpt><trkpt lat="41.4056361" lon="12.8710783"><ele>3.0</ele><time>2026-04-26T05:41:15.201Z</time></trkpt><trkpt lat="41.4056921" lon="12.8711221"><ele>3.0</ele><time>2026-04-26T05:41:18.201Z</time></trkpt><trkpt lat="41.4057631" lon="12.871154"><ele>3.0</ele><time>2026-04-26T05:41:21.201Z</time></trkpt><trkpt lat="41.4058271" lon="12.8711935"><ele>3.0</ele><time>2026-04-26T05:41:25.201Z</time></trkpt><trkpt lat="41.4058589" lon="12.8712824"><ele>2.9999999999999996</ele><time>2026-04-26T05:41:29.201Z</time></trkpt><trkpt lat="41.4058608" lon="12.871373"><ele>3.0</ele><time>2026-04-26T05:41:33.201Z</time></trkpt><trkpt lat="41.4058544" lon="12.8714623"><ele>2.9999999999999996</ele><time>2026-04-26T05:41:37.201Z</time></trkpt><trkpt lat="41.4058711" lon="12.8715519"><ele>3.0</ele><time>2026-04-26T05:41:42.202Z</time></trkpt><trkpt lat="41.4059217" lon="12.8716103"><ele>3.0</ele><time>2026-04-26T05:41:46.202Z</time></trkpt><trkpt lat="41.4059841" lon="12.8716726"><ele>3.0</ele><time>2026-04-26T05:41:50.201Z</time></trkpt><trkpt lat="41.4060364" lon="12.8717539"><ele>3.0</ele><time>2026-04-26T05:41:54.201Z</time></trkpt><trkpt lat="41.4060564" lon="12.8718425"><ele>2.9999999999999996</ele><time>2026-04-26T05:41:57.201Z</time></trkpt><trkpt lat="41.4060296" lon="12.8719292"><ele>3.0</ele><time>2026-04-26T05:42:00.202Z</time></trkpt><trkpt lat="41.4059991" lon="12.8720081"><ele>2.8571428571428568</ele><time>2026-04-26T05:42:03.201Z</time></trkpt><trkpt lat="41.4060188" lon="12.8720921"><ele>2.7142857142857144</ele><time>2026-04-26T05:42:07.201Z</time></trkpt><trkpt lat="41.4060915" lon="12.8720713"><ele>2.571428571428571</ele><time>2026-04-26T05:42:10.201Z</time></trkpt><trkpt lat="41.4061251" lon="12.8719957"><ele>2.4285714285714284</ele><time>2026-04-26T05:42:12.201Z</time></trkpt><trkpt lat="41.4061586" lon="12.8719164"><ele>2.2857142857142856</ele><time>2026-04-26T05:42:14.202Z</time></trkpt><trkpt lat="41.4062085" lon="12.8718447"><ele>2.142857142857143</ele><time>2026-04-26T05:42:16.201Z</time></trkpt><trkpt lat="41.4062685" lon="12.8717802"><ele>2.0</ele><time>2026-04-26T05:42:18.201Z</time></trkpt><trkpt lat="41.4063444" lon="12.8717371"><ele>1.9999999999999998</ele><time>2026-04-26T05:42:20.201Z</time></trkpt><trkpt lat="41.4064326" lon="12.8717316"><ele>2.0</ele><time>2026-04-26T05:42:22.201Z</time></trkpt><trkpt lat="41.4065218" lon="12.8717087"><ele>2.0</ele><time>2026-04-26T05:42:24.201Z</time></trkpt><trkpt lat="41.4066066" lon="12.8716903"><ele>2.0</ele><time>2026-04-26T05:42:26.201Z</time></trkpt><trkpt lat="41.4066996" lon="12.8717043"><ele>1.9999999999999998</ele><time>2026-04-26T05:42:28.202Z</time></trkpt><trkpt lat="41.4067846" lon="12.8717399"><ele>2.0</ele><time>2026-04-26T05:42:30.201Z</time></trkpt><trkpt lat="41.4068669" lon="12.8717686"><ele>2.0</ele><time>2026-04-26T05:42:32.202Z</time></trkpt><trkpt lat="41.4069414" lon="12.8718129"><ele>1.9999999999999998</ele><time>2026-04-26T05:42:34.201Z</time></trkpt><trkpt lat="41.4070154" lon="12.8718448"><ele>2.0</ele><time>2026-04-26T05:42:36.201Z</time></trkpt><trkpt lat="41.4070853" lon="12.871879"><ele>2.0</ele><time>2026-04-26T05:42:38.201Z</time></trkpt><trkpt lat="41.4071529" lon="12.8719082"><ele>1.9999999999999998</ele><time>2026-04-26T05:42:40.201Z</time></trkpt><trkpt lat="41.4072149" lon="12.8719449"><ele>2.0</ele><time>2026-04-26T05:42:42.201Z</time></trkpt><trkpt lat="41.4072856" lon="12.8719747"><ele>2.0</ele><time>2026-04-26T05:42:44.203Z</time></trkpt><trkpt lat="41.4073586" lon="12.8720084"><ele>1.8333333333333333</ele><time>2026-04-26T05:42:46.201Z</time></trkpt><trkpt lat="41.4074331" lon="12.8720406"><ele>1.6666666666666665</ele><time>2026-04-26T05:42:48.201Z</time></trkpt><trkpt lat="41.4075096" lon="12.8720761"><ele>1.5</ele><time>2026-04-26T05:42:50.201Z</time></trkpt><trkpt lat="41.4075868" lon="12.8721071"><ele>1.3333333333333333</ele><time>2026-04-26T05:42:52.201Z</time></trkpt><trkpt lat="41.4076637" lon="12.8721431"><ele>1.1666666666666665</ele><time>2026-04-26T05:42:54.201Z</time></trkpt><trkpt lat="41.4077433" lon="12.8721791"><ele>1.0</ele><time>2026-04-26T05:42:56.201Z</time></trkpt><trkpt lat="41.4078246" lon="12.8722135"><ele>0.9999999999999999</ele><time>2026-04-26T05:42:58.201Z</time></trkpt><trkpt lat="41.4079015" lon="12.872252"><ele>1.0</ele><time>2026-04-26T05:43:00.201Z</time></trkpt><trkpt lat="41.4079787" lon="12.8722857"><ele>1.0</ele><time>2026-04-26T05:43:02.201Z</time></trkpt><trkpt lat="41.4080568" lon="12.8723195"><ele>1.0</ele><time>2026-04-26T05:43:04.201Z</time></trkpt><trkpt lat="41.4081357" lon="12.872358"><ele>0.9999999999999999</ele><time>2026-04-26T05:43:06.201Z</time></trkpt><trkpt lat="41.4082143" lon="12.872397"><ele>1.0</ele><time>2026-04-26T05:43:08.201Z</time></trkpt><trkpt lat="41.4082943" lon="12.8724314"><ele>0.9999999999999999</ele><time>2026-04-26T05:43:10.201Z</time></trkpt><trkpt lat="41.4083721" lon="12.8724711"><ele>1.0</ele><time>2026-04-26T05:43:12.201Z</time></trkpt><trkpt lat="41.4084495" lon="12.8725099"><ele>1.0</ele><time>2026-04-26T05:43:14.201Z</time></trkpt><trkpt lat="41.4085274" lon="12.8725465"><ele>1.0</ele><time>2026-04-26T05:43:16.202Z</time></trkpt><trkpt lat="41.4086061" lon="12.8725815"><ele>0.9999999999999999</ele><time>2026-04-26T05:43:18.201Z</time></trkpt><trkpt lat="41.4086825" lon="12.8726178"><ele>1.0</ele><time>2026-04-26T05:43:20.201Z</time></trkpt><trkpt lat="41.4087571" lon="12.8726514"><ele>0.9999999999999999</ele><time>2026-04-26T05:43:22.201Z</time></trkpt><trkpt lat="41.4088347" lon="12.8726823"><ele>1.0</ele><time>2026-04-26T05:43:24.201Z</time></trkpt><trkpt lat="41.4089134" lon="12.8727134"><ele>1.0</ele><time>2026-04-26T05:43:26.201Z</time></trkpt><trkpt lat="41.4089909" lon="12.8727489"><ele>1.0</ele><time>2026-04-26T05:43:28.201Z</time></trkpt><trkpt lat="41.40907" lon="12.8727834"><ele>0.9999999999999999</ele><time>2026-04-26T05:43:30.201Z</time></trkpt><trkpt lat="41.4091489" lon="12.8728223"><ele>1.0</ele><time>2026-04-26T05:43:32.202Z</time></trkpt><trkpt lat="41.4092305" lon="12.8728558"><ele>0.9999999999999999</ele><time>2026-04-26T05:43:34.201Z</time></trkpt><trkpt lat="41.4093133" lon="12.8728903"><ele>1.0</ele><time>2026-04-26T05:43:36.201Z</time></trkpt><trkpt lat="41.4093944" lon="12.8729238"><ele>1.0</ele><time>2026-04-26T05:43:38.201Z</time></trkpt><trkpt lat="41.4094773" lon="12.8729631"><ele>1.0</ele><time>2026-04-26T05:43:40.201Z</time></trkpt><trkpt lat="41.4095603" lon="12.8729991"><ele>0.9999999999999999</ele><time>2026-04-26T05:43:42.201Z</time></trkpt><trkpt lat="41.4096415" lon="12.8730343"><ele>1.0</ele><time>2026-04-26T05:43:44.201Z</time></trkpt><trkpt lat="41.4097221" lon="12.8730718"><ele>0.8333333333333333</ele><time>2026-04-26T05:43:46.201Z</time></trkpt><trkpt lat="41.4098017" lon="12.8731081"><ele>0.6666666666666666</ele><time>2026-04-26T05:43:48.201Z</time></trkpt><trkpt lat="41.4098813" lon="12.8731455"><ele>0.5</ele><time>2026-04-26T05:43:50.202Z</time></trkpt><trkpt lat="41.4099624" lon="12.873178"><ele>0.3333333333333333</ele><time>2026-04-26T05:43:52.201Z</time></trkpt><trkpt lat="41.4100432" lon="12.873211"><ele>0.16666666666666666</ele><time>2026-04-26T05:43:54.201Z</time></trkpt><trkpt lat="41.4101213" lon="12.8732512"><ele>0.0</ele><time>2026-04-26T05:43:56.201Z</time></trkpt><trkpt lat="41.410199" lon="12.8732924"><ele>0.0</ele><time>2026-04-26T05:43:58.202Z</time></trkpt><trkpt lat="41.4102766" lon="12.8733244"><ele>0.0</ele><time>2026-04-26T05:44:00.201Z</time></trkpt><trkpt lat="41.4103483" lon="12.8733607"><ele>0.0</ele><time>2026-04-26T05:44:02.201Z</time></trkpt><trkpt lat="41.41042" lon="12.8733942"><ele>0.0</ele><time>2026-04-26T05:44:04.201Z</time></trkpt><trkpt lat="41.4104938" lon="12.8734234"><ele>0.0</ele><time>2026-04-26T05:44:06.202Z</time></trkpt><trkpt lat="41.4105688" lon="12.8734559"><ele>0.0</ele><time>2026-04-26T05:44:08.201Z</time></trkpt><trkpt lat="41.4106463" lon="12.8734895"><ele>0.0</ele><time>2026-04-26T05:44:10.202Z</time></trkpt><trkpt lat="41.4107242" lon="12.8735278"><ele>0.0</ele><time>2026-04-26T05:44:12.201Z</time></trkpt><trkpt lat="41.4108053" lon="12.8735605"><ele>0.0</ele><time>2026-04-26T05:44:14.201Z</time></trkpt><trkpt lat="41.4108863" lon="12.8736005"><ele>0.0</ele><time>2026-04-26T05:44:16.201Z</time></trkpt><trkpt lat="41.4109666" lon="12.8736383"><ele>0.0</ele><time>2026-04-26T05:44:18.201Z</time></trkpt><trkpt lat="41.4110467" lon="12.8736722"><ele>0.0</ele><time>2026-04-26T05:44:20.201Z</time></trkpt><trkpt lat="41.4111243" lon="12.8737051"><ele>0.0</ele><time>2026-04-26T05:44:22.201Z</time></trkpt><trkpt lat="41.4111983" lon="12.8737409"><ele>0.0</ele><time>2026-04-26T05:44:24.201Z</time></trkpt><trkpt lat="41.4112696" lon="12.8737794"><ele>0.0</ele><time>2026-04-26T05:44:26.202Z</time></trkpt><trkpt lat="41.4113418" lon="12.8738099"><ele>0.0</ele><time>2026-04-26T05:44:28.202Z</time></trkpt><trkpt lat="41.4114155" lon="12.8738442"><ele>0.0</ele><time>2026-04-26T05:44:30.201Z</time></trkpt><trkpt lat="41.4114907" lon="12.8738766"><ele>0.0</ele><time>2026-04-26T05:44:32.201Z</time></trkpt><trkpt lat="41.4115667" lon="12.87391"><ele>0.0</ele><time>2026-04-26T05:44:34.201Z</time></trkpt><trkpt lat="41.411643" lon="12.8739483"><ele>0.0</ele><time>2026-04-26T05:44:36.201Z</time></trkpt><trkpt lat="41.4117191" lon="12.8739825"><ele>0.0</ele><time>2026-04-26T05:44:38.201Z</time></trkpt><trkpt lat="41.4117978" lon="12.8740188"><ele>0.0</ele><time>2026-04-26T05:44:40.201Z</time></trkpt><trkpt lat="41.4118769" lon="12.8740578"><ele>0.0</ele><time>2026-04-26T05:44:42.202Z</time></trkpt><trkpt lat="41.4119562" lon="12.8740907"><ele>0.0</ele><time>2026-04-26T05:44:44.201Z</time></trkpt><trkpt lat="41.4120357" lon="12.8741299"><ele>0.0</ele><time>2026-04-26T05:44:46.201Z</time></trkpt><trkpt lat="41.4121156" lon="12.8741612"><ele>0.0</ele><time>2026-04-26T05:44:48.201Z</time></trkpt><trkpt lat="41.412194" lon="12.874195"><ele>0.0</ele><time>2026-04-26T05:44:50.201Z</time></trkpt><trkpt lat="41.4122709" lon="12.8742317"><ele>0.0</ele><time>2026-04-26T05:44:52.201Z</time></trkpt><trkpt lat="41.4123498" lon="12.8742666"><ele>0.0</ele><time>2026-04-26T05:44:54.201Z</time></trkpt><trkpt lat="41.4124289" lon="12.8743018"><ele>0.0</ele><time>2026-04-26T05:44:56.201Z</time></trkpt><trkpt lat="41.4125063" lon="12.8743388"><ele>0.0</ele><time>2026-04-26T05:44:58.201Z</time></trkpt><trkpt lat="41.4125861" lon="12.8743753"><ele>0.0</ele><time>2026-04-26T05:45:00.201Z</time></trkpt><trkpt lat="41.4126651" lon="12.8744118"><ele>0.0</ele><time>2026-04-26T05:45:02.201Z</time></trkpt><trkpt lat="41.4127431" lon="12.8744482"><ele>0.0</ele><time>2026-04-26T05:45:04.201Z</time></trkpt><trkpt lat="41.4128174" lon="12.8744832"><ele>0.0</ele><time>2026-04-26T05:45:06.201Z</time></trkpt><trkpt lat="41.4128922" lon="12.8745152"><ele>0.0</ele><time>2026-04-26T05:45:08.201Z</time></trkpt><trkpt lat="41.4129656" lon="12.8745502"><ele>0.3333333333333333</ele><time>2026-04-26T05:45:10.201Z</time></trkpt><trkpt lat="41.4130398" lon="12.8745785"><ele>0.6666666666666666</ele><time>2026-04-26T05:45:12.201Z</time></trkpt><trkpt lat="41.4131147" lon="12.8746082"><ele>1.0</ele><time>2026-04-26T05:45:14.201Z</time></trkpt><trkpt lat="41.4131878" lon="12.8746442"><ele>1.3333333333333333</ele><time>2026-04-26T05:45:16.201Z</time></trkpt><trkpt lat="41.4132638" lon="12.8746784"><ele>1.6666666666666665</ele><time>2026-04-26T05:45:18.201Z</time></trkpt><trkpt lat="41.4133397" lon="12.8747144"><ele>2.0</ele><time>2026-04-26T05:45:20.201Z</time></trkpt><trkpt lat="41.4134161" lon="12.8747498"><ele>1.9999999999999998</ele><time>2026-04-26T05:45:22.201Z</time></trkpt><trkpt lat="41.413492" lon="12.8747864"><ele>2.0</ele><time>2026-04-26T05:45:24.201Z</time></trkpt><trkpt lat="41.4135677" lon="12.8748223"><ele>2.0</ele><time>2026-04-26T05:45:26.203Z</time></trkpt><trkpt lat="41.4136455" lon="12.8748567"><ele>2.0</ele><time>2026-04-26T05:45:28.201Z</time></trkpt><trkpt lat="41.4137206" lon="12.874895"><ele>1.9999999999999998</ele><time>2026-04-26T05:45:30.201Z</time></trkpt><trkpt lat="41.4137961" lon="12.8749334"><ele>2.0</ele><time>2026-04-26T05:45:32.201Z</time></trkpt><trkpt lat="41.4138703" lon="12.8749666"><ele>1.9999999999999998</ele><time>2026-04-26T05:45:34.201Z</time></trkpt><trkpt lat="41.4139462" lon="12.8749976"><ele>2.0</ele><time>2026-04-26T05:45:36.201Z</time></trkpt><trkpt lat="41.4140251" lon="12.8750325"><ele>2.0</ele><time>2026-04-26T05:45:38.201Z</time></trkpt><trkpt lat="41.4141016" lon="12.8750645"><ele>2.0</ele><time>2026-04-26T05:45:40.201Z</time></trkpt><trkpt lat="41.4141781" lon="12.8750969"><ele>1.9999999999999998</ele><time>2026-04-26T05:45:42.201Z</time></trkpt><trkpt lat="41.4142567" lon="12.8751352"><ele>2.0</ele><time>2026-04-26T05:45:44.201Z</time></trkpt><trkpt lat="41.4143336" lon="12.8751781"><ele>1.9999999999999998</ele><time>2026-04-26T05:45:46.202Z</time></trkpt><trkpt lat="41.4144082" lon="12.875218"><ele>2.0</ele><time>2026-04-26T05:45:48.201Z</time></trkpt><trkpt lat="41.4144783" lon="12.8752475"><ele>2.0</ele><time>2026-04-26T05:45:50.201Z</time></trkpt><trkpt lat="41.4145532" lon="12.8752741"><ele>2.0</ele><time>2026-04-26T05:45:52.202Z</time></trkpt><trkpt lat="41.4146304" lon="12.8753083"><ele>1.9999999999999998</ele><time>2026-04-26T05:45:54.201Z</time></trkpt><trkpt lat="41.4147139" lon="12.8753326"><ele>2.0</ele><time>2026-04-26T05:45:56.202Z</time></trkpt><trkpt lat="41.4148001" lon="12.8753399"><ele>1.6666666666666665</ele><time>2026-04-26T05:45:58.201Z</time></trkpt><trkpt lat="41.4148801" lon="12.8753728"><ele>1.3333333333333333</ele><time>2026-04-26T05:46:00.201Z</time></trkpt><trkpt lat="41.4149458" lon="12.8754268"><ele>1.0</ele><time>2026-04-26T05:46:02.201Z</time></trkpt><trkpt lat="41.415004" lon="12.875484"><ele>0.6666666666666666</ele><time>2026-04-26T05:46:04.201Z</time></trkpt><trkpt lat="41.4150787" lon="12.8755124"><ele>0.3333333333333333</ele><time>2026-04-26T05:46:06.201Z</time></trkpt><trkpt lat="41.4151585" lon="12.8755524"><ele>0.0</ele><time>2026-04-26T05:46:08.201Z</time></trkpt><trkpt lat="41.4152409" lon="12.8755838"><ele>0.0</ele><time>2026-04-26T05:46:10.202Z</time></trkpt><trkpt lat="41.4153214" lon="12.8756247"><ele>0.0</ele><time>2026-04-26T05:46:12.201Z</time></trkpt><trkpt lat="41.4154029" lon="12.8756637"><ele>0.0</ele><time>2026-04-26T05:46:14.201Z</time></trkpt><trkpt lat="41.4154869" lon="12.8757044"><ele>0.0</ele><time>2026-04-26T05:46:16.201Z</time></trkpt><trkpt lat="41.4155712" lon="12.8757415"><ele>0.0</ele><time>2026-04-26T05:46:18.202Z</time></trkpt><trkpt lat="41.415654" lon="12.87578"><ele>0.0</ele><time>2026-04-26T05:46:20.201Z</time></trkpt><trkpt lat="41.4157354" lon="12.8758186"><ele>0.16666666666666666</ele><time>2026-04-26T05:46:22.201Z</time></trkpt><trkpt lat="41.4158169" lon="12.8758536"><ele>0.3333333333333333</ele><time>2026-04-26T05:46:24.201Z</time></trkpt><trkpt lat="41.4158978" lon="12.8758923"><ele>0.5</ele><time>2026-04-26T05:46:26.201Z</time></trkpt><trkpt lat="41.4159803" lon="12.8759246"><ele>0.6666666666666666</ele><time>2026-04-26T05:46:28.201Z</time></trkpt><trkpt lat="41.416065" lon="12.8759576"><ele>0.8333333333333333</ele><time>2026-04-26T05:46:30.201Z</time></trkpt><trkpt lat="41.4161498" lon="12.8759947"><ele>1.0</ele><time>2026-04-26T05:46:32.201Z</time></trkpt><trkpt lat="41.416235" lon="12.876032"><ele>0.9999999999999999</ele><time>2026-04-26T05:46:34.201Z</time></trkpt><trkpt lat="41.4163165" lon="12.8760743"><ele>1.0</ele><time>2026-04-26T05:46:36.201Z</time></trkpt><trkpt lat="41.4163979" lon="12.8761136"><ele>1.0</ele><time>2026-04-26T05:46:38.201Z</time></trkpt><trkpt lat="41.4164779" lon="12.8761559"><ele>1.0</ele><time>2026-04-26T05:46:40.201Z</time></trkpt><trkpt lat="41.4165571" lon="12.876194"><ele>0.9999999999999999</ele><time>2026-04-26T05:46:42.201Z</time></trkpt><trkpt lat="41.4166376" lon="12.8762323"><ele>1.0</ele><time>2026-04-26T05:46:44.201Z</time></trkpt><trkpt lat="41.416717" lon="12.8762701"><ele>0.9999999999999999</ele><time>2026-04-26T05:46:46.201Z</time></trkpt><trkpt lat="41.4167978" lon="12.8763071"><ele>1.0</ele><time>2026-04-26T05:46:48.201Z</time></trkpt><trkpt lat="41.4168785" lon="12.8763394"><ele>1.0</ele><time>2026-04-26T05:46:50.201Z</time></trkpt><trkpt lat="41.4169561" lon="12.8763769"><ele>1.0</ele><time>2026-04-26T05:46:52.201Z</time></trkpt><trkpt lat="41.4170348" lon="12.8764148"><ele>0.9999999999999999</ele><time>2026-04-26T05:46:54.201Z</time></trkpt><trkpt lat="41.4171138" lon="12.8764524"><ele>1.0</ele><time>2026-04-26T05:46:56.201Z</time></trkpt><trkpt lat="41.4171936" lon="12.8764881"><ele>0.9999999999999999</ele><time>2026-04-26T05:46:58.202Z</time></trkpt><trkpt lat="41.4172718" lon="12.8765224"><ele>1.0</ele><time>2026-04-26T05:47:00.201Z</time></trkpt><trkpt lat="41.4173511" lon="12.8765553"><ele>1.0</ele><time>2026-04-26T05:47:02.201Z</time></trkpt><trkpt lat="41.4174315" lon="12.8765891"><ele>1.0</ele><time>2026-04-26T05:47:04.201Z</time></trkpt><trkpt lat="41.417513" lon="12.876628"><ele>0.9999999999999999</ele><time>2026-04-26T05:47:06.201Z</time></trkpt><trkpt lat="41.4175941" lon="12.8766664"><ele>1.0</ele><time>2026-04-26T05:47:08.202Z</time></trkpt><trkpt lat="41.4176742" lon="12.8767007"><ele>0.9999999999999999</ele><time>2026-04-26T05:47:10.201Z</time></trkpt><trkpt lat="41.4177527" lon="12.8767365"><ele>1.0</ele><time>2026-04-26T05:47:12.201Z</time></trkpt><trkpt lat="41.4178299" lon="12.8767706"><ele>1.0</ele><time>2026-04-26T05:47:14.201Z</time></trkpt><trkpt lat="41.4179052" lon="12.8768065"><ele>1.0</ele><time>2026-04-26T05:47:16.201Z</time></trkpt><trkpt lat="41.4179808" lon="12.8768333"><ele>0.9999999999999999</ele><time>2026-04-26T05:47:18.201Z</time></trkpt><trkpt lat="41.4180527" lon="12.8768743"><ele>1.0</ele><time>2026-04-26T05:47:20.201Z</time></trkpt><trkpt lat="41.4181289" lon="12.8769096"><ele>1.1666666666666665</ele><time>2026-04-26T05:47:22.201Z</time></trkpt><trkpt lat="41.4182062" lon="12.8769442"><ele>1.3333333333333333</ele><time>2026-04-26T05:47:24.201Z</time></trkpt><trkpt lat="41.4182804" lon="12.8769806"><ele>1.5</ele><time>2026-04-26T05:47:26.201Z</time></trkpt><trkpt lat="41.4183555" lon="12.8770123"><ele>1.6666666666666665</ele><time>2026-04-26T05:47:28.201Z</time></trkpt><trkpt lat="41.418434" lon="12.8770313"><ele>1.8333333333333333</ele><time>2026-04-26T05:47:30.201Z</time></trkpt><trkpt lat="41.4185079" lon="12.8770675"><ele>2.0</ele><time>2026-04-26T05:47:32.201Z</time></trkpt><trkpt lat="41.4185757" lon="12.8771094"><ele>1.9999999999999998</ele><time>2026-04-26T05:47:34.201Z</time></trkpt><trkpt lat="41.4186494" lon="12.8771432"><ele>2.0</ele><time>2026-04-26T05:47:36.201Z</time></trkpt><trkpt lat="41.4187254" lon="12.8771767"><ele>2.0</ele><time>2026-04-26T05:47:38.201Z</time></trkpt><trkpt lat="41.4187985" lon="12.8772158"><ele>2.0</ele><time>2026-04-26T05:47:40.201Z</time></trkpt><trkpt lat="41.4188726" lon="12.8772494"><ele>1.9999999999999998</ele><time>2026-04-26T05:47:42.201Z</time></trkpt><trkpt lat="41.4189485" lon="12.8772811"><ele>2.0</ele><time>2026-04-26T05:47:44.201Z</time></trkpt><trkpt lat="41.4190219" lon="12.8773182"><ele>2.1666666666666665</ele><time>2026-04-26T05:47:46.201Z</time></trkpt><trkpt lat="41.4190984" lon="12.8773529"><ele>2.333333333333333</ele><time>2026-04-26T05:47:48.201Z</time></trkpt><trkpt lat="41.419173" lon="12.8773856"><ele>2.5</ele><time>2026-04-26T05:47:50.201Z</time></trkpt><trkpt lat="41.4192464" lon="12.8774219"><ele>2.6666666666666665</ele><time>2026-04-26T05:47:52.201Z</time></trkpt><trkpt lat="41.4193203" lon="12.8774573"><ele>2.8333333333333335</ele><time>2026-04-26T05:47:54.201Z</time></trkpt><trkpt lat="41.419394" lon="12.8774907"><ele>3.0</ele><time>2026-04-26T05:47:56.202Z</time></trkpt><trkpt lat="41.4194697" lon="12.8775186"><ele>3.0</ele><time>2026-04-26T05:47:58.201Z</time></trkpt><trkpt lat="41.4195444" lon="12.8775493"><ele>3.0</ele><time>2026-04-26T05:48:00.202Z</time></trkpt><trkpt lat="41.4196182" lon="12.8775823"><ele>3.0</ele><time>2026-04-26T05:48:02.201Z</time></trkpt><trkpt lat="41.4196922" lon="12.8776144"><ele>3.0</ele><time>2026-04-26T05:48:04.201Z</time></trkpt><trkpt lat="41.41977" lon="12.877645"><ele>3.0</ele><time>2026-04-26T05:48:06.201Z</time></trkpt><trkpt lat="41.4198477" lon="12.8776779"><ele>3.0</ele><time>2026-04-26T05:48:08.202Z</time></trkpt><trkpt lat="41.4199249" lon="12.8777051"><ele>2.714285714285714</ele><time>2026-04-26T05:48:10.201Z</time></trkpt><trkpt lat="41.4200026" lon="12.8777264"><ele>2.4285714285714284</ele><time>2026-04-26T05:48:12.202Z</time></trkpt><trkpt lat="41.4200808" lon="12.8777222"><ele>2.142857142857143</ele><time>2026-04-26T05:48:14.201Z</time></trkpt><trkpt lat="41.4201533" lon="12.8776895"><ele>1.857142857142857</ele><time>2026-04-26T05:48:16.201Z</time></trkpt><trkpt lat="41.420219" lon="12.8776835"><ele>1.5714285714285712</ele><time>2026-04-26T05:48:18.202Z</time></trkpt><trkpt lat="41.4202787" lon="12.8777121"><ele>1.2857142857142856</ele><time>2026-04-26T05:48:20.202Z</time></trkpt><trkpt lat="41.4203449" lon="12.8777417"><ele>1.0</ele><time>2026-04-26T05:48:22.201Z</time></trkpt><trkpt lat="41.420393" lon="12.8778205"><ele>0.9999999999999999</ele><time>2026-04-26T05:48:24.201Z</time></trkpt><trkpt lat="41.4204262" lon="12.8779165"><ele>1.0</ele><time>2026-04-26T05:48:26.201Z</time></trkpt><trkpt lat="41.4204868" lon="12.8779793"><ele>1.0</ele><time>2026-04-26T05:48:28.201Z</time></trkpt><trkpt lat="41.420555" lon="12.8780242"><ele>1.0</ele><time>2026-04-26T05:48:30.201Z</time></trkpt><trkpt lat="41.4206318" lon="12.8780577"><ele>0.9999999999999999</ele><time>2026-04-26T05:48:32.201Z</time></trkpt><trkpt lat="41.420713" lon="12.8780908"><ele>1.0</ele><time>2026-04-26T05:48:34.201Z</time></trkpt><trkpt lat="41.4207934" lon="12.8781268"><ele>1.3333333333333333</ele><time>2026-04-26T05:48:36.201Z</time></trkpt><trkpt lat="41.4208745" lon="12.8781617"><ele>1.6666666666666665</ele><time>2026-04-26T05:48:38.201Z</time></trkpt><trkpt lat="41.4209552" lon="12.8782037"><ele>2.0</ele><time>2026-04-26T05:48:40.201Z</time></trkpt><trkpt lat="41.4210372" lon="12.8782413"><ele>2.3333333333333335</ele><time>2026-04-26T05:48:42.202Z</time></trkpt><trkpt lat="41.4211184" lon="12.8782783"><ele>2.6666666666666665</ele><time>2026-04-26T05:48:44.201Z</time></trkpt><trkpt lat="41.4211987" lon="12.8783163"><ele>3.0</ele><time>2026-04-26T05:48:46.202Z</time></trkpt><trkpt lat="41.4212784" lon="12.8783524"><ele>3.3333333333333335</ele><time>2026-04-26T05:48:48.201Z</time></trkpt><trkpt lat="41.4213589" lon="12.8783889"><ele>3.666666666666667</ele><time>2026-04-26T05:48:50.201Z</time></trkpt><trkpt lat="41.4214402" lon="12.8784287"><ele>4.0</ele><time>2026-04-26T05:48:52.201Z</time></trkpt><trkpt lat="41.4215239" lon="12.8784624"><ele>4.333333333333334</ele><time>2026-04-26T05:48:54.201Z</time></trkpt><trkpt lat="41.4216084" lon="12.8784975"><ele>4.666666666666667</ele><time>2026-04-26T05:48:56.201Z</time></trkpt><trkpt lat="41.4216934" lon="12.8785353"><ele>5.0</ele><time>2026-04-26T05:48:58.201Z</time></trkpt><trkpt lat="41.4217816" lon="12.8785688"><ele>5.0</ele><time>2026-04-26T05:49:00.201Z</time></trkpt><trkpt lat="41.4218681" lon="12.8786084"><ele>5.0</ele><time>2026-04-26T05:49:02.202Z</time></trkpt><trkpt lat="41.4219525" lon="12.8786495"><ele>5.0</ele><time>2026-04-26T05:49:04.201Z</time></trkpt><trkpt lat="41.4220442" lon="12.878688"><ele>5.0</ele><time>2026-04-26T05:49:06.201Z</time></trkpt><trkpt lat="41.4221355" lon="12.87873"><ele>5.0</ele><time>2026-04-26T05:49:08.201Z</time></trkpt><trkpt lat="41.4222239" lon="12.8787725"><ele>4.8</ele><time>2026-04-26T05:49:10.201Z</time></trkpt><trkpt lat="41.4223127" lon="12.878808"><ele>4.6</ele><time>2026-04-26T05:49:12.201Z</time></trkpt><trkpt lat="41.4224072" lon="12.8788052"><ele>4.4</ele><time>2026-04-26T05:49:14.201Z</time></trkpt><trkpt lat="41.4224962" lon="12.878838"><ele>4.2</ele><time>2026-04-26T05:49:16.201Z</time></trkpt><trkpt lat="41.4225771" lon="12.8789041"><ele>4.0</ele><time>2026-04-26T05:49:18.201Z</time></trkpt><trkpt lat="41.4226621" lon="12.8789525"><ele>4.0</ele><time>2026-04-26T05:49:20.202Z</time></trkpt><trkpt lat="41.4227557" lon="12.8789766"><ele>4.0</ele><time>2026-04-26T05:49:22.201Z</time></trkpt><trkpt lat="41.4228515" lon="12.8790111"><ele>4.0</ele><time>2026-04-26T05:49:24.201Z</time></trkpt><trkpt lat="41.4229443" lon="12.8790541"><ele>4.0</ele><time>2026-04-26T05:49:26.201Z</time></trkpt><trkpt lat="41.4230348" lon="12.8790918"><ele>4.0</ele><time>2026-04-26T05:49:28.201Z</time></trkpt><trkpt lat="41.423127" lon="12.8791273"><ele>4.2</ele><time>2026-04-26T05:49:30.201Z</time></trkpt><trkpt lat="41.423215" lon="12.8791656"><ele>4.4</ele><time>2026-04-26T05:49:32.201Z</time></trkpt><trkpt lat="41.4233109" lon="12.8791951"><ele>4.6</ele><time>2026-04-26T05:49:34.201Z</time></trkpt><trkpt lat="41.4234038" lon="12.8792392"><ele>4.8</ele><time>2026-04-26T05:49:36.201Z</time></trkpt><trkpt lat="41.4235021" lon="12.8792684"><ele>5.0</ele><time>2026-04-26T05:49:38.201Z</time></trkpt><trkpt lat="41.4235931" lon="12.8793025"><ele>5.0</ele><time>2026-04-26T05:49:40.201Z</time></trkpt><trkpt lat="41.4236857" lon="12.8793356"><ele>5.0</ele><time>2026-04-26T05:49:42.201Z</time></trkpt><trkpt lat="41.4237709" lon="12.8793685"><ele>5.0</ele><time>2026-04-26T05:49:44.201Z</time></trkpt><trkpt lat="41.4238636" lon="12.8793927"><ele>5.0</ele><time>2026-04-26T05:49:46.202Z</time></trkpt><trkpt lat="41.4239504" lon="12.8794277"><ele>5.0</ele><time>2026-04-26T05:49:48.201Z</time></trkpt><trkpt lat="41.4240312" lon="12.8794533"><ele>5.0</ele><time>2026-04-26T05:49:50.201Z</time></trkpt><trkpt lat="41.424107" lon="12.8794716"><ele>5.0</ele><time>2026-04-26T05:49:52.201Z</time></trkpt><trkpt lat="41.4241803" lon="12.8795001"><ele>5.0</ele><time>2026-04-26T05:49:54.202Z</time></trkpt><trkpt lat="41.4242564" lon="12.8795248"><ele>5.0</ele><time>2026-04-26T05:49:56.202Z</time></trkpt><trkpt lat="41.4243301" lon="12.8795474"><ele>5.0</ele><time>2026-04-26T05:49:58.201Z</time></trkpt><trkpt lat="41.4243977" lon="12.8795696"><ele>5.0</ele><time>2026-04-26T05:50:00.201Z</time></trkpt><trkpt lat="41.4244603" lon="12.8795887"><ele>5.0</ele><time>2026-04-26T05:50:02.203Z</time></trkpt><trkpt lat="41.4245237" lon="12.8796084"><ele>5.0</ele><time>2026-04-26T05:50:04.201Z</time></trkpt><trkpt lat="41.4245873" lon="12.8796273"><ele>5.0</ele><time>2026-04-26T05:50:06.202Z</time></trkpt><trkpt lat="41.42465" lon="12.8796378"><ele>5.0</ele><time>2026-04-26T05:50:08.201Z</time></trkpt><trkpt lat="41.4247188" lon="12.8796586"><ele>5.0</ele><time>2026-04-26T05:50:10.201Z</time></trkpt><trkpt lat="41.4247919" lon="12.8796842"><ele>5.0</ele><time>2026-04-26T05:50:12.201Z</time></trkpt><trkpt lat="41.4248666" lon="12.8797028"><ele>5.0</ele><time>2026-04-26T05:50:14.201Z</time></trkpt><trkpt lat="41.4249431" lon="12.8797239"><ele>5.0</ele><time>2026-04-26T05:50:16.202Z</time></trkpt><trkpt lat="41.4250228" lon="12.8797454"><ele>5.0</ele><time>2026-04-26T05:50:18.201Z</time></trkpt><trkpt lat="41.4251042" lon="12.8797662"><ele>5.0</ele><time>2026-04-26T05:50:20.201Z</time></trkpt><trkpt lat="41.4251857" lon="12.8797891"><ele>5.0</ele><time>2026-04-26T05:50:22.201Z</time></trkpt><trkpt lat="41.4252653" lon="12.8798134"><ele>5.0</ele><time>2026-04-26T05:50:24.201Z</time></trkpt><trkpt lat="41.4253452" lon="12.8798343"><ele>5.0</ele><time>2026-04-26T05:50:26.201Z</time></trkpt><trkpt lat="41.4254244" lon="12.8798567"><ele>5.0</ele><time>2026-04-26T05:50:28.202Z</time></trkpt><trkpt lat="41.4255032" lon="12.8798823"><ele>5.428571428571429</ele><time>2026-04-26T05:50:30.201Z</time></trkpt><trkpt lat="41.425581" lon="12.8799038"><ele>5.857142857142858</ele><time>2026-04-26T05:50:32.201Z</time></trkpt><trkpt lat="41.4256537" lon="12.879927"><ele>6.285714285714286</ele><time>2026-04-26T05:50:34.201Z</time></trkpt><trkpt lat="41.4257246" lon="12.8799505"><ele>6.7142857142857135</ele><time>2026-04-26T05:50:36.201Z</time></trkpt><trkpt lat="41.425796" lon="12.8799727"><ele>7.142857142857142</ele><time>2026-04-26T05:50:38.201Z</time></trkpt><trkpt lat="41.4258689" lon="12.8799897"><ele>7.571428571428571</ele><time>2026-04-26T05:50:40.201Z</time></trkpt><trkpt lat="41.4259428" lon="12.8800019"><ele>8.0</ele><time>2026-04-26T05:50:42.201Z</time></trkpt><trkpt lat="41.4260179" lon="12.8800167"><ele>7.999999999999999</ele><time>2026-04-26T05:50:44.201Z</time></trkpt><trkpt lat="41.4260935" lon="12.8800268"><ele>8.0</ele><time>2026-04-26T05:50:46.202Z</time></trkpt><trkpt lat="41.4261678" lon="12.8800452"><ele>8.0</ele><time>2026-04-26T05:50:48.201Z</time></trkpt><trkpt lat="41.4262428" lon="12.8800627"><ele>8.0</ele><time>2026-04-26T05:50:50.201Z</time></trkpt><trkpt lat="41.4263172" lon="12.8800793"><ele>7.999999999999999</ele><time>2026-04-26T05:50:52.201Z</time></trkpt><trkpt lat="41.4263925" lon="12.8800987"><ele>8.0</ele><time>2026-04-26T05:50:54.201Z</time></trkpt><trkpt lat="41.4264702" lon="12.8801134"><ele>7.666666666666666</ele><time>2026-04-26T05:50:56.201Z</time></trkpt><trkpt lat="41.4265465" lon="12.880129"><ele>7.333333333333333</ele><time>2026-04-26T05:50:58.201Z</time></trkpt><trkpt lat="41.4266229" lon="12.8801441"><ele>7.0</ele><time>2026-04-26T05:51:00.201Z</time></trkpt><trkpt lat="41.426696" lon="12.8801685"><ele>6.666666666666666</ele><time>2026-04-26T05:51:02.201Z</time></trkpt><trkpt lat="41.426767" lon="12.8801897"><ele>6.333333333333333</ele><time>2026-04-26T05:51:04.202Z</time></trkpt><trkpt lat="41.4268418" lon="12.8802002"><ele>6.0</ele><time>2026-04-26T05:51:06.201Z</time></trkpt><trkpt lat="41.4269182" lon="12.8802127"><ele>6.0</ele><time>2026-04-26T05:51:08.201Z</time></trkpt><trkpt lat="41.4269937" lon="12.8802243"><ele>6.0</ele><time>2026-04-26T05:51:10.201Z</time></trkpt><trkpt lat="41.4270667" lon="12.8802386"><ele>6.0</ele><time>2026-04-26T05:51:12.201Z</time></trkpt><trkpt lat="41.4271395" lon="12.8802484"><ele>6.0</ele><time>2026-04-26T05:51:14.201Z</time></trkpt><trkpt lat="41.4272133" lon="12.8802666"><ele>6.0</ele><time>2026-04-26T05:51:16.201Z</time></trkpt><trkpt lat="41.42729" lon="12.8802768"><ele>6.0</ele><time>2026-04-26T05:51:18.201Z</time></trkpt><trkpt lat="41.4273657" lon="12.8802828"><ele>6.428571428571428</ele><time>2026-04-26T05:51:20.202Z</time></trkpt><trkpt lat="41.4274351" lon="12.8803048"><ele>6.857142857142858</ele><time>2026-04-26T05:51:22.201Z</time></trkpt><trkpt lat="41.4275044" lon="12.8803272"><ele>7.2857142857142865</ele><time>2026-04-26T05:51:24.201Z</time></trkpt><trkpt lat="41.4275776" lon="12.8803263"><ele>7.714285714285714</ele><time>2026-04-26T05:51:26.201Z</time></trkpt><trkpt lat="41.4276529" lon="12.8803357"><ele>8.142857142857142</ele><time>2026-04-26T05:51:28.201Z</time></trkpt><trkpt lat="41.4277284" lon="12.8803498"><ele>8.571428571428573</ele><time>2026-04-26T05:51:30.201Z</time></trkpt><trkpt lat="41.427802" lon="12.8803715"><ele>9.0</ele><time>2026-04-26T05:51:32.201Z</time></trkpt><trkpt lat="41.427877" lon="12.8803934"><ele>9.0</ele><time>2026-04-26T05:51:34.201Z</time></trkpt><trkpt lat="41.427955" lon="12.8804068"><ele>9.0</ele><time>2026-04-26T05:51:36.201Z</time></trkpt><trkpt lat="41.4280364" lon="12.8804191"><ele>9.0</ele><time>2026-04-26T05:51:38.202Z</time></trkpt><trkpt lat="41.4281188" lon="12.8804343"><ele>9.0</ele><time>2026-04-26T05:51:40.201Z</time></trkpt><trkpt lat="41.4282" lon="12.8804478"><ele>9.0</ele><time>2026-04-26T05:51:42.201Z</time></trkpt><trkpt lat="41.4282784" lon="12.8804633"><ele>9.0</ele><time>2026-04-26T05:51:44.201Z</time></trkpt><trkpt lat="41.4283553" lon="12.8804759"><ele>9.666666666666666</ele><time>2026-04-26T05:51:46.201Z</time></trkpt><trkpt lat="41.4284367" lon="12.8804827"><ele>10.333333333333332</ele><time>2026-04-26T05:51:48.201Z</time></trkpt><trkpt lat="41.4285194" lon="12.880475"><ele>11.0</ele><time>2026-04-26T05:51:50.201Z</time></trkpt><trkpt lat="41.4286015" lon="12.8804918"><ele>11.666666666666666</ele><time>2026-04-26T05:51:52.201Z</time></trkpt><trkpt lat="41.428679" lon="12.8805222"><ele>12.333333333333332</ele><time>2026-04-26T05:51:54.201Z</time></trkpt><trkpt lat="41.4287544" lon="12.8805616"><ele>13.0</ele><time>2026-04-26T05:51:56.201Z</time></trkpt><trkpt lat="41.4288365" lon="12.8805763"><ele>12.999999999999998</ele><time>2026-04-26T05:51:58.201Z</time></trkpt><trkpt lat="41.4289193" lon="12.8805938"><ele>13.0</ele><time>2026-04-26T05:52:00.202Z</time></trkpt><trkpt lat="41.4290014" lon="12.880609"><ele>13.0</ele><time>2026-04-26T05:52:02.201Z</time></trkpt><trkpt lat="41.4290816" lon="12.8806249"><ele>13.0</ele><time>2026-04-26T05:52:04.201Z</time></trkpt><trkpt lat="41.429162" lon="12.8806371"><ele>12.999999999999998</ele><time>2026-04-26T05:52:06.201Z</time></trkpt><trkpt lat="41.4292414" lon="12.8806503"><ele>13.0</ele><time>2026-04-26T05:52:08.201Z</time></trkpt><trkpt lat="41.4293185" lon="12.8806672"><ele>13.0</ele><time>2026-04-26T05:52:10.202Z</time></trkpt><trkpt lat="41.4293947" lon="12.8806817"><ele>13.0</ele><time>2026-04-26T05:52:12.201Z</time></trkpt><trkpt lat="41.4294651" lon="12.8806968"><ele>13.0</ele><time>2026-04-26T05:52:14.201Z</time></trkpt><trkpt lat="41.429531" lon="12.8807141"><ele>13.0</ele><time>2026-04-26T05:52:16.201Z</time></trkpt><trkpt lat="41.4295969" lon="12.8807225"><ele>13.0</ele><time>2026-04-26T05:52:18.201Z</time></trkpt><trkpt lat="41.4296655" lon="12.88073"><ele>13.0</ele><time>2026-04-26T05:52:20.201Z</time></trkpt><trkpt lat="41.429738" lon="12.8807393"><ele>13.0</ele><time>2026-04-26T05:52:22.201Z</time></trkpt><trkpt lat="41.4298157" lon="12.8807528"><ele>12.833333333333332</ele><time>2026-04-26T05:52:24.201Z</time></trkpt><trkpt lat="41.4298973" lon="12.8807649"><ele>12.666666666666666</ele><time>2026-04-26T05:52:26.201Z</time></trkpt><trkpt lat="41.4299777" lon="12.8807817"><ele>12.5</ele><time>2026-04-26T05:52:28.201Z</time></trkpt><trkpt lat="41.430056" lon="12.8807953"><ele>12.333333333333332</ele><time>2026-04-26T05:52:30.201Z</time></trkpt><trkpt lat="41.4301339" lon="12.8808113"><ele>12.166666666666666</ele><time>2026-04-26T05:52:32.202Z</time></trkpt><trkpt lat="41.4302131" lon="12.880824"><ele>12.0</ele><time>2026-04-26T05:52:34.201Z</time></trkpt><trkpt lat="41.4302928" lon="12.8808411"><ele>12.0</ele><time>2026-04-26T05:52:36.201Z</time></trkpt><trkpt lat="41.430375" lon="12.8808533"><ele>12.0</ele><time>2026-04-26T05:52:38.201Z</time></trkpt><trkpt lat="41.4304536" lon="12.8808664"><ele>12.0</ele><time>2026-04-26T05:52:40.201Z</time></trkpt><trkpt lat="41.4305325" lon="12.8808797"><ele>12.0</ele><time>2026-04-26T05:52:42.201Z</time></trkpt><trkpt lat="41.4306174" lon="12.8808944"><ele>12.0</ele><time>2026-04-26T05:52:44.201Z</time></trkpt><trkpt lat="41.430698" lon="12.8809122"><ele>12.0</ele><time>2026-04-26T05:52:46.201Z</time></trkpt><trkpt lat="41.4307798" lon="12.8809322"><ele>12.166666666666666</ele><time>2026-04-26T05:52:48.201Z</time></trkpt><trkpt lat="41.4308625" lon="12.8809497"><ele>12.333333333333332</ele><time>2026-04-26T05:52:50.201Z</time></trkpt><trkpt lat="41.4309433" lon="12.8809652"><ele>12.5</ele><time>2026-04-26T05:52:52.201Z</time></trkpt><trkpt lat="41.4310257" lon="12.8809809"><ele>12.666666666666666</ele><time>2026-04-26T05:52:54.201Z</time></trkpt><trkpt lat="41.4311071" lon="12.8809991"><ele>12.833333333333332</ele><time>2026-04-26T05:52:56.201Z</time></trkpt><trkpt lat="41.4311889" lon="12.8810114"><ele>13.0</ele><time>2026-04-26T05:52:58.201Z</time></trkpt><trkpt lat="41.4312707" lon="12.8810258"><ele>12.499999999999998</ele><time>2026-04-26T05:53:00.201Z</time></trkpt><trkpt lat="41.4313518" lon="12.8810409"><ele>12.0</ele><time>2026-04-26T05:53:02.201Z</time></trkpt><trkpt lat="41.4314302" lon="12.8810506"><ele>11.5</ele><time>2026-04-26T05:53:04.201Z</time></trkpt><trkpt lat="41.4315037" lon="12.8810652"><ele>11.0</ele><time>2026-04-26T05:53:06.201Z</time></trkpt><trkpt lat="41.4315773" lon="12.8810851"><ele>10.5</ele><time>2026-04-26T05:53:08.201Z</time></trkpt><trkpt lat="41.431657" lon="12.8810996"><ele>10.0</ele><time>2026-04-26T05:53:10.201Z</time></trkpt><trkpt lat="41.4317396" lon="12.8811167"><ele>10.0</ele><time>2026-04-26T05:53:12.201Z</time></trkpt><trkpt lat="41.4318239" lon="12.881135"><ele>10.0</ele><time>2026-04-26T05:53:14.201Z</time></trkpt><trkpt lat="41.4319144" lon="12.8811496"><ele>10.0</ele><time>2026-04-26T05:53:16.202Z</time></trkpt><trkpt lat="41.4320084" lon="12.8811667"><ele>10.0</ele><time>2026-04-26T05:53:18.201Z</time></trkpt><trkpt lat="41.4321037" lon="12.8811827"><ele>10.0</ele><time>2026-04-26T05:53:20.201Z</time></trkpt><trkpt lat="41.4322022" lon="12.8812012"><ele>9.8</ele><time>2026-04-26T05:53:22.201Z</time></trkpt><trkpt lat="41.4323029" lon="12.8812226"><ele>9.6</ele><time>2026-04-26T05:53:24.201Z</time></trkpt><trkpt lat="41.4324148" lon="12.88124"><ele>9.4</ele><time>2026-04-26T05:53:26.201Z</time></trkpt><trkpt lat="41.4325276" lon="12.88125"><ele>9.2</ele><time>2026-04-26T05:53:28.201Z</time></trkpt><trkpt lat="41.4326394" lon="12.8812735"><ele>9.0</ele><time>2026-04-26T05:53:30.201Z</time></trkpt><trkpt lat="41.4327548" lon="12.8813008"><ele>9.0</ele><time>2026-04-26T05:53:32.202Z</time></trkpt><trkpt lat="41.4328691" lon="12.8813195"><ele>9.0</ele><time>2026-04-26T05:53:34.201Z</time></trkpt><trkpt lat="41.4329348" lon="12.8813333"><ele>9.0</ele><time>2026-04-26T05:53:35.201Z</time></trkpt><trkpt lat="41.4330585" lon="12.8813633"><ele>9.0</ele><time>2026-04-26T05:53:37.201Z</time></trkpt><trkpt lat="41.4331258" lon="12.8813751"><ele>9.0</ele><time>2026-04-26T05:53:38.201Z</time></trkpt><trkpt lat="41.4332437" lon="12.8814016"><ele>8.857142857142858</ele><time>2026-04-26T05:53:40.201Z</time></trkpt><trkpt lat="41.4333106" lon="12.8814099"><ele>8.714285714285715</ele><time>2026-04-26T05:53:41.201Z</time></trkpt><trkpt lat="41.4333772" lon="12.8814215"><ele>8.571428571428571</ele><time>2026-04-26T05:53:42.201Z</time></trkpt><trkpt lat="41.4334433" lon="12.8814326"><ele>8.428571428571429</ele><time>2026-04-26T05:53:43.202Z</time></trkpt><trkpt lat="41.4335136" lon="12.881447"><ele>8.285714285714285</ele><time>2026-04-26T05:53:44.201Z</time></trkpt><trkpt lat="41.4335819" lon="12.8814683"><ele>8.142857142857142</ele><time>2026-04-26T05:53:45.201Z</time></trkpt><trkpt lat="41.4336475" lon="12.8814873"><ele>8.0</ele><time>2026-04-26T05:53:46.201Z</time></trkpt><trkpt lat="41.4337108" lon="12.8815069"><ele>8.0</ele><time>2026-04-26T05:53:47.201Z</time></trkpt><trkpt lat="41.4337798" lon="12.8815269"><ele>7.999999999999999</ele><time>2026-04-26T05:53:48.201Z</time></trkpt><trkpt lat="41.4338487" lon="12.8815456"><ele>8.0</ele><time>2026-04-26T05:53:49.201Z</time></trkpt><trkpt lat="41.4339169" lon="12.8815674"><ele>8.0</ele><time>2026-04-26T05:53:50.201Z</time></trkpt><trkpt lat="41.433983" lon="12.8815857"><ele>7.999999999999999</ele><time>2026-04-26T05:53:51.201Z</time></trkpt><trkpt lat="41.434052" lon="12.8816082"><ele>8.0</ele><time>2026-04-26T05:53:52.201Z</time></trkpt><trkpt lat="41.4341193" lon="12.8816286"><ele>8.0</ele><time>2026-04-26T05:53:53.202Z</time></trkpt><trkpt lat="41.4341911" lon="12.8816562"><ele>7.7142857142857135</ele><time>2026-04-26T05:53:54.202Z</time></trkpt><trkpt lat="41.4342616" lon="12.8816783"><ele>7.428571428571428</ele><time>2026-04-26T05:53:55.201Z</time></trkpt><trkpt lat="41.4343325" lon="12.8817036"><ele>7.142857142857142</ele><time>2026-04-26T05:53:56.201Z</time></trkpt><trkpt lat="41.4344017" lon="12.8817261"><ele>6.857142857142857</ele><time>2026-04-26T05:53:57.202Z</time></trkpt><trkpt lat="41.4344702" lon="12.8817457"><ele>6.571428571428571</ele><time>2026-04-26T05:53:58.201Z</time></trkpt><trkpt lat="41.4345364" lon="12.8817667"><ele>6.285714285714285</ele><time>2026-04-26T05:53:59.201Z</time></trkpt><trkpt lat="41.4346064" lon="12.8817904"><ele>6.0</ele><time>2026-04-26T05:54:00.201Z</time></trkpt><trkpt lat="41.4346688" lon="12.8818149"><ele>5.666666666666667</ele><time>2026-04-26T05:54:01.202Z</time></trkpt><trkpt lat="41.4347301" lon="12.8818363"><ele>5.333333333333333</ele><time>2026-04-26T05:54:02.201Z</time></trkpt><trkpt lat="41.4348491" lon="12.8818869"><ele>5.0</ele><time>2026-04-26T05:54:04.201Z</time></trkpt><trkpt lat="41.4349108" lon="12.8819081"><ele>4.666666666666666</ele><time>2026-04-26T05:54:05.201Z</time></trkpt><trkpt lat="41.4349745" lon="12.8819309"><ele>4.333333333333333</ele><time>2026-04-26T05:54:06.201Z</time></trkpt><trkpt lat="41.4350374" lon="12.8819503"><ele>4.0</ele><time>2026-04-26T05:54:07.201Z</time></trkpt><trkpt lat="41.4351022" lon="12.8819737"><ele>4.0</ele><time>2026-04-26T05:54:08.201Z</time></trkpt><trkpt lat="41.4351674" lon="12.881995"><ele>3.9999999999999996</ele><time>2026-04-26T05:54:09.201Z</time></trkpt><trkpt lat="41.4352305" lon="12.8820198"><ele>4.0</ele><time>2026-04-26T05:54:10.201Z</time></trkpt><trkpt lat="41.4352915" lon="12.8820412"><ele>4.0</ele><time>2026-04-26T05:54:11.201Z</time></trkpt><trkpt lat="41.4353552" lon="12.8820726"><ele>3.9999999999999996</ele><time>2026-04-26T05:54:12.201Z</time></trkpt><trkpt lat="41.4354192" lon="12.8820959"><ele>4.0</ele><time>2026-04-26T05:54:13.201Z</time></trkpt><trkpt lat="41.4354845" lon="12.8821177"><ele>4.0</ele><time>2026-04-26T05:54:14.202Z</time></trkpt><trkpt lat="41.4355463" lon="12.8821436"><ele>4.333333333333333</ele><time>2026-04-26T05:54:15.201Z</time></trkpt><trkpt lat="41.4356072" lon="12.8821676"><ele>4.666666666666666</ele><time>2026-04-26T05:54:16.201Z</time></trkpt><trkpt lat="41.4356717" lon="12.882186"><ele>5.0</ele><time>2026-04-26T05:54:17.201Z</time></trkpt><trkpt lat="41.4357351" lon="12.8821993"><ele>5.333333333333333</ele><time>2026-04-26T05:54:18.201Z</time></trkpt><trkpt lat="41.4358548" lon="12.8822256"><ele>5.666666666666667</ele><time>2026-04-26T05:54:20.201Z</time></trkpt><trkpt lat="41.4359558" lon="12.8823085"><ele>6.0</ele><time>2026-04-26T05:54:22.201Z</time></trkpt><trkpt lat="41.4360644" lon="12.8823792"><ele>6.0</ele><time>2026-04-26T05:54:24.201Z</time></trkpt><trkpt lat="41.4361721" lon="12.8824321"><ele>6.0</ele><time>2026-04-26T05:54:26.201Z</time></trkpt><trkpt lat="41.4362821" lon="12.8824804"><ele>6.0</ele><time>2026-04-26T05:54:28.201Z</time></trkpt><trkpt lat="41.4363937" lon="12.8825397"><ele>6.0</ele><time>2026-04-26T05:54:30.201Z</time></trkpt><trkpt lat="41.4365065" lon="12.8825929"><ele>6.75</ele><time>2026-04-26T05:54:32.201Z</time></trkpt><trkpt lat="41.4366157" lon="12.8826497"><ele>7.5</ele><time>2026-04-26T05:54:34.202Z</time></trkpt><trkpt lat="41.4367229" lon="12.8827042"><ele>8.25</ele><time>2026-04-26T05:54:36.201Z</time></trkpt><trkpt lat="41.4368285" lon="12.8827614"><ele>9.0</ele><time>2026-04-26T05:54:38.201Z</time></trkpt><trkpt lat="41.4369285" lon="12.8828177"><ele>9.0</ele><time>2026-04-26T05:54:40.201Z</time></trkpt><trkpt lat="41.437031" lon="12.8828709"><ele>9.0</ele><time>2026-04-26T05:54:42.201Z</time></trkpt><trkpt lat="41.4371288" lon="12.8829275"><ele>9.0</ele><time>2026-04-26T05:54:44.201Z</time></trkpt><trkpt lat="41.437226" lon="12.8829829"><ele>9.0</ele><time>2026-04-26T05:54:46.201Z</time></trkpt><trkpt lat="41.4373188" lon="12.883032"><ele>9.0</ele><time>2026-04-26T05:54:48.201Z</time></trkpt><trkpt lat="41.4374117" lon="12.8830884"><ele>9.5</ele><time>2026-04-26T05:54:50.201Z</time></trkpt><trkpt lat="41.4375007" lon="12.8831425"><ele>10.0</ele><time>2026-04-26T05:54:52.201Z</time></trkpt><trkpt lat="41.4375867" lon="12.8831894"><ele>10.5</ele><time>2026-04-26T05:54:54.201Z</time></trkpt><trkpt lat="41.4376732" lon="12.8832372"><ele>11.0</ele><time>2026-04-26T05:54:56.201Z</time></trkpt><trkpt lat="41.4377479" lon="12.8832816"><ele>11.5</ele><time>2026-04-26T05:54:58.201Z</time></trkpt><trkpt lat="41.4378238" lon="12.8833269"><ele>12.0</ele><time>2026-04-26T05:55:00.201Z</time></trkpt><trkpt lat="41.4378924" lon="12.8833784"><ele>12.0</ele><time>2026-04-26T05:55:02.201Z</time></trkpt><trkpt lat="41.4379581" lon="12.8834232"><ele>12.0</ele><time>2026-04-26T05:55:04.201Z</time></trkpt><trkpt lat="41.4380226" lon="12.8834575"><ele>12.0</ele><time>2026-04-26T05:55:06.201Z</time></trkpt><trkpt lat="41.4380806" lon="12.883497"><ele>12.0</ele><time>2026-04-26T05:55:08.201Z</time></trkpt><trkpt lat="41.4381649" lon="12.8835461"><ele>12.0</ele><time>2026-04-26T05:55:11.201Z</time></trkpt><trkpt lat="41.4382389" lon="12.8835913"><ele>12.0</ele><time>2026-04-26T05:55:14.201Z</time></trkpt><trkpt lat="41.4383134" lon="12.8836371"><ele>12.333333333333334</ele><time>2026-04-26T05:55:17.201Z</time></trkpt><trkpt lat="41.4383917" lon="12.8836889"><ele>12.666666666666668</ele><time>2026-04-26T05:55:20.201Z</time></trkpt><trkpt lat="41.4384752" lon="12.8837326"><ele>13.0</ele><time>2026-04-26T05:55:23.201Z</time></trkpt><trkpt lat="41.4385635" lon="12.8837816"><ele>13.333333333333334</ele><time>2026-04-26T05:55:26.201Z</time></trkpt><trkpt lat="41.4386248" lon="12.8838148"><ele>13.666666666666668</ele><time>2026-04-26T05:55:28.202Z</time></trkpt><trkpt lat="41.4386838" lon="12.8838526"><ele>14.0</ele><time>2026-04-26T05:55:30.201Z</time></trkpt><trkpt lat="41.4387419" lon="12.8838891"><ele>14.428571428571429</ele><time>2026-04-26T05:55:32.201Z</time></trkpt><trkpt lat="41.4388031" lon="12.8839202"><ele>14.857142857142858</ele><time>2026-04-26T05:55:34.201Z</time></trkpt><trkpt lat="41.4388615" lon="12.8839616"><ele>15.285714285714285</ele><time>2026-04-26T05:55:36.201Z</time></trkpt><trkpt lat="41.4389223" lon="12.8839959"><ele>15.714285714285714</ele><time>2026-04-26T05:55:38.201Z</time></trkpt><trkpt lat="41.4389789" lon="12.8840402"><ele>16.142857142857142</ele><time>2026-04-26T05:55:40.201Z</time></trkpt><trkpt lat="41.4390373" lon="12.884076"><ele>16.57142857142857</ele><time>2026-04-26T05:55:42.201Z</time></trkpt><trkpt lat="41.4391211" lon="12.884132"><ele>17.0</ele><time>2026-04-26T05:55:45.201Z</time></trkpt><trkpt lat="41.4392091" lon="12.8841703"><ele>16.999999999999996</ele><time>2026-04-26T05:55:48.201Z</time></trkpt><trkpt lat="41.4392733" lon="12.8841784"><ele>17.0</ele><time>2026-04-26T05:55:50.201Z</time></trkpt><trkpt lat="41.4393408" lon="12.8841806"><ele>17.0</ele><time>2026-04-26T05:55:52.201Z</time></trkpt><trkpt lat="41.4394082" lon="12.8841753"><ele>17.0</ele><time>2026-04-26T05:55:54.201Z</time></trkpt><trkpt lat="41.4394947" lon="12.8841459"><ele>17.0</ele><time>2026-04-26T05:55:57.201Z</time></trkpt><trkpt lat="41.439567" lon="12.8841605"><ele>16.999999999999996</ele><time>2026-04-26T05:56:00.201Z</time></trkpt><trkpt lat="41.4396292" lon="12.8842157"><ele>17.0</ele><time>2026-04-26T05:56:03.201Z</time></trkpt><trkpt lat="41.4396488" lon="12.8843129"><ele>17.666666666666668</ele><time>2026-04-26T05:56:06.201Z</time></trkpt><trkpt lat="41.4396921" lon="12.884402"><ele>18.333333333333336</ele><time>2026-04-26T05:56:09.201Z</time></trkpt><trkpt lat="41.439755" lon="12.8844836"><ele>19.0</ele><time>2026-04-26T05:56:12.201Z</time></trkpt><trkpt lat="41.4398331" lon="12.8845469"><ele>19.666666666666668</ele><time>2026-04-26T05:56:15.201Z</time></trkpt><trkpt lat="41.4398928" lon="12.8845782"><ele>20.333333333333332</ele><time>2026-04-26T05:56:17.201Z</time></trkpt><trkpt lat="41.4399539" lon="12.8846092"><ele>21.0</ele><time>2026-04-26T05:56:19.201Z</time></trkpt><trkpt lat="41.4400147" lon="12.8846418"><ele>21.0</ele><time>2026-04-26T05:56:21.201Z</time></trkpt><trkpt lat="41.4400756" lon="12.8846763"><ele>21.0</ele><time>2026-04-26T05:56:23.201Z</time></trkpt><trkpt lat="41.4401402" lon="12.8847025"><ele>21.0</ele><time>2026-04-26T05:56:25.201Z</time></trkpt><trkpt lat="41.4402315" lon="12.8847208"><ele>21.0</ele><time>2026-04-26T05:56:28.201Z</time></trkpt><trkpt lat="41.4403011" lon="12.884769"><ele>21.0</ele><time>2026-04-26T05:56:31.201Z</time></trkpt><trkpt lat="41.4403556" lon="12.8848428"><ele>21.0</ele><time>2026-04-26T05:56:34.201Z</time></trkpt><trkpt lat="41.4404278" lon="12.8848975"><ele>21.0</ele><time>2026-04-26T05:56:37.201Z</time></trkpt><trkpt lat="41.4404934" lon="12.8849383"><ele>21.0</ele><time>2026-04-26T05:56:39.202Z</time></trkpt><trkpt lat="41.440561" lon="12.8849692"><ele>21.0</ele><time>2026-04-26T05:56:41.202Z</time></trkpt><trkpt lat="41.440623" lon="12.885003"><ele>21.0</ele><time>2026-04-26T05:56:43.201Z</time></trkpt><trkpt lat="41.4406916" lon="12.8850463"><ele>21.0</ele><time>2026-04-26T05:56:45.201Z</time></trkpt><trkpt lat="41.440766" lon="12.8850906"><ele>21.0</ele><time>2026-04-26T05:56:47.201Z</time></trkpt><trkpt lat="41.4408366" lon="12.8851283"><ele>21.0</ele><time>2026-04-26T05:56:49.201Z</time></trkpt><trkpt lat="41.4409056" lon="12.8851692"><ele>21.0</ele><time>2026-04-26T05:56:51.201Z</time></trkpt><trkpt lat="41.4409735" lon="12.8852089"><ele>21.0</ele><time>2026-04-26T05:56:53.201Z</time></trkpt><trkpt lat="41.4410416" lon="12.8852521"><ele>21.0</ele><time>2026-04-26T05:56:55.201Z</time></trkpt><trkpt lat="41.441112" lon="12.8852934"><ele>21.0</ele><time>2026-04-26T05:56:57.202Z</time></trkpt><trkpt lat="41.4411821" lon="12.8853389"><ele>21.0</ele><time>2026-04-26T05:56:59.201Z</time></trkpt><trkpt lat="41.4412534" lon="12.8853831"><ele>21.0</ele><time>2026-04-26T05:57:01.201Z</time></trkpt><trkpt lat="41.4413306" lon="12.8854352"><ele>21.0</ele><time>2026-04-26T05:57:03.201Z</time></trkpt><trkpt lat="41.4414117" lon="12.8854847"><ele>21.0</ele><time>2026-04-26T05:57:05.201Z</time></trkpt><trkpt lat="41.4414956" lon="12.8855353"><ele>21.0</ele><time>2026-04-26T05:57:07.201Z</time></trkpt><trkpt lat="41.4415792" lon="12.8855816"><ele>21.0</ele><time>2026-04-26T05:57:09.202Z</time></trkpt><trkpt lat="41.4416571" lon="12.8856315"><ele>21.0</ele><time>2026-04-26T05:57:11.201Z</time></trkpt><trkpt lat="41.4417401" lon="12.8856806"><ele>21.0</ele><time>2026-04-26T05:57:13.201Z</time></trkpt><trkpt lat="41.4418199" lon="12.8857296"><ele>21.0</ele><time>2026-04-26T05:57:15.202Z</time></trkpt><trkpt lat="41.4418989" lon="12.8857764"><ele>21.0</ele><time>2026-04-26T05:57:17.201Z</time></trkpt><trkpt lat="41.4419777" lon="12.8858218"><ele>21.0</ele><time>2026-04-26T05:57:19.201Z</time></trkpt><trkpt lat="41.4420588" lon="12.8858662"><ele>21.0</ele><time>2026-04-26T05:57:21.202Z</time></trkpt><trkpt lat="41.4421408" lon="12.8859123"><ele>21.0</ele><time>2026-04-26T05:57:23.201Z</time></trkpt><trkpt lat="41.4422199" lon="12.885966"><ele>21.0</ele><time>2026-04-26T05:57:25.201Z</time></trkpt><trkpt lat="41.4422968" lon="12.8860168"><ele>21.333333333333332</ele><time>2026-04-26T05:57:27.201Z</time></trkpt><trkpt lat="41.4423728" lon="12.8860631"><ele>21.666666666666668</ele><time>2026-04-26T05:57:29.201Z</time></trkpt><trkpt lat="41.4424547" lon="12.8861105"><ele>22.0</ele><time>2026-04-26T05:57:31.202Z</time></trkpt><trkpt lat="41.4425339" lon="12.8861592"><ele>22.333333333333336</ele><time>2026-04-26T05:57:33.201Z</time></trkpt><trkpt lat="41.4426133" lon="12.8862123"><ele>22.666666666666668</ele><time>2026-04-26T05:57:35.202Z</time></trkpt><trkpt lat="41.4426884" lon="12.8862626"><ele>23.0</ele><time>2026-04-26T05:57:37.202Z</time></trkpt><trkpt lat="41.4427634" lon="12.8863101"><ele>23.0</ele><time>2026-04-26T05:57:39.201Z</time></trkpt><trkpt lat="41.442838" lon="12.8863579"><ele>23.0</ele><time>2026-04-26T05:57:41.201Z</time></trkpt><trkpt lat="41.4429156" lon="12.8864065"><ele>23.0</ele><time>2026-04-26T05:57:43.201Z</time></trkpt><trkpt lat="41.4429975" lon="12.8864529"><ele>23.0</ele><time>2026-04-26T05:57:45.203Z</time></trkpt><trkpt lat="41.4430827" lon="12.8864989"><ele>23.0</ele><time>2026-04-26T05:57:47.201Z</time></trkpt><trkpt lat="41.4431665" lon="12.8865428"><ele>23.0</ele><time>2026-04-26T05:57:49.201Z</time></trkpt><trkpt lat="41.4432508" lon="12.8865898"><ele>23.2</ele><time>2026-04-26T05:57:51.201Z</time></trkpt><trkpt lat="41.4433349" lon="12.8866407"><ele>23.4</ele><time>2026-04-26T05:57:53.201Z</time></trkpt><trkpt lat="41.4434201" lon="12.8866933"><ele>23.599999999999998</ele><time>2026-04-26T05:57:55.201Z</time></trkpt><trkpt lat="41.4435101" lon="12.8867472"><ele>23.799999999999997</ele><time>2026-04-26T05:57:57.201Z</time></trkpt><trkpt lat="41.4436047" lon="12.886806"><ele>24.0</ele><time>2026-04-26T05:57:59.202Z</time></trkpt><trkpt lat="41.4437011" lon="12.886864"><ele>23.799999999999997</ele><time>2026-04-26T05:58:01.201Z</time></trkpt><trkpt lat="41.443797" lon="12.8869213"><ele>23.599999999999998</ele><time>2026-04-26T05:58:03.201Z</time></trkpt><trkpt lat="41.4438948" lon="12.8869786"><ele>23.4</ele><time>2026-04-26T05:58:05.201Z</time></trkpt><trkpt lat="41.4439946" lon="12.8870428"><ele>23.2</ele><time>2026-04-26T05:58:07.201Z</time></trkpt><trkpt lat="41.4440954" lon="12.8871047"><ele>23.0</ele><time>2026-04-26T05:58:09.201Z</time></trkpt><trkpt lat="41.4441961" lon="12.8871612"><ele>23.0</ele><time>2026-04-26T05:58:11.201Z</time></trkpt><trkpt lat="41.4442951" lon="12.887216"><ele>23.0</ele><time>2026-04-26T05:58:13.201Z</time></trkpt><trkpt lat="41.4443934" lon="12.8872754"><ele>23.0</ele><time>2026-04-26T05:58:15.201Z</time></trkpt><trkpt lat="41.4444874" lon="12.8873322"><ele>23.0</ele><time>2026-04-26T05:58:17.201Z</time></trkpt><trkpt lat="41.4445753" lon="12.8873877"><ele>23.0</ele><time>2026-04-26T05:58:19.203Z</time></trkpt><trkpt lat="41.444659" lon="12.8874289"><ele>22.833333333333336</ele><time>2026-04-26T05:58:21.201Z</time></trkpt><trkpt lat="41.4447313" lon="12.8874743"><ele>22.666666666666668</ele><time>2026-04-26T05:58:23.201Z</time></trkpt><trkpt lat="41.4448047" lon="12.8875172"><ele>22.5</ele><time>2026-04-26T05:58:25.201Z</time></trkpt><trkpt lat="41.4448723" lon="12.8875579"><ele>22.333333333333332</ele><time>2026-04-26T05:58:27.201Z</time></trkpt><trkpt lat="41.4449382" lon="12.8875987"><ele>22.166666666666664</ele><time>2026-04-26T05:58:29.201Z</time></trkpt><trkpt lat="41.4449954" lon="12.887657"><ele>22.0</ele><time>2026-04-26T05:58:32.201Z</time></trkpt><trkpt lat="41.4450658" lon="12.8877091"><ele>22.0</ele><time>2026-04-26T05:58:35.201Z</time></trkpt><trkpt lat="41.4450965" lon="12.8877884"><ele>22.0</ele><time>2026-04-26T05:58:37.201Z</time></trkpt><trkpt lat="41.4451501" lon="12.8878584"><ele>22.0</ele><time>2026-04-26T05:58:39.202Z</time></trkpt><trkpt lat="41.4452213" lon="12.8879103"><ele>22.0</ele><time>2026-04-26T05:58:41.202Z</time></trkpt><trkpt lat="41.4453016" lon="12.8879597"><ele>22.0</ele><time>2026-04-26T05:58:43.201Z</time></trkpt><trkpt lat="41.4453821" lon="12.8880106"><ele>22.0</ele><time>2026-04-26T05:58:45.202Z</time></trkpt><trkpt lat="41.4454663" lon="12.8880532"><ele>22.400000000000002</ele><time>2026-04-26T05:58:47.201Z</time></trkpt><trkpt lat="41.4455482" lon="12.8880998"><ele>22.8</ele><time>2026-04-26T05:58:49.201Z</time></trkpt><trkpt lat="41.4456299" lon="12.8881528"><ele>23.2</ele><time>2026-04-26T05:58:51.201Z</time></trkpt><trkpt lat="41.4457154" lon="12.8882078"><ele>23.6</ele><time>2026-04-26T05:58:53.201Z</time></trkpt><trkpt lat="41.4457999" lon="12.8882734"><ele>24.0</ele><time>2026-04-26T05:58:55.201Z</time></trkpt><trkpt lat="41.4458827" lon="12.8883286"><ele>24.0</ele><time>2026-04-26T05:58:57.201Z</time></trkpt><trkpt lat="41.4459714" lon="12.8883603"><ele>24.0</ele><time>2026-04-26T05:58:59.201Z</time></trkpt><trkpt lat="41.4460584" lon="12.8884039"><ele>24.0</ele><time>2026-04-26T05:59:01.201Z</time></trkpt><trkpt lat="41.4461272" lon="12.8884817"><ele>24.0</ele><time>2026-04-26T05:59:03.201Z</time></trkpt><trkpt lat="41.4462108" lon="12.8885174"><ele>24.0</ele><time>2026-04-26T05:59:05.201Z</time></trkpt><trkpt lat="41.4463031" lon="12.8885402"><ele>23.6</ele><time>2026-04-26T05:59:07.202Z</time></trkpt><trkpt lat="41.4463892" lon="12.8885823"><ele>23.2</ele><time>2026-04-26T05:59:09.202Z</time></trkpt><trkpt lat="41.4464707" lon="12.888635"><ele>22.8</ele><time>2026-04-26T05:59:11.201Z</time></trkpt><trkpt lat="41.4465535" lon="12.8886942"><ele>22.400000000000002</ele><time>2026-04-26T05:59:13.202Z</time></trkpt><trkpt lat="41.446627" lon="12.8887624"><ele>22.0</ele><time>2026-04-26T05:59:15.201Z</time></trkpt><trkpt lat="41.4467087" lon="12.8888187"><ele>22.0</ele><time>2026-04-26T05:59:17.201Z</time></trkpt><trkpt lat="41.4467921" lon="12.8888647"><ele>22.0</ele><time>2026-04-26T05:59:19.201Z</time></trkpt><trkpt lat="41.4468729" lon="12.8889072"><ele>22.0</ele><time>2026-04-26T05:59:21.201Z</time></trkpt><trkpt lat="41.4469487" lon="12.8889576"><ele>22.0</ele><time>2026-04-26T05:59:23.201Z</time></trkpt><trkpt lat="41.4470174" lon="12.8890227"><ele>22.0</ele><time>2026-04-26T05:59:25.201Z</time></trkpt><trkpt lat="41.4470732" lon="12.8891057"><ele>22.0</ele><time>2026-04-26T05:59:27.201Z</time></trkpt><trkpt lat="41.4471287" lon="12.8891791"><ele>22.166666666666664</ele><time>2026-04-26T05:59:29.201Z</time></trkpt><trkpt lat="41.4471743" lon="12.8892625"><ele>22.333333333333332</ele><time>2026-04-26T05:59:31.201Z</time></trkpt><trkpt lat="41.4472128" lon="12.8893614"><ele>22.5</ele><time>2026-04-26T05:59:33.202Z</time></trkpt><trkpt lat="41.4472754" lon="12.8894446"><ele>22.666666666666668</ele><time>2026-04-26T05:59:35.201Z</time></trkpt><trkpt lat="41.4473478" lon="12.889508"><ele>22.833333333333336</ele><time>2026-04-26T05:59:37.201Z</time></trkpt><trkpt lat="41.4474419" lon="12.8895369"><ele>23.0</ele><time>2026-04-26T05:59:39.202Z</time></trkpt><trkpt lat="41.4475381" lon="12.8895184"><ele>23.0</ele><time>2026-04-26T05:59:41.202Z</time></trkpt><trkpt lat="41.4476383" lon="12.8894865"><ele>23.0</ele><time>2026-04-26T05:59:43.201Z</time></trkpt><trkpt lat="41.4477169" lon="12.8895042"><ele>23.0</ele><time>2026-04-26T05:59:45.201Z</time></trkpt><trkpt lat="41.447771" lon="12.8895888"><ele>23.0</ele><time>2026-04-26T05:59:47.201Z</time></trkpt><trkpt lat="41.4478424" lon="12.8896174"><ele>23.0</ele><time>2026-04-26T05:59:49.202Z</time></trkpt><trkpt lat="41.447923" lon="12.8896281"><ele>23.0</ele><time>2026-04-26T05:59:51.202Z</time></trkpt><trkpt lat="41.4480127" lon="12.8896383"><ele>23.2</ele><time>2026-04-26T05:59:53.202Z</time></trkpt><trkpt lat="41.4481026" lon="12.8896516"><ele>23.4</ele><time>2026-04-26T05:59:55.201Z</time></trkpt><trkpt lat="41.4481918" lon="12.8896947"><ele>23.599999999999998</ele><time>2026-04-26T05:59:57.201Z</time></trkpt><trkpt lat="41.4482817" lon="12.8897396"><ele>23.799999999999997</ele><time>2026-04-26T05:59:59.202Z</time></trkpt><trkpt lat="41.4483659" lon="12.8897871"><ele>24.0</ele><time>2026-04-26T06:00:01.201Z</time></trkpt><trkpt lat="41.4484494" lon="12.8898585"><ele>24.0</ele><time>2026-04-26T06:00:03.201Z</time></trkpt><trkpt lat="41.4485407" lon="12.8899157"><ele>24.0</ele><time>2026-04-26T06:00:05.201Z</time></trkpt><trkpt lat="41.4486227" lon="12.8899823"><ele>24.0</ele><time>2026-04-26T06:00:07.202Z</time></trkpt><trkpt lat="41.4487179" lon="12.8900132"><ele>24.0</ele><time>2026-04-26T06:00:09.201Z</time></trkpt><trkpt lat="41.4488102" lon="12.8900602"><ele>24.0</ele><time>2026-04-26T06:00:11.201Z</time></trkpt><trkpt lat="41.4488968" lon="12.8901207"><ele>23.6</ele><time>2026-04-26T06:00:13.201Z</time></trkpt><trkpt lat="41.4489833" lon="12.8901736"><ele>23.2</ele><time>2026-04-26T06:00:15.201Z</time></trkpt><trkpt lat="41.4490735" lon="12.8902206"><ele>22.8</ele><time>2026-04-26T06:00:17.201Z</time></trkpt><trkpt lat="41.4491638" lon="12.8902642"><ele>22.400000000000002</ele><time>2026-04-26T06:00:19.201Z</time></trkpt><trkpt lat="41.4492455" lon="12.8903046"><ele>22.0</ele><time>2026-04-26T06:00:21.201Z</time></trkpt><trkpt lat="41.4493319" lon="12.8903494"><ele>22.0</ele><time>2026-04-26T06:00:23.201Z</time></trkpt><trkpt lat="41.4494186" lon="12.890401"><ele>22.0</ele><time>2026-04-26T06:00:25.201Z</time></trkpt><trkpt lat="41.4495042" lon="12.8904525"><ele>22.0</ele><time>2026-04-26T06:00:27.201Z</time></trkpt><trkpt lat="41.4495875" lon="12.890502"><ele>22.0</ele><time>2026-04-26T06:00:29.201Z</time></trkpt><trkpt lat="41.4496741" lon="12.8905493"><ele>22.0</ele><time>2026-04-26T06:00:31.201Z</time></trkpt><trkpt lat="41.4497603" lon="12.8905995"><ele>22.166666666666664</ele><time>2026-04-26T06:00:33.201Z</time></trkpt><trkpt lat="41.449848" lon="12.8906446"><ele>22.333333333333332</ele><time>2026-04-26T06:00:35.201Z</time></trkpt><trkpt lat="41.4499338" lon="12.8906912"><ele>22.5</ele><time>2026-04-26T06:00:37.201Z</time></trkpt><trkpt lat="41.4500071" lon="12.8907406"><ele>22.666666666666668</ele><time>2026-04-26T06:00:39.201Z</time></trkpt><trkpt lat="41.4500673" lon="12.8907965"><ele>22.833333333333336</ele><time>2026-04-26T06:00:41.201Z</time></trkpt><trkpt lat="41.4501377" lon="12.8908205"><ele>23.0</ele><time>2026-04-26T06:00:43.201Z</time></trkpt><trkpt lat="41.4502044" lon="12.8908622"><ele>23.0</ele><time>2026-04-26T06:00:45.201Z</time></trkpt><trkpt lat="41.4502743" lon="12.8909165"><ele>23.0</ele><time>2026-04-26T06:00:47.202Z</time></trkpt><trkpt lat="41.4503513" lon="12.8909657"><ele>23.0</ele><time>2026-04-26T06:00:49.201Z</time></trkpt><trkpt lat="41.4504306" lon="12.8910148"><ele>23.0</ele><time>2026-04-26T06:00:51.202Z</time></trkpt><trkpt lat="41.4505111" lon="12.8910642"><ele>23.0</ele><time>2026-04-26T06:00:53.201Z</time></trkpt><trkpt lat="41.4505937" lon="12.891105"><ele>23.0</ele><time>2026-04-26T06:00:55.201Z</time></trkpt><trkpt lat="41.4506751" lon="12.8911435"><ele>23.166666666666668</ele><time>2026-04-26T06:00:57.201Z</time></trkpt><trkpt lat="41.4507573" lon="12.891178"><ele>23.333333333333336</ele><time>2026-04-26T06:00:59.201Z</time></trkpt><trkpt lat="41.4508388" lon="12.8912062"><ele>23.5</ele><time>2026-04-26T06:01:01.202Z</time></trkpt><trkpt lat="41.4509199" lon="12.8912517"><ele>23.666666666666668</ele><time>2026-04-26T06:01:03.201Z</time></trkpt><trkpt lat="41.4509884" lon="12.8913111"><ele>23.833333333333332</ele><time>2026-04-26T06:01:05.201Z</time></trkpt><trkpt lat="41.4510616" lon="12.8913525"><ele>24.0</ele><time>2026-04-26T06:01:07.201Z</time></trkpt><trkpt lat="41.4511246" lon="12.8914011"><ele>24.0</ele><time>2026-04-26T06:01:09.201Z</time></trkpt><trkpt lat="41.4511973" lon="12.8914448"><ele>24.0</ele><time>2026-04-26T06:01:11.201Z</time></trkpt><trkpt lat="41.4512692" lon="12.8914953"><ele>24.0</ele><time>2026-04-26T06:01:13.201Z</time></trkpt><trkpt lat="41.4513386" lon="12.8915325"><ele>24.0</ele><time>2026-04-26T06:01:15.203Z</time></trkpt><trkpt lat="41.4514195" lon="12.8915828"><ele>24.0</ele><time>2026-04-26T06:01:18.202Z</time></trkpt><trkpt lat="41.4514817" lon="12.8916027"><ele>24.0</ele><time>2026-04-26T06:01:20.202Z</time></trkpt><trkpt lat="41.4515679" lon="12.8916352"><ele>24.0</ele><time>2026-04-26T06:01:23.201Z</time></trkpt><trkpt lat="41.4516311" lon="12.8916762"><ele>24.0</ele><time>2026-04-26T06:01:25.201Z</time></trkpt><trkpt lat="41.4517058" lon="12.8917127"><ele>24.0</ele><time>2026-04-26T06:01:27.201Z</time></trkpt><trkpt lat="41.4517864" lon="12.8917461"><ele>24.0</ele><time>2026-04-26T06:01:29.201Z</time></trkpt><trkpt lat="41.4518659" lon="12.8917942"><ele>24.0</ele><time>2026-04-26T06:01:31.202Z</time></trkpt><trkpt lat="41.4519446" lon="12.8918333"><ele>24.0</ele><time>2026-04-26T06:01:33.201Z</time></trkpt><trkpt lat="41.452031" lon="12.8918783"><ele>24.0</ele><time>2026-04-26T06:01:35.201Z</time></trkpt><trkpt lat="41.4521078" lon="12.8919399"><ele>24.0</ele><time>2026-04-26T06:01:37.202Z</time></trkpt><trkpt lat="41.4521848" lon="12.8919839"><ele>24.0</ele><time>2026-04-26T06:01:39.201Z</time></trkpt><trkpt lat="41.4522504" lon="12.8920315"><ele>24.0</ele><time>2026-04-26T06:01:41.201Z</time></trkpt><trkpt lat="41.4523346" lon="12.8920369"><ele>24.0</ele><time>2026-04-26T06:01:44.201Z</time></trkpt><trkpt lat="41.4523983" lon="12.8919633"><ele>24.0</ele><time>2026-04-26T06:01:47.201Z</time></trkpt><trkpt lat="41.4524173" lon="12.8918735"><ele>23.799999999999997</ele><time>2026-04-26T06:01:49.201Z</time></trkpt><trkpt lat="41.4524257" lon="12.8917696"><ele>23.599999999999998</ele><time>2026-04-26T06:01:51.201Z</time></trkpt><trkpt lat="41.4524613" lon="12.8916646"><ele>23.4</ele><time>2026-04-26T06:01:53.201Z</time></trkpt><trkpt lat="41.4525038" lon="12.891549"><ele>23.2</ele><time>2026-04-26T06:01:55.201Z</time></trkpt><trkpt lat="41.4525441" lon="12.8914289"><ele>23.0</ele><time>2026-04-26T06:01:57.201Z</time></trkpt><trkpt lat="41.4525948" lon="12.8913205"><ele>23.0</ele><time>2026-04-26T06:01:59.201Z</time></trkpt><trkpt lat="41.4526449" lon="12.8912063"><ele>23.0</ele><time>2026-04-26T06:02:01.201Z</time></trkpt><trkpt lat="41.4526881" lon="12.8910855"><ele>23.0</ele><time>2026-04-26T06:02:03.201Z</time></trkpt><trkpt lat="41.4527254" lon="12.8909712"><ele>23.0</ele><time>2026-04-26T06:02:05.201Z</time></trkpt><trkpt lat="41.4527576" lon="12.8908506"><ele>23.0</ele><time>2026-04-26T06:02:07.201Z</time></trkpt><trkpt lat="41.4527937" lon="12.8907353"><ele>23.166666666666668</ele><time>2026-04-26T06:02:09.202Z</time></trkpt><trkpt lat="41.4528307" lon="12.8906217"><ele>23.333333333333336</ele><time>2026-04-26T06:02:11.201Z</time></trkpt><trkpt lat="41.4528665" lon="12.8905112"><ele>23.5</ele><time>2026-04-26T06:02:13.202Z</time></trkpt><trkpt lat="41.4529054" lon="12.890406"><ele>23.666666666666668</ele><time>2026-04-26T06:02:15.202Z</time></trkpt><trkpt lat="41.4529408" lon="12.8902952"><ele>23.833333333333332</ele><time>2026-04-26T06:02:17.201Z</time></trkpt><trkpt lat="41.4529767" lon="12.8901912"><ele>24.0</ele><time>2026-04-26T06:02:19.201Z</time></trkpt><trkpt lat="41.4530093" lon="12.8900859"><ele>24.0</ele><time>2026-04-26T06:02:21.201Z</time></trkpt><trkpt lat="41.4530424" lon="12.8899783"><ele>24.0</ele><time>2026-04-26T06:02:23.201Z</time></trkpt><trkpt lat="41.453075" lon="12.8898694"><ele>24.0</ele><time>2026-04-26T06:02:25.201Z</time></trkpt><trkpt lat="41.4531118" lon="12.8897632"><ele>24.0</ele><time>2026-04-26T06:02:27.201Z</time></trkpt><trkpt lat="41.4531459" lon="12.889654"><ele>24.0</ele><time>2026-04-26T06:02:29.201Z</time></trkpt><trkpt lat="41.4531791" lon="12.8895491"><ele>24.0</ele><time>2026-04-26T06:02:31.201Z</time></trkpt><trkpt lat="41.453213" lon="12.8894425"><ele>24.0</ele><time>2026-04-26T06:02:33.201Z</time></trkpt><trkpt lat="41.4532454" lon="12.8893362"><ele>24.0</ele><time>2026-04-26T06:02:35.201Z</time></trkpt><trkpt lat="41.4532751" lon="12.8892278"><ele>24.0</ele><time>2026-04-26T06:02:37.201Z</time></trkpt><trkpt lat="41.4533059" lon="12.8891188"><ele>24.0</ele><time>2026-04-26T06:02:39.201Z</time></trkpt><trkpt lat="41.4533323" lon="12.8890128"><ele>24.0</ele><time>2026-04-26T06:02:41.202Z</time></trkpt><trkpt lat="41.4533608" lon="12.8889128"><ele>24.0</ele><time>2026-04-26T06:02:43.202Z</time></trkpt><trkpt lat="41.4533946" lon="12.8888121"><ele>24.333333333333332</ele><time>2026-04-26T06:02:45.201Z</time></trkpt><trkpt lat="41.4534272" lon="12.8887066"><ele>24.666666666666664</ele><time>2026-04-26T06:02:47.201Z</time></trkpt><trkpt lat="41.4534647" lon="12.8885997"><ele>25.0</ele><time>2026-04-26T06:02:49.201Z</time></trkpt><trkpt lat="41.4535002" lon="12.8884931"><ele>25.333333333333332</ele><time>2026-04-26T06:02:51.201Z</time></trkpt><trkpt lat="41.4535327" lon="12.8883838"><ele>25.666666666666664</ele><time>2026-04-26T06:02:53.201Z</time></trkpt><trkpt lat="41.4535648" lon="12.8882844"><ele>26.0</ele><time>2026-04-26T06:02:55.201Z</time></trkpt><trkpt lat="41.4536078" lon="12.8882118"><ele>25.999999999999996</ele><time>2026-04-26T06:02:57.201Z</time></trkpt><trkpt lat="41.4536739" lon="12.8882291"><ele>26.0</ele><time>2026-04-26T06:02:59.201Z</time></trkpt><trkpt lat="41.4537366" lon="12.8882913"><ele>26.0</ele><time>2026-04-26T06:03:01.201Z</time></trkpt><trkpt lat="41.4538117" lon="12.8883442"><ele>26.0</ele><time>2026-04-26T06:03:03.201Z</time></trkpt><trkpt lat="41.4538869" lon="12.8883952"><ele>25.999999999999996</ele><time>2026-04-26T06:03:05.201Z</time></trkpt><trkpt lat="41.45396" lon="12.8884561"><ele>26.0</ele><time>2026-04-26T06:03:07.201Z</time></trkpt><trkpt lat="41.4540314" lon="12.8885258"><ele>25.999999999999996</ele><time>2026-04-26T06:03:09.202Z</time></trkpt><trkpt lat="41.4541065" lon="12.8885872"><ele>26.0</ele><time>2026-04-26T06:03:11.201Z</time></trkpt><trkpt lat="41.454183" lon="12.8886269"><ele>26.0</ele><time>2026-04-26T06:03:13.201Z</time></trkpt><trkpt lat="41.4542529" lon="12.8886837"><ele>26.0</ele><time>2026-04-26T06:03:15.201Z</time></trkpt><trkpt lat="41.4543193" lon="12.8887513"><ele>25.999999999999996</ele><time>2026-04-26T06:03:17.201Z</time></trkpt><trkpt lat="41.45439" lon="12.8888095"><ele>26.0</ele><time>2026-04-26T06:03:19.201Z</time></trkpt><trkpt lat="41.4544567" lon="12.8888789"><ele>25.999999999999996</ele><time>2026-04-26T06:03:21.202Z</time></trkpt><trkpt lat="41.4545307" lon="12.8889402"><ele>26.0</ele><time>2026-04-26T06:03:23.201Z</time></trkpt><trkpt lat="41.4546068" lon="12.8889956"><ele>26.0</ele><time>2026-04-26T06:03:25.201Z</time></trkpt><trkpt lat="41.4546785" lon="12.8890563"><ele>26.0</ele><time>2026-04-26T06:03:27.201Z</time></trkpt><trkpt lat="41.4547527" lon="12.8891096"><ele>25.999999999999996</ele><time>2026-04-26T06:03:29.201Z</time></trkpt><trkpt lat="41.4548258" lon="12.8891676"><ele>26.0</ele><time>2026-04-26T06:03:31.201Z</time></trkpt><trkpt lat="41.4548956" lon="12.8892309"><ele>25.999999999999996</ele><time>2026-04-26T06:03:33.201Z</time></trkpt><trkpt lat="41.4549679" lon="12.8892901"><ele>26.0</ele><time>2026-04-26T06:03:35.201Z</time></trkpt><trkpt lat="41.4550365" lon="12.8893557"><ele>26.0</ele><time>2026-04-26T06:03:37.201Z</time></trkpt><trkpt lat="41.4551098" lon="12.889416"><ele>26.0</ele><time>2026-04-26T06:03:39.201Z</time></trkpt><trkpt lat="41.4551824" lon="12.8894822"><ele>25.999999999999996</ele><time>2026-04-26T06:03:41.201Z</time></trkpt><trkpt lat="41.4552577" lon="12.889541"><ele>26.0</ele><time>2026-04-26T06:03:43.201Z</time></trkpt><trkpt lat="41.4553309" lon="12.889604"><ele>25.999999999999996</ele><time>2026-04-26T06:03:45.202Z</time></trkpt><trkpt lat="41.4553995" lon="12.889662"><ele>26.0</ele><time>2026-04-26T06:03:47.201Z</time></trkpt><trkpt lat="41.4554664" lon="12.8896952"><ele>26.0</ele><time>2026-04-26T06:03:49.202Z</time></trkpt><trkpt lat="41.4555379" lon="12.8896718"><ele>26.0</ele><time>2026-04-26T06:03:51.201Z</time></trkpt><trkpt lat="41.4555956" lon="12.8895984"><ele>25.999999999999996</ele><time>2026-04-26T06:03:53.201Z</time></trkpt><trkpt lat="41.4556509" lon="12.8895108"><ele>26.0</ele><time>2026-04-26T06:03:55.201Z</time></trkpt><trkpt lat="41.4557047" lon="12.8894257"><ele>26.0</ele><time>2026-04-26T06:03:57.201Z</time></trkpt><trkpt lat="41.455763" lon="12.8893397"><ele>26.0</ele><time>2026-04-26T06:03:59.201Z</time></trkpt><trkpt lat="41.4558222" lon="12.8892528"><ele>26.0</ele><time>2026-04-26T06:04:01.201Z</time></trkpt><trkpt lat="41.455893" lon="12.8891526"><ele>26.0</ele><time>2026-04-26T06:04:03.201Z</time></trkpt><trkpt lat="41.4559903" lon="12.8890722"><ele>26.0</ele><time>2026-04-26T06:04:05.202Z</time></trkpt><trkpt lat="41.4560991" lon="12.8890045"><ele>26.200000000000003</ele><time>2026-04-26T06:04:07.201Z</time></trkpt><trkpt lat="41.4562138" lon="12.8889561"><ele>26.400000000000002</ele><time>2026-04-26T06:04:09.201Z</time></trkpt><trkpt lat="41.4563072" lon="12.8888704"><ele>26.6</ele><time>2026-04-26T06:04:11.202Z</time></trkpt><trkpt lat="41.4563621" lon="12.8887471"><ele>26.8</ele><time>2026-04-26T06:04:13.201Z</time></trkpt><trkpt lat="41.4563802" lon="12.8886073"><ele>27.0</ele><time>2026-04-26T06:04:15.201Z</time></trkpt><trkpt lat="41.456377" lon="12.8884545"><ele>27.0</ele><time>2026-04-26T06:04:17.201Z</time></trkpt><trkpt lat="41.4563746" lon="12.8883043"><ele>27.0</ele><time>2026-04-26T06:04:19.201Z</time></trkpt><trkpt lat="41.4563743" lon="12.888159"><ele>27.0</ele><time>2026-04-26T06:04:21.201Z</time></trkpt><trkpt lat="41.4564034" lon="12.8880119"><ele>27.0</ele><time>2026-04-26T06:04:23.201Z</time></trkpt><trkpt lat="41.456449" lon="12.8878684"><ele>27.0</ele><time>2026-04-26T06:04:25.201Z</time></trkpt><trkpt lat="41.4564972" lon="12.8877361"><ele>27.000000000000004</ele><time>2026-04-26T06:04:27.202Z</time></trkpt><trkpt lat="41.4565541" lon="12.8876115"><ele>27.000000000000004</ele><time>2026-04-26T06:04:29.201Z</time></trkpt><trkpt lat="41.4566065" lon="12.887479"><ele>27.0</ele><time>2026-04-26T06:04:31.202Z</time></trkpt><trkpt lat="41.4566549" lon="12.8873487"><ele>27.0</ele><time>2026-04-26T06:04:33.201Z</time></trkpt><trkpt lat="41.4567091" lon="12.887219"><ele>26.400000000000002</ele><time>2026-04-26T06:04:35.202Z</time></trkpt><trkpt lat="41.4567523" lon="12.8870878"><ele>25.800000000000004</ele><time>2026-04-26T06:04:37.201Z</time></trkpt><trkpt lat="41.4567972" lon="12.8869564"><ele>25.2</ele><time>2026-04-26T06:04:39.202Z</time></trkpt><trkpt lat="41.4568425" lon="12.8868213"><ele>24.6</ele><time>2026-04-26T06:04:41.201Z</time></trkpt><trkpt lat="41.4568878" lon="12.8866961"><ele>24.0</ele><time>2026-04-26T06:04:43.201Z</time></trkpt><trkpt lat="41.4569334" lon="12.8865638"><ele>23.799999999999997</ele><time>2026-04-26T06:04:45.201Z</time></trkpt><trkpt lat="41.4569812" lon="12.8864302"><ele>23.599999999999998</ele><time>2026-04-26T06:04:47.201Z</time></trkpt><trkpt lat="41.4570277" lon="12.8863059"><ele>23.4</ele><time>2026-04-26T06:04:49.201Z</time></trkpt><trkpt lat="41.4571056" lon="12.8862102"><ele>23.2</ele><time>2026-04-26T06:04:51.201Z</time></trkpt><trkpt lat="41.4572089" lon="12.8861678"><ele>23.0</ele><time>2026-04-26T06:04:53.201Z</time></trkpt><trkpt lat="41.4573201" lon="12.8861819"><ele>23.799999999999997</ele><time>2026-04-26T06:04:55.201Z</time></trkpt><trkpt lat="41.4574291" lon="12.8862046"><ele>24.6</ele><time>2026-04-26T06:04:57.201Z</time></trkpt><trkpt lat="41.4575314" lon="12.8862459"><ele>25.400000000000002</ele><time>2026-04-26T06:04:59.201Z</time></trkpt><trkpt lat="41.4576394" lon="12.8862833"><ele>26.200000000000003</ele><time>2026-04-26T06:05:01.201Z</time></trkpt><trkpt lat="41.457743" lon="12.8863224"><ele>27.0</ele><time>2026-04-26T06:05:03.201Z</time></trkpt><trkpt lat="41.4578378" lon="12.8863713"><ele>27.0</ele><time>2026-04-26T06:05:05.201Z</time></trkpt><trkpt lat="41.4579236" lon="12.8864157"><ele>27.000000000000004</ele><time>2026-04-26T06:05:07.201Z</time></trkpt><trkpt lat="41.4580052" lon="12.8864582"><ele>27.000000000000004</ele><time>2026-04-26T06:05:09.201Z</time></trkpt><trkpt lat="41.4580874" lon="12.8864966"><ele>27.0</ele><time>2026-04-26T06:05:11.201Z</time></trkpt><trkpt lat="41.4581726" lon="12.8865417"><ele>27.0</ele><time>2026-04-26T06:05:13.201Z</time></trkpt><trkpt lat="41.4582658" lon="12.8865753"><ele>27.400000000000002</ele><time>2026-04-26T06:05:15.201Z</time></trkpt><trkpt lat="41.4583611" lon="12.8866121"><ele>27.800000000000004</ele><time>2026-04-26T06:05:17.201Z</time></trkpt><trkpt lat="41.4584597" lon="12.8866552"><ele>28.2</ele><time>2026-04-26T06:05:19.201Z</time></trkpt><trkpt lat="41.4585535" lon="12.8866885"><ele>28.6</ele><time>2026-04-26T06:05:21.201Z</time></trkpt><trkpt lat="41.4586473" lon="12.8867197"><ele>29.0</ele><time>2026-04-26T06:05:23.201Z</time></trkpt><trkpt lat="41.4587418" lon="12.8867519"><ele>29.0</ele><time>2026-04-26T06:05:25.201Z</time></trkpt><trkpt lat="41.4588389" lon="12.8867793"><ele>29.0</ele><time>2026-04-26T06:05:27.201Z</time></trkpt><trkpt lat="41.4589376" lon="12.8868025"><ele>29.0</ele><time>2026-04-26T06:05:29.201Z</time></trkpt><trkpt lat="41.4590337" lon="12.8868319"><ele>29.0</ele><time>2026-04-26T06:05:31.201Z</time></trkpt><trkpt lat="41.4591313" lon="12.8868508"><ele>29.0</ele><time>2026-04-26T06:05:33.202Z</time></trkpt><trkpt lat="41.4592276" lon="12.8868653"><ele>29.0</ele><time>2026-04-26T06:05:35.201Z</time></trkpt><trkpt lat="41.4593244" lon="12.8868889"><ele>29.0</ele><time>2026-04-26T06:05:37.201Z</time></trkpt><trkpt lat="41.4594228" lon="12.8869054"><ele>29.0</ele><time>2026-04-26T06:05:39.202Z</time></trkpt><trkpt lat="41.4595221" lon="12.8869274"><ele>29.0</ele><time>2026-04-26T06:05:41.201Z</time></trkpt><trkpt lat="41.4596178" lon="12.8869327"><ele>29.0</ele><time>2026-04-26T06:05:43.201Z</time></trkpt><trkpt lat="41.45971" lon="12.8869349"><ele>29.666666666666664</ele><time>2026-04-26T06:05:45.202Z</time></trkpt><trkpt lat="41.4598042" lon="12.8869477"><ele>30.333333333333332</ele><time>2026-04-26T06:05:47.201Z</time></trkpt><trkpt lat="41.4598949" lon="12.8869481"><ele>31.0</ele><time>2026-04-26T06:05:49.202Z</time></trkpt><trkpt lat="41.4599821" lon="12.8869481"><ele>31.666666666666664</ele><time>2026-04-26T06:05:51.201Z</time></trkpt><trkpt lat="41.4600621" lon="12.8869447"><ele>32.333333333333336</ele><time>2026-04-26T06:05:53.202Z</time></trkpt><trkpt lat="41.460147" lon="12.8869475"><ele>33.0</ele><time>2026-04-26T06:05:55.201Z</time></trkpt><trkpt lat="41.460234" lon="12.88695"><ele>33.0</ele><time>2026-04-26T06:05:57.201Z</time></trkpt><trkpt lat="41.4603246" lon="12.8869464"><ele>33.0</ele><time>2026-04-26T06:05:59.201Z</time></trkpt><trkpt lat="41.4604149" lon="12.8869414"><ele>33.0</ele><time>2026-04-26T06:06:01.201Z</time></trkpt><trkpt lat="41.4604964" lon="12.8869239"><ele>33.0</ele><time>2026-04-26T06:06:03.202Z</time></trkpt><trkpt lat="41.4605501" lon="12.8868492"><ele>33.0</ele><time>2026-04-26T06:06:05.201Z</time></trkpt><trkpt lat="41.4605904" lon="12.8867651"><ele>33.0</ele><time>2026-04-26T06:06:07.201Z</time></trkpt><trkpt lat="41.4606212" lon="12.8866891"><ele>32.57142857142857</ele><time>2026-04-26T06:06:09.202Z</time></trkpt><trkpt lat="41.4606888" lon="12.8866512"><ele>32.142857142857146</ele><time>2026-04-26T06:06:12.201Z</time></trkpt><trkpt lat="41.4607376" lon="12.8867126"><ele>31.714285714285715</ele><time>2026-04-26T06:06:14.201Z</time></trkpt><trkpt lat="41.4607948" lon="12.8867643"><ele>31.285714285714285</ele><time>2026-04-26T06:06:16.201Z</time></trkpt><trkpt lat="41.4608478" lon="12.886812"><ele>30.857142857142854</ele><time>2026-04-26T06:06:18.201Z</time></trkpt><trkpt lat="41.4608974" lon="12.8868706"><ele>30.42857142857143</ele><time>2026-04-26T06:06:20.201Z</time></trkpt><trkpt lat="41.4609609" lon="12.8869075"><ele>30.0</ele><time>2026-04-26T06:06:22.201Z</time></trkpt><trkpt lat="41.4610322" lon="12.8869245"><ele>30.0</ele><time>2026-04-26T06:06:24.201Z</time></trkpt><trkpt lat="41.4611028" lon="12.8869262"><ele>30.0</ele><time>2026-04-26T06:06:26.201Z</time></trkpt><trkpt lat="41.4611793" lon="12.8869286"><ele>30.0</ele><time>2026-04-26T06:06:28.201Z</time></trkpt><trkpt lat="41.4612589" lon="12.8869304"><ele>30.0</ele><time>2026-04-26T06:06:30.201Z</time></trkpt><trkpt lat="41.461339" lon="12.8869284"><ele>30.0</ele><time>2026-04-26T06:06:32.201Z</time></trkpt><trkpt lat="41.4614212" lon="12.8869293"><ele>30.0</ele><time>2026-04-26T06:06:34.201Z</time></trkpt><trkpt lat="41.4615072" lon="12.8869256"><ele>29.166666666666668</ele><time>2026-04-26T06:06:36.201Z</time></trkpt><trkpt lat="41.461594" lon="12.8869226"><ele>28.333333333333336</ele><time>2026-04-26T06:06:38.201Z</time></trkpt><trkpt lat="41.4616801" lon="12.8869233"><ele>27.5</ele><time>2026-04-26T06:06:40.201Z</time></trkpt><trkpt lat="41.4617656" lon="12.8869227"><ele>26.666666666666668</ele><time>2026-04-26T06:06:42.201Z</time></trkpt><trkpt lat="41.4618512" lon="12.8869255"><ele>25.833333333333336</ele><time>2026-04-26T06:06:44.201Z</time></trkpt><trkpt lat="41.4619392" lon="12.8869187"><ele>25.0</ele><time>2026-04-26T06:06:46.201Z</time></trkpt><trkpt lat="41.4620296" lon="12.88692"><ele>24.6</ele><time>2026-04-26T06:06:48.201Z</time></trkpt><trkpt lat="41.4621199" lon="12.886923"><ele>24.2</ele><time>2026-04-26T06:06:50.201Z</time></trkpt><trkpt lat="41.4622112" lon="12.8869289"><ele>23.799999999999997</ele><time>2026-04-26T06:06:52.201Z</time></trkpt><trkpt lat="41.4623044" lon="12.8869272"><ele>23.4</ele><time>2026-04-26T06:06:54.201Z</time></trkpt><trkpt lat="41.4623999" lon="12.8869233"><ele>23.0</ele><time>2026-04-26T06:06:56.202Z</time></trkpt><trkpt lat="41.4624897" lon="12.8869199"><ele>23.0</ele><time>2026-04-26T06:06:58.202Z</time></trkpt><trkpt lat="41.4625845" lon="12.8869201"><ele>23.0</ele><time>2026-04-26T06:07:00.201Z</time></trkpt><trkpt lat="41.4626779" lon="12.8869198"><ele>23.0</ele><time>2026-04-26T06:07:02.202Z</time></trkpt><trkpt lat="41.4627701" lon="12.8869236"><ele>23.0</ele><time>2026-04-26T06:07:04.201Z</time></trkpt><trkpt lat="41.4628634" lon="12.8869207"><ele>23.0</ele><time>2026-04-26T06:07:06.201Z</time></trkpt><trkpt lat="41.462956" lon="12.8869259"><ele>23.2</ele><time>2026-04-26T06:07:08.201Z</time></trkpt><trkpt lat="41.463052" lon="12.8869346"><ele>23.4</ele><time>2026-04-26T06:07:10.201Z</time></trkpt><trkpt lat="41.4631484" lon="12.8869409"><ele>23.599999999999998</ele><time>2026-04-26T06:07:12.2Z</time></trkpt><trkpt lat="41.4632477" lon="12.8869491"><ele>23.799999999999997</ele><time>2026-04-26T06:07:14.201Z</time></trkpt><trkpt lat="41.4633397" lon="12.8869551"><ele>24.0</ele><time>2026-04-26T06:07:16.2Z</time></trkpt><trkpt lat="41.4634224" lon="12.8869656"><ele>24.0</ele><time>2026-04-26T06:07:18.201Z</time></trkpt><trkpt lat="41.4635071" lon="12.8869652"><ele>24.0</ele><time>2026-04-26T06:07:20.2Z</time></trkpt><trkpt lat="41.4635897" lon="12.8869716"><ele>24.0</ele><time>2026-04-26T06:07:22.2Z</time></trkpt><trkpt lat="41.4636656" lon="12.8869571"><ele>24.0</ele><time>2026-04-26T06:07:24.2Z</time></trkpt><trkpt lat="41.463727" lon="12.88691"><ele>24.0</ele><time>2026-04-26T06:07:26.2Z</time></trkpt><trkpt lat="41.4637809" lon="12.8868568"><ele>24.0</ele><time>2026-04-26T06:07:28.2Z</time></trkpt><trkpt lat="41.4638459" lon="12.8868205"><ele>24.166666666666668</ele><time>2026-04-26T06:07:30.2Z</time></trkpt><trkpt lat="41.463926" lon="12.8868012"><ele>24.333333333333336</ele><time>2026-04-26T06:07:32.2Z</time></trkpt><trkpt lat="41.4640122" lon="12.8867839"><ele>24.5</ele><time>2026-04-26T06:07:34.2Z</time></trkpt><trkpt lat="41.4640896" lon="12.8867594"><ele>24.666666666666668</ele><time>2026-04-26T06:07:36.2Z</time></trkpt><trkpt lat="41.4641443" lon="12.886692"><ele>24.833333333333336</ele><time>2026-04-26T06:07:39.2Z</time></trkpt><trkpt lat="41.4642165" lon="12.8866512"><ele>25.0</ele><time>2026-04-26T06:07:42.2Z</time></trkpt><trkpt lat="41.46428" lon="12.8865848"><ele>25.166666666666668</ele><time>2026-04-26T06:07:45.2Z</time></trkpt><trkpt lat="41.4643368" lon="12.8865057"><ele>25.333333333333336</ele><time>2026-04-26T06:07:48.2Z</time></trkpt><trkpt lat="41.4643797" lon="12.8864059"><ele>25.5</ele><time>2026-04-26T06:07:51.2Z</time></trkpt><trkpt lat="41.4644002" lon="12.8863248"><ele>25.666666666666664</ele><time>2026-04-26T06:07:53.2Z</time></trkpt><trkpt lat="41.4644172" lon="12.8862026"><ele>25.833333333333332</ele><time>2026-04-26T06:07:56.201Z</time></trkpt><trkpt lat="41.4644264" lon="12.8860823"><ele>26.0</ele><time>2026-04-26T06:07:59.201Z</time></trkpt><trkpt lat="41.4644387" lon="12.8859577"><ele>26.428571428571427</ele><time>2026-04-26T06:08:02.2Z</time></trkpt><trkpt lat="41.4644502" lon="12.8858731"><ele>26.85714285714286</ele><time>2026-04-26T06:08:04.201Z</time></trkpt><trkpt lat="41.4644624" lon="12.8857887"><ele>27.28571428571429</ele><time>2026-04-26T06:08:06.2Z</time></trkpt><trkpt lat="41.4644749" lon="12.8857043"><ele>27.714285714285715</ele><time>2026-04-26T06:08:08.201Z</time></trkpt><trkpt lat="41.4644939" lon="12.8856214"><ele>28.142857142857146</ele><time>2026-04-26T06:08:10.2Z</time></trkpt><trkpt lat="41.4645315" lon="12.8855462"><ele>28.571428571428577</ele><time>2026-04-26T06:08:12.2Z</time></trkpt><trkpt lat="41.4645816" lon="12.8854785"><ele>29.000000000000004</ele><time>2026-04-26T06:08:14.2Z</time></trkpt><trkpt lat="41.4646313" lon="12.8854085"><ele>29.000000000000004</ele><time>2026-04-26T06:08:16.201Z</time></trkpt><trkpt lat="41.4646813" lon="12.8853369"><ele>29.0</ele><time>2026-04-26T06:08:18.2Z</time></trkpt><trkpt lat="41.4647171" lon="12.8852481"><ele>29.000000000000004</ele><time>2026-04-26T06:08:20.2Z</time></trkpt><trkpt lat="41.4647547" lon="12.8851614"><ele>29.000000000000004</ele><time>2026-04-26T06:08:22.2Z</time></trkpt><trkpt lat="41.4647962" lon="12.8850772"><ele>29.0</ele><time>2026-04-26T06:08:24.2Z</time></trkpt><trkpt lat="41.4648372" lon="12.8849935"><ele>29.000000000000004</ele><time>2026-04-26T06:08:26.2Z</time></trkpt><trkpt lat="41.4648802" lon="12.8849158"><ele>29.000000000000004</ele><time>2026-04-26T06:08:28.2Z</time></trkpt><trkpt lat="41.4649284" lon="12.8848445"><ele>29.000000000000004</ele><time>2026-04-26T06:08:30.2Z</time></trkpt><trkpt lat="41.4649755" lon="12.8847666"><ele>29.0</ele><time>2026-04-26T06:08:32.2Z</time></trkpt><trkpt lat="41.4650175" lon="12.8846849"><ele>29.000000000000004</ele><time>2026-04-26T06:08:34.2Z</time></trkpt><trkpt lat="41.4650601" lon="12.8846063"><ele>29.000000000000004</ele><time>2026-04-26T06:08:36.2Z</time></trkpt><trkpt lat="41.4651001" lon="12.8845267"><ele>29.0</ele><time>2026-04-26T06:08:38.2Z</time></trkpt><trkpt lat="41.4651441" lon="12.8844496"><ele>29.000000000000004</ele><time>2026-04-26T06:08:40.2Z</time></trkpt><trkpt lat="41.4651948" lon="12.8843752"><ele>29.000000000000004</ele><time>2026-04-26T06:08:42.2Z</time></trkpt><trkpt lat="41.465243" lon="12.8842967"><ele>28.999999999999996</ele><time>2026-04-26T06:08:44.2Z</time></trkpt><trkpt lat="41.4652937" lon="12.8842211"><ele>29.0</ele><time>2026-04-26T06:08:46.2Z</time></trkpt><trkpt lat="41.4653407" lon="12.8841421"><ele>29.0</ele><time>2026-04-26T06:08:48.2Z</time></trkpt><trkpt lat="41.4653876" lon="12.8840615"><ele>29.0</ele><time>2026-04-26T06:08:50.202Z</time></trkpt><trkpt lat="41.4654342" lon="12.8839796"><ele>28.999999999999996</ele><time>2026-04-26T06:08:52.2Z</time></trkpt><trkpt lat="41.4654798" lon="12.8839012"><ele>29.0</ele><time>2026-04-26T06:08:54.2Z</time></trkpt><trkpt lat="41.4655258" lon="12.8838225"><ele>28.85714285714286</ele><time>2026-04-26T06:08:56.2Z</time></trkpt><trkpt lat="41.4655719" lon="12.8837437"><ele>28.714285714285715</ele><time>2026-04-26T06:08:58.2Z</time></trkpt><trkpt lat="41.4656216" lon="12.8836649"><ele>28.571428571428573</ele><time>2026-04-26T06:09:00.2Z</time></trkpt><trkpt lat="41.4656715" lon="12.8835857"><ele>28.42857142857143</ele><time>2026-04-26T06:09:02.2Z</time></trkpt><trkpt lat="41.4657203" lon="12.8835087"><ele>28.285714285714285</ele><time>2026-04-26T06:09:04.2Z</time></trkpt><trkpt lat="41.4657669" lon="12.883436"><ele>28.142857142857142</ele><time>2026-04-26T06:09:06.2Z</time></trkpt><trkpt lat="41.46583" lon="12.8834034"><ele>28.0</ele><time>2026-04-26T06:09:08.201Z</time></trkpt><trkpt lat="41.4658993" lon="12.8834363"><ele>28.000000000000004</ele><time>2026-04-26T06:09:10.201Z</time></trkpt><trkpt lat="41.4659641" lon="12.883488"><ele>28.0</ele><time>2026-04-26T06:09:12.2Z</time></trkpt><trkpt lat="41.4660301" lon="12.88354"><ele>28.0</ele><time>2026-04-26T06:09:14.2Z</time></trkpt><trkpt lat="41.4660971" lon="12.8835938"><ele>28.0</ele><time>2026-04-26T06:09:16.2Z</time></trkpt><trkpt lat="41.4661645" lon="12.8836444"><ele>28.000000000000004</ele><time>2026-04-26T06:09:18.201Z</time></trkpt><trkpt lat="41.4662311" lon="12.8836963"><ele>28.0</ele><time>2026-04-26T06:09:20.2Z</time></trkpt><trkpt lat="41.4663007" lon="12.8837399"><ele>27.833333333333336</ele><time>2026-04-26T06:09:22.201Z</time></trkpt><trkpt lat="41.4663723" lon="12.8837893"><ele>27.666666666666668</ele><time>2026-04-26T06:09:24.2Z</time></trkpt><trkpt lat="41.4664467" lon="12.8838403"><ele>27.5</ele><time>2026-04-26T06:09:26.201Z</time></trkpt><trkpt lat="41.4665208" lon="12.8838991"><ele>27.333333333333336</ele><time>2026-04-26T06:09:28.2Z</time></trkpt><trkpt lat="41.4665977" lon="12.8839571"><ele>27.166666666666668</ele><time>2026-04-26T06:09:30.2Z</time></trkpt><trkpt lat="41.4666674" lon="12.8840315"><ele>27.0</ele><time>2026-04-26T06:09:32.2Z</time></trkpt><trkpt lat="41.4667402" lon="12.8840983"><ele>27.0</ele><time>2026-04-26T06:09:34.201Z</time></trkpt><trkpt lat="41.4668231" lon="12.8841541"><ele>27.000000000000004</ele><time>2026-04-26T06:09:36.2Z</time></trkpt><trkpt lat="41.4669038" lon="12.8842078"><ele>27.000000000000004</ele><time>2026-04-26T06:09:38.2Z</time></trkpt><trkpt lat="41.4669836" lon="12.884273"><ele>27.0</ele><time>2026-04-26T06:09:40.2Z</time></trkpt><trkpt lat="41.4670649" lon="12.8843342"><ele>27.0</ele><time>2026-04-26T06:09:42.2Z</time></trkpt><trkpt lat="41.4671474" lon="12.8843965"><ele>27.0</ele><time>2026-04-26T06:09:44.2Z</time></trkpt><trkpt lat="41.4672259" lon="12.8844561"><ele>27.000000000000004</ele><time>2026-04-26T06:09:46.2Z</time></trkpt><trkpt lat="41.4673085" lon="12.8845161"><ele>27.000000000000004</ele><time>2026-04-26T06:09:48.2Z</time></trkpt><trkpt lat="41.4673837" lon="12.8845839"><ele>27.0</ele><time>2026-04-26T06:09:50.201Z</time></trkpt><trkpt lat="41.4674679" lon="12.8846501"><ele>27.0</ele><time>2026-04-26T06:09:52.2Z</time></trkpt><trkpt lat="41.4675572" lon="12.8847095"><ele>27.0</ele><time>2026-04-26T06:09:54.2Z</time></trkpt><trkpt lat="41.4676471" lon="12.8847811"><ele>27.000000000000004</ele><time>2026-04-26T06:09:56.201Z</time></trkpt><trkpt lat="41.4677306" lon="12.8848505"><ele>27.000000000000004</ele><time>2026-04-26T06:09:58.2Z</time></trkpt><trkpt lat="41.4678146" lon="12.8849198"><ele>27.0</ele><time>2026-04-26T06:10:00.2Z</time></trkpt><trkpt lat="41.4679006" lon="12.884993"><ele>27.0</ele><time>2026-04-26T06:10:02.201Z</time></trkpt><trkpt lat="41.4679914" lon="12.8850512"><ele>26.400000000000002</ele><time>2026-04-26T06:10:04.2Z</time></trkpt><trkpt lat="41.468074" lon="12.8851188"><ele>25.800000000000004</ele><time>2026-04-26T06:10:06.2Z</time></trkpt><trkpt lat="41.4681547" lon="12.8851867"><ele>25.2</ele><time>2026-04-26T06:10:08.2Z</time></trkpt><trkpt lat="41.4682383" lon="12.8852515"><ele>24.6</ele><time>2026-04-26T06:10:10.2Z</time></trkpt><trkpt lat="41.468323" lon="12.8853168"><ele>24.0</ele><time>2026-04-26T06:10:12.2Z</time></trkpt><trkpt lat="41.4684013" lon="12.8853764"><ele>24.0</ele><time>2026-04-26T06:10:14.2Z</time></trkpt><trkpt lat="41.4684828" lon="12.8854412"><ele>24.0</ele><time>2026-04-26T06:10:16.2Z</time></trkpt><trkpt lat="41.4685626" lon="12.885508"><ele>24.0</ele><time>2026-04-26T06:10:18.2Z</time></trkpt><trkpt lat="41.4686444" lon="12.8855676"><ele>24.0</ele><time>2026-04-26T06:10:20.2Z</time></trkpt><trkpt lat="41.4687251" lon="12.8856231"><ele>24.0</ele><time>2026-04-26T06:10:22.2Z</time></trkpt><trkpt lat="41.4688089" lon="12.8856848"><ele>24.0</ele><time>2026-04-26T06:10:24.2Z</time></trkpt><trkpt lat="41.46889" lon="12.8857399"><ele>24.0</ele><time>2026-04-26T06:10:26.2Z</time></trkpt><trkpt lat="41.4689677" lon="12.88581"><ele>24.0</ele><time>2026-04-26T06:10:28.201Z</time></trkpt><trkpt lat="41.4690499" lon="12.885883"><ele>24.0</ele><time>2026-04-26T06:10:30.2Z</time></trkpt><trkpt lat="41.4691279" lon="12.8859527"><ele>24.0</ele><time>2026-04-26T06:10:32.2Z</time></trkpt><trkpt lat="41.4692156" lon="12.8860103"><ele>23.799999999999997</ele><time>2026-04-26T06:10:34.2Z</time></trkpt><trkpt lat="41.4693076" lon="12.8860882"><ele>23.599999999999998</ele><time>2026-04-26T06:10:36.2Z</time></trkpt><trkpt lat="41.4694046" lon="12.8861757"><ele>23.4</ele><time>2026-04-26T06:10:38.2Z</time></trkpt><trkpt lat="41.4695124" lon="12.8862672"><ele>23.2</ele><time>2026-04-26T06:10:40.201Z</time></trkpt><trkpt lat="41.4695717" lon="12.8863128"><ele>23.0</ele><time>2026-04-26T06:10:41.2Z</time></trkpt><trkpt lat="41.4696335" lon="12.8863594"><ele>23.0</ele><time>2026-04-26T06:10:42.2Z</time></trkpt><trkpt lat="41.4696955" lon="12.8864088"><ele>23.0</ele><time>2026-04-26T06:10:43.2Z</time></trkpt><trkpt lat="41.4697582" lon="12.8864556"><ele>23.0</ele><time>2026-04-26T06:10:44.2Z</time></trkpt><trkpt lat="41.4698212" lon="12.8865043"><ele>23.0</ele><time>2026-04-26T06:10:45.202Z</time></trkpt><trkpt lat="41.4698858" lon="12.8865472"><ele>23.0</ele><time>2026-04-26T06:10:46.2Z</time></trkpt><trkpt lat="41.4699514" lon="12.8865873"><ele>23.0</ele><time>2026-04-26T06:10:47.2Z</time></trkpt><trkpt lat="41.4700146" lon="12.886629"><ele>23.0</ele><time>2026-04-26T06:10:48.2Z</time></trkpt><trkpt lat="41.4700761" lon="12.8866634"><ele>23.0</ele><time>2026-04-26T06:10:49.201Z</time></trkpt><trkpt lat="41.470135" lon="12.8866997"><ele>23.0</ele><time>2026-04-26T06:10:50.2Z</time></trkpt><trkpt lat="41.4701932" lon="12.886735"><ele>23.0</ele><time>2026-04-26T06:10:51.2Z</time></trkpt><trkpt lat="41.470251" lon="12.8867727"><ele>23.0</ele><time>2026-04-26T06:10:52.2Z</time></trkpt><trkpt lat="41.4703607" lon="12.8868512"><ele>23.0</ele><time>2026-04-26T06:10:54.2Z</time></trkpt><trkpt lat="41.4704633" lon="12.8869294"><ele>23.0</ele><time>2026-04-26T06:10:56.2Z</time></trkpt><trkpt lat="41.4705685" lon="12.8870077"><ele>23.0</ele><time>2026-04-26T06:10:58.2Z</time></trkpt><trkpt lat="41.4706707" lon="12.8870941"><ele>23.0</ele><time>2026-04-26T06:11:00.2Z</time></trkpt><trkpt lat="41.4707649" lon="12.8871686"><ele>23.0</ele><time>2026-04-26T06:11:02.2Z</time></trkpt><trkpt lat="41.4708653" lon="12.8872412"><ele>23.0</ele><time>2026-04-26T06:11:04.2Z</time></trkpt><trkpt lat="41.4709716" lon="12.8873145"><ele>23.0</ele><time>2026-04-26T06:11:06.2Z</time></trkpt><trkpt lat="41.4710722" lon="12.8873935"><ele>23.0</ele><time>2026-04-26T06:11:08.2Z</time></trkpt><trkpt lat="41.4711772" lon="12.8874582"><ele>23.0</ele><time>2026-04-26T06:11:10.2Z</time></trkpt><trkpt lat="41.4712768" lon="12.887542"><ele>23.0</ele><time>2026-04-26T06:11:12.2Z</time></trkpt><trkpt lat="41.4713664" lon="12.8876281"><ele>22.599999999999998</ele><time>2026-04-26T06:11:14.2Z</time></trkpt><trkpt lat="41.4714661" lon="12.8876976"><ele>22.2</ele><time>2026-04-26T06:11:16.2Z</time></trkpt><trkpt lat="41.4715572" lon="12.8877652"><ele>21.8</ele><time>2026-04-26T06:11:18.2Z</time></trkpt><trkpt lat="41.4716355" lon="12.8878473"><ele>21.4</ele><time>2026-04-26T06:11:20.202Z</time></trkpt><trkpt lat="41.4717025" lon="12.8879019"><ele>21.0</ele><time>2026-04-26T06:11:22.2Z</time></trkpt><trkpt lat="41.4717765" lon="12.8879682"><ele>21.0</ele><time>2026-04-26T06:11:24.2Z</time></trkpt><trkpt lat="41.4718558" lon="12.8880235"><ele>21.0</ele><time>2026-04-26T06:11:26.2Z</time></trkpt><trkpt lat="41.4719326" lon="12.8880848"><ele>21.0</ele><time>2026-04-26T06:11:28.2Z</time></trkpt><trkpt lat="41.4720076" lon="12.8881493"><ele>21.0</ele><time>2026-04-26T06:11:30.2Z</time></trkpt><trkpt lat="41.4720809" lon="12.8882112"><ele>21.0</ele><time>2026-04-26T06:11:32.2Z</time></trkpt><trkpt lat="41.4721609" lon="12.8882709"><ele>21.0</ele><time>2026-04-26T06:11:34.2Z</time></trkpt><trkpt lat="41.4722386" lon="12.8883328"><ele>21.166666666666668</ele><time>2026-04-26T06:11:36.2Z</time></trkpt><trkpt lat="41.4723153" lon="12.888393"><ele>21.333333333333332</ele><time>2026-04-26T06:11:38.2Z</time></trkpt><trkpt lat="41.472393" lon="12.8884485"><ele>21.5</ele><time>2026-04-26T06:11:40.2Z</time></trkpt><trkpt lat="41.4724727" lon="12.8885043"><ele>21.666666666666664</ele><time>2026-04-26T06:11:42.201Z</time></trkpt><trkpt lat="41.4725442" lon="12.8885587"><ele>21.833333333333332</ele><time>2026-04-26T06:11:44.2Z</time></trkpt><trkpt lat="41.4726115" lon="12.8886164"><ele>22.0</ele><time>2026-04-26T06:11:46.199Z</time></trkpt><trkpt lat="41.4726664" lon="12.8886735"><ele>21.857142857142858</ele><time>2026-04-26T06:11:48.201Z</time></trkpt><trkpt lat="41.4727276" lon="12.8887076"><ele>21.714285714285715</ele><time>2026-04-26T06:11:50.2Z</time></trkpt><trkpt lat="41.4728059" lon="12.8886744"><ele>21.57142857142857</ele><time>2026-04-26T06:11:53.201Z</time></trkpt><trkpt lat="41.4728458" lon="12.8885639"><ele>21.42857142857143</ele><time>2026-04-26T06:11:56.2Z</time></trkpt><trkpt lat="41.4728914" lon="12.888504"><ele>21.285714285714285</ele><time>2026-04-26T06:11:58.2Z</time></trkpt><trkpt lat="41.4729508" lon="12.8884528"><ele>21.142857142857142</ele><time>2026-04-26T06:12:00.2Z</time></trkpt><trkpt lat="41.4729738" lon="12.8883663"><ele>21.0</ele><time>2026-04-26T06:12:02.2Z</time></trkpt><trkpt lat="41.4730061" lon="12.8882893"><ele>21.0</ele><time>2026-04-26T06:12:05.2Z</time></trkpt><trkpt lat="41.4730779" lon="12.8882476"><ele>21.0</ele><time>2026-04-26T06:12:10.201Z</time></trkpt><trkpt lat="41.4731507" lon="12.8882823"><ele>21.0</ele><time>2026-04-26T06:12:13.2Z</time></trkpt><trkpt lat="41.4732121" lon="12.888307"><ele>21.0</ele><time>2026-04-26T06:12:15.2Z</time></trkpt><trkpt lat="41.4732761" lon="12.8883504"><ele>21.0</ele><time>2026-04-26T06:12:17.2Z</time></trkpt><trkpt lat="41.4733348" lon="12.8884118"><ele>21.0</ele><time>2026-04-26T06:12:19.2Z</time></trkpt><trkpt lat="41.4734112" lon="12.8884576"><ele>21.0</ele><time>2026-04-26T06:12:21.2Z</time></trkpt><trkpt lat="41.4734908" lon="12.8884875"><ele>21.0</ele><time>2026-04-26T06:12:23.2Z</time></trkpt><trkpt lat="41.4735631" lon="12.8885365"><ele>21.0</ele><time>2026-04-26T06:12:25.2Z</time></trkpt><trkpt lat="41.4736344" lon="12.8885935"><ele>21.0</ele><time>2026-04-26T06:12:27.2Z</time></trkpt><trkpt lat="41.4737104" lon="12.8886474"><ele>21.0</ele><time>2026-04-26T06:12:29.2Z</time></trkpt><trkpt lat="41.4737879" lon="12.8887138"><ele>21.0</ele><time>2026-04-26T06:12:31.2Z</time></trkpt><trkpt lat="41.4738685" lon="12.8887758"><ele>21.6</ele><time>2026-04-26T06:12:33.2Z</time></trkpt><trkpt lat="41.4739455" lon="12.888834"><ele>22.200000000000003</ele><time>2026-04-26T06:12:35.2Z</time></trkpt><trkpt lat="41.4740232" lon="12.8889162"><ele>22.799999999999997</ele><time>2026-04-26T06:12:37.2Z</time></trkpt><trkpt lat="41.4741112" lon="12.888981"><ele>23.4</ele><time>2026-04-26T06:12:39.2Z</time></trkpt><trkpt lat="41.4742015" lon="12.889041"><ele>24.0</ele><time>2026-04-26T06:12:41.2Z</time></trkpt><trkpt lat="41.4743004" lon="12.8890914"><ele>24.0</ele><time>2026-04-26T06:12:43.2Z</time></trkpt><trkpt lat="41.4744017" lon="12.8891466"><ele>24.0</ele><time>2026-04-26T06:12:45.2Z</time></trkpt><trkpt lat="41.4745038" lon="12.8892132"><ele>24.0</ele><time>2026-04-26T06:12:47.2Z</time></trkpt><trkpt lat="41.4746035" lon="12.889278"><ele>24.0</ele><time>2026-04-26T06:12:49.201Z</time></trkpt><trkpt lat="41.4746932" lon="12.8893415"><ele>24.0</ele><time>2026-04-26T06:12:51.2Z</time></trkpt><trkpt lat="41.4747934" lon="12.8894039"><ele>24.0</ele><time>2026-04-26T06:12:53.2Z</time></trkpt><trkpt lat="41.474894" lon="12.8894659"><ele>24.0</ele><time>2026-04-26T06:12:55.2Z</time></trkpt><trkpt lat="41.4749913" lon="12.8895344"><ele>24.0</ele><time>2026-04-26T06:12:57.201Z</time></trkpt><trkpt lat="41.4750977" lon="12.8895956"><ele>24.0</ele><time>2026-04-26T06:12:59.201Z</time></trkpt><trkpt lat="41.4752057" lon="12.8896537"><ele>24.0</ele><time>2026-04-26T06:13:01.2Z</time></trkpt><trkpt lat="41.4753104" lon="12.8897209"><ele>24.0</ele><time>2026-04-26T06:13:03.2Z</time></trkpt><trkpt lat="41.475414" lon="12.8897938"><ele>24.0</ele><time>2026-04-26T06:13:05.2Z</time></trkpt><trkpt lat="41.4755192" lon="12.8898597"><ele>24.0</ele><time>2026-04-26T06:13:07.2Z</time></trkpt><trkpt lat="41.4756197" lon="12.8899239"><ele>24.2</ele><time>2026-04-26T06:13:09.2Z</time></trkpt><trkpt lat="41.4757185" lon="12.8899968"><ele>24.4</ele><time>2026-04-26T06:13:11.201Z</time></trkpt><trkpt lat="41.4758226" lon="12.8900594"><ele>24.6</ele><time>2026-04-26T06:13:13.2Z</time></trkpt><trkpt lat="41.4759203" lon="12.8901298"><ele>24.8</ele><time>2026-04-26T06:13:15.2Z</time></trkpt><trkpt lat="41.4760103" lon="12.8901936"><ele>25.0</ele><time>2026-04-26T06:13:17.2Z</time></trkpt><trkpt lat="41.4761032" lon="12.8902573"><ele>24.6</ele><time>2026-04-26T06:13:19.201Z</time></trkpt><trkpt lat="41.4761921" lon="12.8903171"><ele>24.2</ele><time>2026-04-26T06:13:21.2Z</time></trkpt><trkpt lat="41.4762988" lon="12.8903884"><ele>23.799999999999997</ele><time>2026-04-26T06:13:23.2Z</time></trkpt><trkpt lat="41.4763938" lon="12.8904527"><ele>23.4</ele><time>2026-04-26T06:13:25.2Z</time></trkpt><trkpt lat="41.4764884" lon="12.8905116"><ele>23.0</ele><time>2026-04-26T06:13:27.2Z</time></trkpt><trkpt lat="41.4765803" lon="12.8905792"><ele>23.0</ele><time>2026-04-26T06:13:29.2Z</time></trkpt><trkpt lat="41.4766842" lon="12.8906396"><ele>23.0</ele><time>2026-04-26T06:13:31.2Z</time></trkpt><trkpt lat="41.4767761" lon="12.8906955"><ele>23.0</ele><time>2026-04-26T06:13:33.2Z</time></trkpt><trkpt lat="41.4768687" lon="12.8907542"><ele>23.0</ele><time>2026-04-26T06:13:35.2Z</time></trkpt><trkpt lat="41.4769611" lon="12.8908174"><ele>23.0</ele><time>2026-04-26T06:13:37.2Z</time></trkpt><trkpt lat="41.4770578" lon="12.8908768"><ele>22.25</ele><time>2026-04-26T06:13:39.2Z</time></trkpt><trkpt lat="41.4771566" lon="12.8909436"><ele>21.5</ele><time>2026-04-26T06:13:41.201Z</time></trkpt><trkpt lat="41.477254" lon="12.8910192"><ele>20.75</ele><time>2026-04-26T06:13:43.2Z</time></trkpt><trkpt lat="41.4773601" lon="12.8910934"><ele>20.0</ele><time>2026-04-26T06:13:45.201Z</time></trkpt><trkpt lat="41.4774716" lon="12.8911695"><ele>20.0</ele><time>2026-04-26T06:13:47.2Z</time></trkpt><trkpt lat="41.4775859" lon="12.8912408"><ele>20.0</ele><time>2026-04-26T06:13:49.201Z</time></trkpt><trkpt lat="41.4776475" lon="12.8912794"><ele>20.0</ele><time>2026-04-26T06:13:50.201Z</time></trkpt><trkpt lat="41.4777106" lon="12.8913178"><ele>20.0</ele><time>2026-04-26T06:13:51.2Z</time></trkpt><trkpt lat="41.477777" lon="12.8913495"><ele>20.0</ele><time>2026-04-26T06:13:52.2Z</time></trkpt><trkpt lat="41.4778453" lon="12.89138"><ele>20.0</ele><time>2026-04-26T06:13:53.2Z</time></trkpt><trkpt lat="41.477916" lon="12.8914027"><ele>19.833333333333336</ele><time>2026-04-26T06:13:54.201Z</time></trkpt><trkpt lat="41.4779878" lon="12.8914146"><ele>19.666666666666668</ele><time>2026-04-26T06:13:55.2Z</time></trkpt><trkpt lat="41.478059" lon="12.8914215"><ele>19.5</ele><time>2026-04-26T06:13:56.201Z</time></trkpt><trkpt lat="41.4781337" lon="12.8914262"><ele>19.333333333333332</ele><time>2026-04-26T06:13:57.2Z</time></trkpt><trkpt lat="41.4782114" lon="12.8914255"><ele>19.166666666666664</ele><time>2026-04-26T06:13:58.2Z</time></trkpt><trkpt lat="41.4782903" lon="12.8914241"><ele>19.0</ele><time>2026-04-26T06:13:59.2Z</time></trkpt><trkpt lat="41.4783696" lon="12.8914227"><ele>19.0</ele><time>2026-04-26T06:14:00.2Z</time></trkpt><trkpt lat="41.4784532" lon="12.8914196"><ele>19.0</ele><time>2026-04-26T06:14:01.2Z</time></trkpt><trkpt lat="41.4785401" lon="12.8914166"><ele>19.0</ele><time>2026-04-26T06:14:02.2Z</time></trkpt><trkpt lat="41.4786232" lon="12.8914161"><ele>19.0</ele><time>2026-04-26T06:14:03.2Z</time></trkpt><trkpt lat="41.4787065" lon="12.8914135"><ele>19.0</ele><time>2026-04-26T06:14:04.201Z</time></trkpt><trkpt lat="41.4787869" lon="12.8914122"><ele>19.0</ele><time>2026-04-26T06:14:05.2Z</time></trkpt><trkpt lat="41.4788682" lon="12.8914134"><ele>18.833333333333332</ele><time>2026-04-26T06:14:06.2Z</time></trkpt><trkpt lat="41.4789514" lon="12.8914098"><ele>18.666666666666664</ele><time>2026-04-26T06:14:07.2Z</time></trkpt><trkpt lat="41.4790309" lon="12.8914056"><ele>18.5</ele><time>2026-04-26T06:14:08.2Z</time></trkpt><trkpt lat="41.4791104" lon="12.8914036"><ele>18.333333333333332</ele><time>2026-04-26T06:14:09.2Z</time></trkpt><trkpt lat="41.4791932" lon="12.891398"><ele>18.166666666666668</ele><time>2026-04-26T06:14:10.2Z</time></trkpt><trkpt lat="41.4792732" lon="12.8913963"><ele>18.0</ele><time>2026-04-26T06:14:11.202Z</time></trkpt><trkpt lat="41.479352" lon="12.8913956"><ele>18.0</ele><time>2026-04-26T06:14:12.201Z</time></trkpt><trkpt lat="41.4794287" lon="12.8913956"><ele>18.0</ele><time>2026-04-26T06:14:13.2Z</time></trkpt><trkpt lat="41.4795074" lon="12.8913942"><ele>18.0</ele><time>2026-04-26T06:14:14.2Z</time></trkpt><trkpt lat="41.4795807" lon="12.8913918"><ele>18.0</ele><time>2026-04-26T06:14:15.2Z</time></trkpt><trkpt lat="41.4796576" lon="12.8913901"><ele>18.0</ele><time>2026-04-26T06:14:16.2Z</time></trkpt><trkpt lat="41.4797362" lon="12.8913913"><ele>18.0</ele><time>2026-04-26T06:14:17.201Z</time></trkpt><trkpt lat="41.4798138" lon="12.891392"><ele>18.166666666666668</ele><time>2026-04-26T06:14:18.2Z</time></trkpt><trkpt lat="41.4798905" lon="12.8913924"><ele>18.333333333333332</ele><time>2026-04-26T06:14:19.2Z</time></trkpt><trkpt lat="41.4799659" lon="12.8913906"><ele>18.5</ele><time>2026-04-26T06:14:20.201Z</time></trkpt><trkpt lat="41.4800421" lon="12.8913917"><ele>18.666666666666664</ele><time>2026-04-26T06:14:21.2Z</time></trkpt><trkpt lat="41.4801188" lon="12.8913836"><ele>18.833333333333332</ele><time>2026-04-26T06:14:22.2Z</time></trkpt><trkpt lat="41.4801937" lon="12.8913819"><ele>19.0</ele><time>2026-04-26T06:14:23.201Z</time></trkpt><trkpt lat="41.4802667" lon="12.8913837"><ele>19.0</ele><time>2026-04-26T06:14:24.2Z</time></trkpt><trkpt lat="41.4803404" lon="12.891382"><ele>19.0</ele><time>2026-04-26T06:14:25.2Z</time></trkpt><trkpt lat="41.4804094" lon="12.8913825"><ele>19.0</ele><time>2026-04-26T06:14:26.2Z</time></trkpt><trkpt lat="41.4804757" lon="12.8913817"><ele>19.0</ele><time>2026-04-26T06:14:27.2Z</time></trkpt><trkpt lat="41.4805399" lon="12.8913788"><ele>19.0</ele><time>2026-04-26T06:14:28.2Z</time></trkpt><trkpt lat="41.4806034" lon="12.8913766"><ele>19.0</ele><time>2026-04-26T06:14:29.2Z</time></trkpt><trkpt lat="41.4807159" lon="12.891367"><ele>19.0</ele><time>2026-04-26T06:14:31.2Z</time></trkpt><trkpt lat="41.4808233" lon="12.8913373"><ele>19.0</ele><time>2026-04-26T06:14:33.2Z</time></trkpt><trkpt lat="41.4809048" lon="12.8912758"><ele>19.0</ele><time>2026-04-26T06:14:35.2Z</time></trkpt><trkpt lat="41.480938" lon="12.8911915"><ele>19.0</ele><time>2026-04-26T06:14:37.2Z</time></trkpt><trkpt lat="41.4809696" lon="12.8910809"><ele>19.0</ele><time>2026-04-26T06:14:40.2Z</time></trkpt><trkpt lat="41.480998" lon="12.8909818"><ele>19.0</ele><time>2026-04-26T06:14:43.201Z</time></trkpt><trkpt lat="41.4810166" lon="12.8908883"><ele>19.0</ele><time>2026-04-26T06:14:47.2Z</time></trkpt><trkpt lat="41.4810331" lon="12.890794"><ele>17.0</ele><time>2026-04-26T06:14:51.2Z</time></trkpt><trkpt lat="41.4810566" lon="12.8907044"><ele>17.0</ele><time>2026-04-26T06:14:55.2Z</time></trkpt><trkpt lat="41.48111" lon="12.890646"><ele>17.0</ele><time>2026-04-26T06:15:01.2Z</time></trkpt><trkpt lat="41.4811861" lon="12.890661"><ele>17.0</ele><time>2026-04-26T06:15:06.2Z</time></trkpt></trkseg></trk></gpx>